<?xml version="1.0" encoding="utf-8"?>
<gpx xmlns:xsi="http://www.w3.org/2001/XMLSchema-instance" xmlns:xsd="http://www.w3.org/2001/XMLSchema" version="1.1" creator="Shapelink.com" xmlns="http://www.topografix.com/GPX/1/1" xmlns:gpxtpx="http://www.garmin.com/xmlschemas/TrackPointExtension/v1">
  <metadata>
    <name>Cykling 62.56 km, 2012-07-12</name>
    <desc></desc>
    <author><name>Alexander Engvall</name></author> 
    <time>2012-07-12T09:59:55Z</time>
  </metadata>
  <trk>
    <name>Cykling 62.56 km, 2012-07-12</name>
    <trkseg>
      <trkpt lat="59.456897" lon="17.8048712">
        <ele>21.2</ele>
        <time>2012-07-12T09:59:55Z</time>
      </trkpt>
      <trkpt lat="59.4567716" lon="17.8051025">
        <ele>19.6</ele>
        <time>2012-07-12T09:59:58Z</time>
      </trkpt>
      <trkpt lat="59.4566121" lon="17.8054069">
        <ele>22</ele>
        <time>2012-07-12T10:00:02Z</time>
      </trkpt>
      <trkpt lat="59.4565716" lon="17.8056004">
        <ele>18.8</ele>
        <time>2012-07-12T10:00:05Z</time>
      </trkpt>
      <trkpt lat="59.4568349" lon="17.8057856">
        <ele>21.2</ele>
        <time>2012-07-12T10:00:10Z</time>
      </trkpt>
      <trkpt lat="59.4569061" lon="17.8058203">
        <ele>21</ele>
        <time>2012-07-12T10:00:11Z</time>
      </trkpt>
      <trkpt lat="59.4573177" lon="17.8060036">
        <ele>17.6</ele>
        <time>2012-07-12T10:00:16Z</time>
      </trkpt>
      <trkpt lat="59.4577144" lon="17.8061886">
        <ele>17.8</ele>
        <time>2012-07-12T10:00:21Z</time>
      </trkpt>
      <trkpt lat="59.458053" lon="17.8062882">
        <ele>19.2</ele>
        <time>2012-07-12T10:00:26Z</time>
      </trkpt>
      <trkpt lat="59.4584138" lon="17.8063656">
        <ele>21.2</ele>
        <time>2012-07-12T10:00:31Z</time>
      </trkpt>
      <trkpt lat="59.4588043" lon="17.806478">
        <ele>22.2</ele>
        <time>2012-07-12T10:00:36Z</time>
      </trkpt>
      <trkpt lat="59.4592161" lon="17.8065721">
        <ele>24</ele>
        <time>2012-07-12T10:00:41Z</time>
      </trkpt>
      <trkpt lat="59.4596557" lon="17.8066517">
        <ele>26.6</ele>
        <time>2012-07-12T10:00:46Z</time>
      </trkpt>
      <trkpt lat="59.460028" lon="17.8066719">
        <ele>27.4</ele>
        <time>2012-07-12T10:00:50Z</time>
      </trkpt>
      <trkpt lat="59.4603972" lon="17.8066493">
        <ele>29.8</ele>
        <time>2012-07-12T10:00:54Z</time>
      </trkpt>
      <trkpt lat="59.4608518" lon="17.8065537">
        <ele>33.6</ele>
        <time>2012-07-12T10:00:59Z</time>
      </trkpt>
      <trkpt lat="59.4612694" lon="17.8064388">
        <ele>35.2</ele>
        <time>2012-07-12T10:01:04Z</time>
      </trkpt>
      <trkpt lat="59.461671" lon="17.8064102">
        <ele>35</ele>
        <time>2012-07-12T10:01:09Z</time>
      </trkpt>
      <trkpt lat="59.4621071" lon="17.8062706">
        <ele>35.4</ele>
        <time>2012-07-12T10:01:14Z</time>
      </trkpt>
      <trkpt lat="59.462521" lon="17.8061274">
        <ele>38</ele>
        <time>2012-07-12T10:01:19Z</time>
      </trkpt>
      <trkpt lat="59.4630095" lon="17.8060845">
        <ele>36</ele>
        <time>2012-07-12T10:01:25Z</time>
      </trkpt>
      <trkpt lat="59.4633741" lon="17.8061907">
        <ele>31.6</ele>
        <time>2012-07-12T10:01:30Z</time>
      </trkpt>
      <trkpt lat="59.463705" lon="17.806578">
        <ele>25.8</ele>
        <time>2012-07-12T10:01:35Z</time>
      </trkpt>
      <trkpt lat="59.4639311" lon="17.807251">
        <ele>21.4</ele>
        <time>2012-07-12T10:01:40Z</time>
      </trkpt>
      <trkpt lat="59.4639578" lon="17.8074049">
        <ele>21.4</ele>
        <time>2012-07-12T10:01:41Z</time>
      </trkpt>
      <trkpt lat="59.4639785" lon="17.8075572">
        <ele>22</ele>
        <time>2012-07-12T10:01:42Z</time>
      </trkpt>
      <trkpt lat="59.4639759" lon="17.8080347">
        <ele>19.2</ele>
        <time>2012-07-12T10:01:45Z</time>
      </trkpt>
      <trkpt lat="59.4639374" lon="17.8088577">
        <ele>18.8</ele>
        <time>2012-07-12T10:01:50Z</time>
      </trkpt>
      <trkpt lat="59.4639435" lon="17.8093846">
        <ele>19.8</ele>
        <time>2012-07-12T10:01:53Z</time>
      </trkpt>
      <trkpt lat="59.4639897" lon="17.8097159">
        <ele>20.4</ele>
        <time>2012-07-12T10:01:55Z</time>
      </trkpt>
      <trkpt lat="59.4641583" lon="17.8104003">
        <ele>20.8</ele>
        <time>2012-07-12T10:02:00Z</time>
      </trkpt>
      <trkpt lat="59.4643447" lon="17.8110919">
        <ele>18.2</ele>
        <time>2012-07-12T10:02:05Z</time>
      </trkpt>
      <trkpt lat="59.4645369" lon="17.811856">
        <ele>16.8</ele>
        <time>2012-07-12T10:02:11Z</time>
      </trkpt>
      <trkpt lat="59.4647749" lon="17.8124655">
        <ele>17.4</ele>
        <time>2012-07-12T10:02:17Z</time>
      </trkpt>
      <trkpt lat="59.4649749" lon="17.8127729">
        <ele>19</ele>
        <time>2012-07-12T10:02:22Z</time>
      </trkpt>
      <trkpt lat="59.4651318" lon="17.8127641">
        <ele>21.2</ele>
        <time>2012-07-12T10:02:25Z</time>
      </trkpt>
      <trkpt lat="59.4653089" lon="17.8123793">
        <ele>19</ele>
        <time>2012-07-12T10:02:29Z</time>
      </trkpt>
      <trkpt lat="59.4653531" lon="17.812259">
        <ele>18.2</ele>
        <time>2012-07-12T10:02:30Z</time>
      </trkpt>
      <trkpt lat="59.4655726" lon="17.8116209">
        <ele>14.6</ele>
        <time>2012-07-12T10:02:35Z</time>
      </trkpt>
      <trkpt lat="59.465806" lon="17.8109408">
        <ele>10.6</ele>
        <time>2012-07-12T10:02:40Z</time>
      </trkpt>
      <trkpt lat="59.4660917" lon="17.8102626">
        <ele>7.4</ele>
        <time>2012-07-12T10:02:45Z</time>
      </trkpt>
      <trkpt lat="59.4663744" lon="17.8097922">
        <ele>4.4</ele>
        <time>2012-07-12T10:02:49Z</time>
      </trkpt>
      <trkpt lat="59.4666993" lon="17.8094552">
        <ele>2.6</ele>
        <time>2012-07-12T10:02:53Z</time>
      </trkpt>
      <trkpt lat="59.4670579" lon="17.8092567">
        <ele>0</ele>
        <time>2012-07-12T10:02:57Z</time>
      </trkpt>
      <trkpt lat="59.4674447" lon="17.8092256">
        <ele>0</ele>
        <time>2012-07-12T10:03:01Z</time>
      </trkpt>
      <trkpt lat="59.4678447" lon="17.809364">
        <ele>0</ele>
        <time>2012-07-12T10:03:05Z</time>
      </trkpt>
      <trkpt lat="59.4681253" lon="17.8095389">
        <ele>0</ele>
        <time>2012-07-12T10:03:08Z</time>
      </trkpt>
      <trkpt lat="59.4682075" lon="17.8096234">
        <ele>0</ele>
        <time>2012-07-12T10:03:09Z</time>
      </trkpt>
      <trkpt lat="59.4683591" lon="17.8098032">
        <ele>0</ele>
        <time>2012-07-12T10:03:11Z</time>
      </trkpt>
      <trkpt lat="59.468619" lon="17.8099016">
        <ele>0</ele>
        <time>2012-07-12T10:03:14Z</time>
      </trkpt>
      <trkpt lat="59.4687044" lon="17.8099">
        <ele>0</ele>
        <time>2012-07-12T10:03:15Z</time>
      </trkpt>
      <trkpt lat="59.4690282" lon="17.8099377">
        <ele>0</ele>
        <time>2012-07-12T10:03:19Z</time>
      </trkpt>
      <trkpt lat="59.4693992" lon="17.8099827">
        <ele>2.4</ele>
        <time>2012-07-12T10:03:24Z</time>
      </trkpt>
      <trkpt lat="59.4697859" lon="17.8100233">
        <ele>3</ele>
        <time>2012-07-12T10:03:29Z</time>
      </trkpt>
      <trkpt lat="59.4701459" lon="17.8100724">
        <ele>2.8</ele>
        <time>2012-07-12T10:03:34Z</time>
      </trkpt>
      <trkpt lat="59.470217" lon="17.8100905">
        <ele>2.8</ele>
        <time>2012-07-12T10:03:35Z</time>
      </trkpt>
      <trkpt lat="59.4705052" lon="17.8101741">
        <ele>2.4</ele>
        <time>2012-07-12T10:03:39Z</time>
      </trkpt>
      <trkpt lat="59.470864" lon="17.8101989">
        <ele>2.8</ele>
        <time>2012-07-12T10:03:44Z</time>
      </trkpt>
      <trkpt lat="59.4712804" lon="17.8103004">
        <ele>1.6</ele>
        <time>2012-07-12T10:03:50Z</time>
      </trkpt>
      <trkpt lat="59.4717207" lon="17.8105302">
        <ele>1.4</ele>
        <time>2012-07-12T10:03:56Z</time>
      </trkpt>
      <trkpt lat="59.4720659" lon="17.8107792">
        <ele>1.2</ele>
        <time>2012-07-12T10:04:02Z</time>
      </trkpt>
      <trkpt lat="59.4723668" lon="17.8110604">
        <ele>13.4</ele>
        <time>2012-07-12T10:04:08Z</time>
      </trkpt>
      <trkpt lat="59.4724581" lon="17.8117189">
        <ele>13.6</ele>
        <time>2012-07-12T10:04:14Z</time>
      </trkpt>
      <trkpt lat="59.4726646" lon="17.8122873">
        <ele>15.6</ele>
        <time>2012-07-12T10:04:20Z</time>
      </trkpt>
      <trkpt lat="59.4728704" lon="17.812346">
        <ele>15.6</ele>
        <time>2012-07-12T10:04:23Z</time>
      </trkpt>
      <trkpt lat="59.4730795" lon="17.8123785">
        <ele>14.2</ele>
        <time>2012-07-12T10:04:26Z</time>
      </trkpt>
      <trkpt lat="59.473147" lon="17.8124107">
        <ele>13.8</ele>
        <time>2012-07-12T10:04:27Z</time>
      </trkpt>
      <trkpt lat="59.4733835" lon="17.8126782">
        <ele>13.6</ele>
        <time>2012-07-12T10:04:31Z</time>
      </trkpt>
      <trkpt lat="59.4734367" lon="17.8127641">
        <ele>13.4</ele>
        <time>2012-07-12T10:04:32Z</time>
      </trkpt>
      <trkpt lat="59.4737343" lon="17.8133495">
        <ele>11.6</ele>
        <time>2012-07-12T10:04:38Z</time>
      </trkpt>
      <trkpt lat="59.4739601" lon="17.8139171">
        <ele>10.4</ele>
        <time>2012-07-12T10:04:43Z</time>
      </trkpt>
      <trkpt lat="59.4741673" lon="17.8145248">
        <ele>8.6</ele>
        <time>2012-07-12T10:04:48Z</time>
      </trkpt>
      <trkpt lat="59.4743607" lon="17.8151734">
        <ele>7.2</ele>
        <time>2012-07-12T10:04:53Z</time>
      </trkpt>
      <trkpt lat="59.4745482" lon="17.8158405">
        <ele>5.8</ele>
        <time>2012-07-12T10:04:58Z</time>
      </trkpt>
      <trkpt lat="59.4747202" lon="17.8165061">
        <ele>4.2</ele>
        <time>2012-07-12T10:05:03Z</time>
      </trkpt>
      <trkpt lat="59.4748854" lon="17.8171549">
        <ele>2.6</ele>
        <time>2012-07-12T10:05:08Z</time>
      </trkpt>
      <trkpt lat="59.4750443" lon="17.8178022">
        <ele>1.2</ele>
        <time>2012-07-12T10:05:13Z</time>
      </trkpt>
      <trkpt lat="59.475186" lon="17.8184528">
        <ele>0</ele>
        <time>2012-07-12T10:05:18Z</time>
      </trkpt>
      <trkpt lat="59.4753682" lon="17.8192174">
        <ele>0</ele>
        <time>2012-07-12T10:05:24Z</time>
      </trkpt>
      <trkpt lat="59.4755448" lon="17.8200063">
        <ele>1</ele>
        <time>2012-07-12T10:05:30Z</time>
      </trkpt>
      <trkpt lat="59.4756965" lon="17.8207336">
        <ele>0.2</ele>
        <time>2012-07-12T10:05:35Z</time>
      </trkpt>
      <trkpt lat="59.4758344" lon="17.8214424">
        <ele>1.2</ele>
        <time>2012-07-12T10:05:40Z</time>
      </trkpt>
      <trkpt lat="59.4759587" lon="17.8221381">
        <ele>0.4</ele>
        <time>2012-07-12T10:05:45Z</time>
      </trkpt>
      <trkpt lat="59.4760737" lon="17.8228524">
        <ele>1.4</ele>
        <time>2012-07-12T10:05:50Z</time>
      </trkpt>
      <trkpt lat="59.4761871" lon="17.8235756">
        <ele>1</ele>
        <time>2012-07-12T10:05:55Z</time>
      </trkpt>
      <trkpt lat="59.4762892" lon="17.8242941">
        <ele>0.8</ele>
        <time>2012-07-12T10:06:00Z</time>
      </trkpt>
      <trkpt lat="59.4763905" lon="17.8250171">
        <ele>0.8</ele>
        <time>2012-07-12T10:06:05Z</time>
      </trkpt>
      <trkpt lat="59.4764907" lon="17.8257697">
        <ele>1.6</ele>
        <time>2012-07-12T10:06:10Z</time>
      </trkpt>
      <trkpt lat="59.4765915" lon="17.8265794">
        <ele>1.8</ele>
        <time>2012-07-12T10:06:15Z</time>
      </trkpt>
      <trkpt lat="59.4766767" lon="17.8274042">
        <ele>0.6</ele>
        <time>2012-07-12T10:06:20Z</time>
      </trkpt>
      <trkpt lat="59.4767704" lon="17.8282187">
        <ele>1</ele>
        <time>2012-07-12T10:06:25Z</time>
      </trkpt>
      <trkpt lat="59.4768363" lon="17.8289294">
        <ele>1</ele>
        <time>2012-07-12T10:06:29Z</time>
      </trkpt>
      <trkpt lat="59.4768966" lon="17.8296728">
        <ele>0</ele>
        <time>2012-07-12T10:06:33Z</time>
      </trkpt>
      <trkpt lat="59.4769579" lon="17.8304433">
        <ele>0</ele>
        <time>2012-07-12T10:06:37Z</time>
      </trkpt>
      <trkpt lat="59.4770191" lon="17.831257">
        <ele>0</ele>
        <time>2012-07-12T10:06:41Z</time>
      </trkpt>
      <trkpt lat="59.4770805" lon="17.8320942">
        <ele>0</ele>
        <time>2012-07-12T10:06:45Z</time>
      </trkpt>
      <trkpt lat="59.4771401" lon="17.832944">
        <ele>0</ele>
        <time>2012-07-12T10:06:49Z</time>
      </trkpt>
      <trkpt lat="59.4771971" lon="17.8338155">
        <ele>0</ele>
        <time>2012-07-12T10:06:53Z</time>
      </trkpt>
      <trkpt lat="59.4772437" lon="17.8346859">
        <ele>0</ele>
        <time>2012-07-12T10:06:57Z</time>
      </trkpt>
      <trkpt lat="59.4772854" lon="17.8355322">
        <ele>0</ele>
        <time>2012-07-12T10:07:01Z</time>
      </trkpt>
      <trkpt lat="59.4773209" lon="17.8363839">
        <ele>0</ele>
        <time>2012-07-12T10:07:05Z</time>
      </trkpt>
      <trkpt lat="59.4773532" lon="17.8372503">
        <ele>0</ele>
        <time>2012-07-12T10:07:09Z</time>
      </trkpt>
      <trkpt lat="59.4773848" lon="17.8380901">
        <ele>0</ele>
        <time>2012-07-12T10:07:13Z</time>
      </trkpt>
      <trkpt lat="59.4774133" lon="17.8389081">
        <ele>0</ele>
        <time>2012-07-12T10:07:17Z</time>
      </trkpt>
      <trkpt lat="59.4774382" lon="17.839755">
        <ele>0</ele>
        <time>2012-07-12T10:07:21Z</time>
      </trkpt>
      <trkpt lat="59.4774662" lon="17.8405874">
        <ele>0</ele>
        <time>2012-07-12T10:07:25Z</time>
      </trkpt>
      <trkpt lat="59.4774718" lon="17.8414204">
        <ele>0</ele>
        <time>2012-07-12T10:07:29Z</time>
      </trkpt>
      <trkpt lat="59.4774635" lon="17.8422408">
        <ele>0</ele>
        <time>2012-07-12T10:07:33Z</time>
      </trkpt>
      <trkpt lat="59.477446" lon="17.8430496">
        <ele>0</ele>
        <time>2012-07-12T10:07:37Z</time>
      </trkpt>
      <trkpt lat="59.4774222" lon="17.843854">
        <ele>0</ele>
        <time>2012-07-12T10:07:41Z</time>
      </trkpt>
      <trkpt lat="59.4773921" lon="17.8446454">
        <ele>0</ele>
        <time>2012-07-12T10:07:45Z</time>
      </trkpt>
      <trkpt lat="59.4773473" lon="17.8453997">
        <ele>1</ele>
        <time>2012-07-12T10:07:49Z</time>
      </trkpt>
      <trkpt lat="59.4772408" lon="17.8462672">
        <ele>0</ele>
        <time>2012-07-12T10:07:54Z</time>
      </trkpt>
      <trkpt lat="59.4771542" lon="17.8469806">
        <ele>0</ele>
        <time>2012-07-12T10:07:58Z</time>
      </trkpt>
      <trkpt lat="59.4770583" lon="17.8477026">
        <ele>0</ele>
        <time>2012-07-12T10:08:02Z</time>
      </trkpt>
      <trkpt lat="59.476965" lon="17.8484416">
        <ele>0</ele>
        <time>2012-07-12T10:08:06Z</time>
      </trkpt>
      <trkpt lat="59.4768917" lon="17.8491518">
        <ele>0</ele>
        <time>2012-07-12T10:08:10Z</time>
      </trkpt>
      <trkpt lat="59.4767829" lon="17.849835">
        <ele>0</ele>
        <time>2012-07-12T10:08:14Z</time>
      </trkpt>
      <trkpt lat="59.4766657" lon="17.8505156">
        <ele>0</ele>
        <time>2012-07-12T10:08:18Z</time>
      </trkpt>
      <trkpt lat="59.4765477" lon="17.851186">
        <ele>0</ele>
        <time>2012-07-12T10:08:22Z</time>
      </trkpt>
      <trkpt lat="59.4764411" lon="17.8518612">
        <ele>0</ele>
        <time>2012-07-12T10:08:26Z</time>
      </trkpt>
      <trkpt lat="59.4763197" lon="17.8526346">
        <ele>0</ele>
        <time>2012-07-12T10:08:31Z</time>
      </trkpt>
      <trkpt lat="59.4764555" lon="17.8532104">
        <ele>0</ele>
        <time>2012-07-12T10:09:03Z</time>
      </trkpt>
      <trkpt lat="59.4766814" lon="17.8533277">
        <ele>0</ele>
        <time>2012-07-12T10:09:07Z</time>
      </trkpt>
      <trkpt lat="59.4771222" lon="17.853617">
        <ele>0</ele>
        <time>2012-07-12T10:09:12Z</time>
      </trkpt>
      <trkpt lat="59.4775066" lon="17.8538675">
        <ele>0.2</ele>
        <time>2012-07-12T10:09:16Z</time>
      </trkpt>
      <trkpt lat="59.4779318" lon="17.8541343">
        <ele>7.4</ele>
        <time>2012-07-12T10:09:20Z</time>
      </trkpt>
      <trkpt lat="59.4783431" lon="17.8543886">
        <ele>13.2</ele>
        <time>2012-07-12T10:09:24Z</time>
      </trkpt>
      <trkpt lat="59.4785315" lon="17.8545038">
        <ele>15.2</ele>
        <time>2012-07-12T10:09:26Z</time>
      </trkpt>
      <trkpt lat="59.4787052" lon="17.854729">
        <ele>16.6</ele>
        <time>2012-07-12T10:09:28Z</time>
      </trkpt>
      <trkpt lat="59.4788291" lon="17.8555661">
        <ele>17.4</ele>
        <time>2012-07-12T10:09:33Z</time>
      </trkpt>
      <trkpt lat="59.4791802" lon="17.855646">
        <ele>18.6</ele>
        <time>2012-07-12T10:09:37Z</time>
      </trkpt>
      <trkpt lat="59.4792756" lon="17.8556429">
        <ele>19</ele>
        <time>2012-07-12T10:09:38Z</time>
      </trkpt>
      <trkpt lat="59.4796511" lon="17.8556309">
        <ele>19.8</ele>
        <time>2012-07-12T10:09:42Z</time>
      </trkpt>
      <trkpt lat="59.4800133" lon="17.8556007">
        <ele>20.8</ele>
        <time>2012-07-12T10:09:46Z</time>
      </trkpt>
      <trkpt lat="59.4803629" lon="17.8554969">
        <ele>20.6</ele>
        <time>2012-07-12T10:09:50Z</time>
      </trkpt>
      <trkpt lat="59.4807892" lon="17.8552456">
        <ele>20.2</ele>
        <time>2012-07-12T10:09:55Z</time>
      </trkpt>
      <trkpt lat="59.4811288" lon="17.8550145">
        <ele>20.4</ele>
        <time>2012-07-12T10:09:59Z</time>
      </trkpt>
      <trkpt lat="59.4814724" lon="17.8548118">
        <ele>20.8</ele>
        <time>2012-07-12T10:10:03Z</time>
      </trkpt>
      <trkpt lat="59.4818325" lon="17.8547048">
        <ele>20.8</ele>
        <time>2012-07-12T10:10:07Z</time>
      </trkpt>
      <trkpt lat="59.4821991" lon="17.8546997">
        <ele>21</ele>
        <time>2012-07-12T10:10:11Z</time>
      </trkpt>
      <trkpt lat="59.4825794" lon="17.8547291">
        <ele>21.2</ele>
        <time>2012-07-12T10:10:15Z</time>
      </trkpt>
      <trkpt lat="59.4829788" lon="17.8547762">
        <ele>23.6</ele>
        <time>2012-07-12T10:10:19Z</time>
      </trkpt>
      <trkpt lat="59.4833704" lon="17.8548146">
        <ele>24.2</ele>
        <time>2012-07-12T10:10:23Z</time>
      </trkpt>
      <trkpt lat="59.4837465" lon="17.8548482">
        <ele>24.2</ele>
        <time>2012-07-12T10:10:27Z</time>
      </trkpt>
      <trkpt lat="59.4841115" lon="17.8548882">
        <ele>24.6</ele>
        <time>2012-07-12T10:10:31Z</time>
      </trkpt>
      <trkpt lat="59.4844692" lon="17.8549253">
        <ele>25</ele>
        <time>2012-07-12T10:10:35Z</time>
      </trkpt>
      <trkpt lat="59.4848281" lon="17.8549585">
        <ele>25.4</ele>
        <time>2012-07-12T10:10:39Z</time>
      </trkpt>
      <trkpt lat="59.4851876" lon="17.8549931">
        <ele>25.6</ele>
        <time>2012-07-12T10:10:43Z</time>
      </trkpt>
      <trkpt lat="59.4855554" lon="17.8550325">
        <ele>25.4</ele>
        <time>2012-07-12T10:10:47Z</time>
      </trkpt>
      <trkpt lat="59.4859874" lon="17.8550793">
        <ele>26.6</ele>
        <time>2012-07-12T10:10:52Z</time>
      </trkpt>
      <trkpt lat="59.486376" lon="17.8551022">
        <ele>28</ele>
        <time>2012-07-12T10:10:57Z</time>
      </trkpt>
      <trkpt lat="59.4867368" lon="17.8550654">
        <ele>29.2</ele>
        <time>2012-07-12T10:11:02Z</time>
      </trkpt>
      <trkpt lat="59.4870937" lon="17.854947">
        <ele>31</ele>
        <time>2012-07-12T10:11:07Z</time>
      </trkpt>
      <trkpt lat="59.487486" lon="17.8547353">
        <ele>33.6</ele>
        <time>2012-07-12T10:11:13Z</time>
      </trkpt>
      <trkpt lat="59.4878299" lon="17.8545442">
        <ele>35.2</ele>
        <time>2012-07-12T10:11:18Z</time>
      </trkpt>
      <trkpt lat="59.4882403" lon="17.8543271">
        <ele>35.8</ele>
        <time>2012-07-12T10:11:24Z</time>
      </trkpt>
      <trkpt lat="59.4886407" lon="17.8541087">
        <ele>37</ele>
        <time>2012-07-12T10:11:30Z</time>
      </trkpt>
      <trkpt lat="59.4890419" lon="17.853893">
        <ele>37.6</ele>
        <time>2012-07-12T10:11:36Z</time>
      </trkpt>
      <trkpt lat="59.4893781" lon="17.8536605">
        <ele>37.6</ele>
        <time>2012-07-12T10:11:41Z</time>
      </trkpt>
      <trkpt lat="59.4897191" lon="17.853374">
        <ele>37</ele>
        <time>2012-07-12T10:11:46Z</time>
      </trkpt>
      <trkpt lat="59.4900642" lon="17.8530643">
        <ele>37.2</ele>
        <time>2012-07-12T10:11:51Z</time>
      </trkpt>
      <trkpt lat="59.4904019" lon="17.8527394">
        <ele>37.6</ele>
        <time>2012-07-12T10:11:56Z</time>
      </trkpt>
      <trkpt lat="59.4907261" lon="17.8524127">
        <ele>38.2</ele>
        <time>2012-07-12T10:12:01Z</time>
      </trkpt>
      <trkpt lat="59.4910466" lon="17.8520991">
        <ele>38</ele>
        <time>2012-07-12T10:12:06Z</time>
      </trkpt>
      <trkpt lat="59.4914036" lon="17.8517991">
        <ele>38.4</ele>
        <time>2012-07-12T10:12:11Z</time>
      </trkpt>
      <trkpt lat="59.4917517" lon="17.8515136">
        <ele>39.8</ele>
        <time>2012-07-12T10:12:15Z</time>
      </trkpt>
      <trkpt lat="59.4921108" lon="17.851206">
        <ele>41.8</ele>
        <time>2012-07-12T10:12:19Z</time>
      </trkpt>
      <trkpt lat="59.492516" lon="17.850871">
        <ele>42.6</ele>
        <time>2012-07-12T10:12:24Z</time>
      </trkpt>
      <trkpt lat="59.4929014" lon="17.8506336">
        <ele>43</ele>
        <time>2012-07-12T10:12:29Z</time>
      </trkpt>
      <trkpt lat="59.4932855" lon="17.8504496">
        <ele>43.6</ele>
        <time>2012-07-12T10:12:34Z</time>
      </trkpt>
      <trkpt lat="59.4936978" lon="17.8503289">
        <ele>44.2</ele>
        <time>2012-07-12T10:12:39Z</time>
      </trkpt>
      <trkpt lat="59.4941151" lon="17.8502818">
        <ele>44.6</ele>
        <time>2012-07-12T10:12:44Z</time>
      </trkpt>
      <trkpt lat="59.494522" lon="17.8502813">
        <ele>45</ele>
        <time>2012-07-12T10:12:49Z</time>
      </trkpt>
      <trkpt lat="59.4949053" lon="17.850285">
        <ele>45.6</ele>
        <time>2012-07-12T10:12:54Z</time>
      </trkpt>
      <trkpt lat="59.4952898" lon="17.8503124">
        <ele>43.8</ele>
        <time>2012-07-12T10:12:59Z</time>
      </trkpt>
      <trkpt lat="59.4957069" lon="17.850331">
        <ele>42.8</ele>
        <time>2012-07-12T10:13:04Z</time>
      </trkpt>
      <trkpt lat="59.4961347" lon="17.8503254">
        <ele>42.4</ele>
        <time>2012-07-12T10:13:09Z</time>
      </trkpt>
      <trkpt lat="59.4965584" lon="17.8503106">
        <ele>43.4</ele>
        <time>2012-07-12T10:13:14Z</time>
      </trkpt>
      <trkpt lat="59.4969608" lon="17.8503318">
        <ele>44.4</ele>
        <time>2012-07-12T10:13:19Z</time>
      </trkpt>
      <trkpt lat="59.4973524" lon="17.8504235">
        <ele>45.6</ele>
        <time>2012-07-12T10:13:24Z</time>
      </trkpt>
      <trkpt lat="59.497752" lon="17.8506613">
        <ele>46</ele>
        <time>2012-07-12T10:13:29Z</time>
      </trkpt>
      <trkpt lat="59.4981351" lon="17.8510122">
        <ele>46.4</ele>
        <time>2012-07-12T10:13:34Z</time>
      </trkpt>
      <trkpt lat="59.4985065" lon="17.8513924">
        <ele>45.2</ele>
        <time>2012-07-12T10:13:39Z</time>
      </trkpt>
      <trkpt lat="59.4988687" lon="17.8517827">
        <ele>44.2</ele>
        <time>2012-07-12T10:13:44Z</time>
      </trkpt>
      <trkpt lat="59.4992296" lon="17.8521585">
        <ele>43.4</ele>
        <time>2012-07-12T10:13:49Z</time>
      </trkpt>
      <trkpt lat="59.4995969" lon="17.85254">
        <ele>42.6</ele>
        <time>2012-07-12T10:13:54Z</time>
      </trkpt>
      <trkpt lat="59.4999576" lon="17.8529123">
        <ele>42.8</ele>
        <time>2012-07-12T10:13:59Z</time>
      </trkpt>
      <trkpt lat="59.5003149" lon="17.8532832">
        <ele>43.2</ele>
        <time>2012-07-12T10:14:04Z</time>
      </trkpt>
      <trkpt lat="59.5006778" lon="17.8536562">
        <ele>43.2</ele>
        <time>2012-07-12T10:14:09Z</time>
      </trkpt>
      <trkpt lat="59.5010285" lon="17.8540185">
        <ele>43.2</ele>
        <time>2012-07-12T10:14:14Z</time>
      </trkpt>
      <trkpt lat="59.5013819" lon="17.8543904">
        <ele>43</ele>
        <time>2012-07-12T10:14:19Z</time>
      </trkpt>
      <trkpt lat="59.501754" lon="17.8547633">
        <ele>43.4</ele>
        <time>2012-07-12T10:14:24Z</time>
      </trkpt>
      <trkpt lat="59.5021347" lon="17.855158">
        <ele>43.8</ele>
        <time>2012-07-12T10:14:29Z</time>
      </trkpt>
      <trkpt lat="59.5025169" lon="17.8555684">
        <ele>44</ele>
        <time>2012-07-12T10:14:34Z</time>
      </trkpt>
      <trkpt lat="59.5028315" lon="17.8559102">
        <ele>42.8</ele>
        <time>2012-07-12T10:14:38Z</time>
      </trkpt>
      <trkpt lat="59.5031682" lon="17.8562568">
        <ele>41.4</ele>
        <time>2012-07-12T10:14:42Z</time>
      </trkpt>
      <trkpt lat="59.5035428" lon="17.8566373">
        <ele>39.2</ele>
        <time>2012-07-12T10:14:46Z</time>
      </trkpt>
      <trkpt lat="59.5039648" lon="17.8570731">
        <ele>36.6</ele>
        <time>2012-07-12T10:14:50Z</time>
      </trkpt>
      <trkpt lat="59.504284" lon="17.8574155">
        <ele>33.8</ele>
        <time>2012-07-12T10:14:53Z</time>
      </trkpt>
      <trkpt lat="59.5046161" lon="17.8577682">
        <ele>30.8</ele>
        <time>2012-07-12T10:14:56Z</time>
      </trkpt>
      <trkpt lat="59.5049569" lon="17.8581173">
        <ele>28.2</ele>
        <time>2012-07-12T10:14:59Z</time>
      </trkpt>
      <trkpt lat="59.5052908" lon="17.8584596">
        <ele>26</ele>
        <time>2012-07-12T10:15:02Z</time>
      </trkpt>
      <trkpt lat="59.5056152" lon="17.858788">
        <ele>24.2</ele>
        <time>2012-07-12T10:15:05Z</time>
      </trkpt>
      <trkpt lat="59.5059276" lon="17.8591439">
        <ele>22.2</ele>
        <time>2012-07-12T10:15:08Z</time>
      </trkpt>
      <trkpt lat="59.506228" lon="17.8595574">
        <ele>20.4</ele>
        <time>2012-07-12T10:15:11Z</time>
      </trkpt>
      <trkpt lat="59.5065123" lon="17.8600967">
        <ele>18.4</ele>
        <time>2012-07-12T10:15:14Z</time>
      </trkpt>
      <trkpt lat="59.5067708" lon="17.860752">
        <ele>16.8</ele>
        <time>2012-07-12T10:15:17Z</time>
      </trkpt>
      <trkpt lat="59.5069775" lon="17.8614763">
        <ele>14.4</ele>
        <time>2012-07-12T10:15:20Z</time>
      </trkpt>
      <trkpt lat="59.5071557" lon="17.8622232">
        <ele>12.4</ele>
        <time>2012-07-12T10:15:23Z</time>
      </trkpt>
      <trkpt lat="59.507322" lon="17.862948">
        <ele>10.2</ele>
        <time>2012-07-12T10:15:26Z</time>
      </trkpt>
      <trkpt lat="59.5074786" lon="17.8636509">
        <ele>8.4</ele>
        <time>2012-07-12T10:15:29Z</time>
      </trkpt>
      <trkpt lat="59.5076225" lon="17.8643064">
        <ele>7.6</ele>
        <time>2012-07-12T10:15:32Z</time>
      </trkpt>
      <trkpt lat="59.507809" lon="17.8651229">
        <ele>7.8</ele>
        <time>2012-07-12T10:15:36Z</time>
      </trkpt>
      <trkpt lat="59.5079707" lon="17.8658574">
        <ele>8.2</ele>
        <time>2012-07-12T10:15:40Z</time>
      </trkpt>
      <trkpt lat="59.5081292" lon="17.8665331">
        <ele>8.6</ele>
        <time>2012-07-12T10:15:44Z</time>
      </trkpt>
      <trkpt lat="59.5082997" lon="17.8671995">
        <ele>9.4</ele>
        <time>2012-07-12T10:15:48Z</time>
      </trkpt>
      <trkpt lat="59.5084757" lon="17.8678387">
        <ele>10.2</ele>
        <time>2012-07-12T10:15:52Z</time>
      </trkpt>
      <trkpt lat="59.5086482" lon="17.8684598">
        <ele>11.6</ele>
        <time>2012-07-12T10:15:56Z</time>
      </trkpt>
      <trkpt lat="59.5088757" lon="17.8692137">
        <ele>11.8</ele>
        <time>2012-07-12T10:16:01Z</time>
      </trkpt>
      <trkpt lat="59.5091125" lon="17.8699431">
        <ele>11</ele>
        <time>2012-07-12T10:16:06Z</time>
      </trkpt>
      <trkpt lat="59.5093522" lon="17.8706693">
        <ele>9.8</ele>
        <time>2012-07-12T10:16:11Z</time>
      </trkpt>
      <trkpt lat="59.5095611" lon="17.8712505">
        <ele>8.6</ele>
        <time>2012-07-12T10:16:15Z</time>
      </trkpt>
      <trkpt lat="59.5097889" lon="17.8718419">
        <ele>8.2</ele>
        <time>2012-07-12T10:16:19Z</time>
      </trkpt>
      <trkpt lat="59.5100287" lon="17.8724331">
        <ele>7.8</ele>
        <time>2012-07-12T10:16:23Z</time>
      </trkpt>
      <trkpt lat="59.5102602" lon="17.8729966">
        <ele>7.6</ele>
        <time>2012-07-12T10:16:27Z</time>
      </trkpt>
      <trkpt lat="59.5105018" lon="17.8735496">
        <ele>7.6</ele>
        <time>2012-07-12T10:16:31Z</time>
      </trkpt>
      <trkpt lat="59.5107488" lon="17.8740974">
        <ele>7.8</ele>
        <time>2012-07-12T10:16:35Z</time>
      </trkpt>
      <trkpt lat="59.5110022" lon="17.8746622">
        <ele>7.8</ele>
        <time>2012-07-12T10:16:39Z</time>
      </trkpt>
      <trkpt lat="59.5112578" lon="17.8752315">
        <ele>8</ele>
        <time>2012-07-12T10:16:43Z</time>
      </trkpt>
      <trkpt lat="59.5115111" lon="17.8757925">
        <ele>8</ele>
        <time>2012-07-12T10:16:47Z</time>
      </trkpt>
      <trkpt lat="59.5117658" lon="17.876357">
        <ele>8</ele>
        <time>2012-07-12T10:16:51Z</time>
      </trkpt>
      <trkpt lat="59.5120184" lon="17.8769129">
        <ele>8</ele>
        <time>2012-07-12T10:16:55Z</time>
      </trkpt>
      <trkpt lat="59.5122655" lon="17.8774688">
        <ele>8</ele>
        <time>2012-07-12T10:16:59Z</time>
      </trkpt>
      <trkpt lat="59.5125107" lon="17.8780167">
        <ele>8</ele>
        <time>2012-07-12T10:17:03Z</time>
      </trkpt>
      <trkpt lat="59.5127525" lon="17.8785646">
        <ele>8</ele>
        <time>2012-07-12T10:17:07Z</time>
      </trkpt>
      <trkpt lat="59.5129828" lon="17.8791023">
        <ele>8</ele>
        <time>2012-07-12T10:17:11Z</time>
      </trkpt>
      <trkpt lat="59.5132663" lon="17.8797578">
        <ele>7.8</ele>
        <time>2012-07-12T10:17:16Z</time>
      </trkpt>
      <trkpt lat="59.5135559" lon="17.8804106">
        <ele>8.4</ele>
        <time>2012-07-12T10:17:21Z</time>
      </trkpt>
      <trkpt lat="59.5138567" lon="17.8810419">
        <ele>9.6</ele>
        <time>2012-07-12T10:17:26Z</time>
      </trkpt>
      <trkpt lat="59.5141536" lon="17.8816813">
        <ele>10</ele>
        <time>2012-07-12T10:17:31Z</time>
      </trkpt>
      <trkpt lat="59.514436" lon="17.8823282">
        <ele>10</ele>
        <time>2012-07-12T10:17:36Z</time>
      </trkpt>
      <trkpt lat="59.5147063" lon="17.8830107">
        <ele>10.2</ele>
        <time>2012-07-12T10:17:41Z</time>
      </trkpt>
      <trkpt lat="59.514946" lon="17.883721">
        <ele>10.4</ele>
        <time>2012-07-12T10:17:46Z</time>
      </trkpt>
      <trkpt lat="59.5151429" lon="17.884427">
        <ele>11</ele>
        <time>2012-07-12T10:17:51Z</time>
      </trkpt>
      <trkpt lat="59.5153209" lon="17.885155">
        <ele>11.8</ele>
        <time>2012-07-12T10:17:56Z</time>
      </trkpt>
      <trkpt lat="59.5154559" lon="17.8859282">
        <ele>10.6</ele>
        <time>2012-07-12T10:18:01Z</time>
      </trkpt>
      <trkpt lat="59.5154697" lon="17.8860778">
        <ele>10.2</ele>
        <time>2012-07-12T10:18:02Z</time>
      </trkpt>
      <trkpt lat="59.5154741" lon="17.8866404">
        <ele>10.2</ele>
        <time>2012-07-12T10:18:06Z</time>
      </trkpt>
      <trkpt lat="59.5158428" lon="17.8868286">
        <ele>10</ele>
        <time>2012-07-12T10:18:12Z</time>
      </trkpt>
      <trkpt lat="59.5161173" lon="17.8871316">
        <ele>10.8</ele>
        <time>2012-07-12T10:18:16Z</time>
      </trkpt>
      <trkpt lat="59.5161864" lon="17.8872161">
        <ele>11</ele>
        <time>2012-07-12T10:18:17Z</time>
      </trkpt>
      <trkpt lat="59.5162556" lon="17.8872891">
        <ele>10.6</ele>
        <time>2012-07-12T10:18:18Z</time>
      </trkpt>
      <trkpt lat="59.5165462" lon="17.8875891">
        <ele>10</ele>
        <time>2012-07-12T10:18:22Z</time>
      </trkpt>
      <trkpt lat="59.5168033" lon="17.8882471">
        <ele>11.4</ele>
        <time>2012-07-12T10:18:27Z</time>
      </trkpt>
      <trkpt lat="59.5170088" lon="17.8889229">
        <ele>12.4</ele>
        <time>2012-07-12T10:18:32Z</time>
      </trkpt>
      <trkpt lat="59.5171623" lon="17.8896792">
        <ele>13.6</ele>
        <time>2012-07-12T10:18:38Z</time>
      </trkpt>
      <trkpt lat="59.5172712" lon="17.8904794">
        <ele>14.8</ele>
        <time>2012-07-12T10:18:44Z</time>
      </trkpt>
      <trkpt lat="59.5173545" lon="17.8912095">
        <ele>16.8</ele>
        <time>2012-07-12T10:18:50Z</time>
      </trkpt>
      <trkpt lat="59.5173981" lon="17.8919792">
        <ele>16.2</ele>
        <time>2012-07-12T10:18:56Z</time>
      </trkpt>
      <trkpt lat="59.5174685" lon="17.8927945">
        <ele>14.8</ele>
        <time>2012-07-12T10:19:02Z</time>
      </trkpt>
      <trkpt lat="59.5176083" lon="17.893484">
        <ele>12.6</ele>
        <time>2012-07-12T10:19:07Z</time>
      </trkpt>
      <trkpt lat="59.5176507" lon="17.8936194">
        <ele>12.4</ele>
        <time>2012-07-12T10:19:08Z</time>
      </trkpt>
      <trkpt lat="59.5178831" lon="17.8940057">
        <ele>12.2</ele>
        <time>2012-07-12T10:19:12Z</time>
      </trkpt>
      <trkpt lat="59.5181491" lon="17.8941269">
        <ele>12.6</ele>
        <time>2012-07-12T10:19:16Z</time>
      </trkpt>
      <trkpt lat="59.5182719" lon="17.8941456">
        <ele>13.6</ele>
        <time>2012-07-12T10:19:18Z</time>
      </trkpt>
      <trkpt lat="59.5187018" lon="17.8941128">
        <ele>15.4</ele>
        <time>2012-07-12T10:19:25Z</time>
      </trkpt>
      <trkpt lat="59.51884" lon="17.8940528">
        <ele>16.4</ele>
        <time>2012-07-12T10:19:27Z</time>
      </trkpt>
      <trkpt lat="59.5191234" lon="17.8939672">
        <ele>18</ele>
        <time>2012-07-12T10:19:31Z</time>
      </trkpt>
      <trkpt lat="59.5192519" lon="17.8939657">
        <ele>18.6</ele>
        <time>2012-07-12T10:19:33Z</time>
      </trkpt>
      <trkpt lat="59.5194218" lon="17.894274">
        <ele>21.2</ele>
        <time>2012-07-12T10:19:37Z</time>
      </trkpt>
      <trkpt lat="59.5196094" lon="17.8946278">
        <ele>22.2</ele>
        <time>2012-07-12T10:19:41Z</time>
      </trkpt>
      <trkpt lat="59.5197055" lon="17.894807">
        <ele>23</ele>
        <time>2012-07-12T10:19:43Z</time>
      </trkpt>
      <trkpt lat="59.5198112" lon="17.8949905">
        <ele>24</ele>
        <time>2012-07-12T10:19:45Z</time>
      </trkpt>
      <trkpt lat="59.520007" lon="17.8953888">
        <ele>23.2</ele>
        <time>2012-07-12T10:19:49Z</time>
      </trkpt>
      <trkpt lat="59.5202766" lon="17.8959062">
        <ele>20.4</ele>
        <time>2012-07-12T10:19:54Z</time>
      </trkpt>
      <trkpt lat="59.5205816" lon="17.89651">
        <ele>17.4</ele>
        <time>2012-07-12T10:19:59Z</time>
      </trkpt>
      <trkpt lat="59.5208371" lon="17.8970707">
        <ele>14.2</ele>
        <time>2012-07-12T10:20:03Z</time>
      </trkpt>
      <trkpt lat="59.5211397" lon="17.8976385">
        <ele>11.2</ele>
        <time>2012-07-12T10:20:07Z</time>
      </trkpt>
      <trkpt lat="59.5212291" lon="17.8977659">
        <ele>11</ele>
        <time>2012-07-12T10:20:08Z</time>
      </trkpt>
      <trkpt lat="59.5215256" lon="17.8980146">
        <ele>9.6</ele>
        <time>2012-07-12T10:20:11Z</time>
      </trkpt>
      <trkpt lat="59.5219244" lon="17.8982607">
        <ele>9.6</ele>
        <time>2012-07-12T10:20:15Z</time>
      </trkpt>
      <trkpt lat="59.5221124" lon="17.8983666">
        <ele>9.4</ele>
        <time>2012-07-12T10:20:17Z</time>
      </trkpt>
      <trkpt lat="59.522275" lon="17.8985319">
        <ele>10</ele>
        <time>2012-07-12T10:20:19Z</time>
      </trkpt>
      <trkpt lat="59.5223551" lon="17.8986187">
        <ele>10.4</ele>
        <time>2012-07-12T10:20:20Z</time>
      </trkpt>
      <trkpt lat="59.5226081" lon="17.8988131">
        <ele>10.4</ele>
        <time>2012-07-12T10:20:23Z</time>
      </trkpt>
      <trkpt lat="59.5227781" lon="17.8989206">
        <ele>10.4</ele>
        <time>2012-07-12T10:20:25Z</time>
      </trkpt>
      <trkpt lat="59.5229449" lon="17.8992956">
        <ele>9.2</ele>
        <time>2012-07-12T10:20:28Z</time>
      </trkpt>
      <trkpt lat="59.5230035" lon="17.8994109">
        <ele>8.8</ele>
        <time>2012-07-12T10:20:29Z</time>
      </trkpt>
      <trkpt lat="59.5233103" lon="17.8996323">
        <ele>7.2</ele>
        <time>2012-07-12T10:20:33Z</time>
      </trkpt>
      <trkpt lat="59.5234795" lon="17.8997288">
        <ele>6</ele>
        <time>2012-07-12T10:20:35Z</time>
      </trkpt>
      <trkpt lat="59.5236623" lon="17.8998407">
        <ele>5.4</ele>
        <time>2012-07-12T10:20:37Z</time>
      </trkpt>
      <trkpt lat="59.5240377" lon="17.9000161">
        <ele>4.8</ele>
        <time>2012-07-12T10:20:41Z</time>
      </trkpt>
      <trkpt lat="59.5244052" lon="17.9000918">
        <ele>4.8</ele>
        <time>2012-07-12T10:20:45Z</time>
      </trkpt>
      <trkpt lat="59.5248062" lon="17.90042">
        <ele>3.4</ele>
        <time>2012-07-12T10:20:50Z</time>
      </trkpt>
      <trkpt lat="59.5250598" lon="17.9005372">
        <ele>3</ele>
        <time>2012-07-12T10:20:53Z</time>
      </trkpt>
      <trkpt lat="59.5252013" lon="17.9007057">
        <ele>2.6</ele>
        <time>2012-07-12T10:20:55Z</time>
      </trkpt>
      <trkpt lat="59.5252763" lon="17.9007834">
        <ele>2.6</ele>
        <time>2012-07-12T10:20:56Z</time>
      </trkpt>
      <trkpt lat="59.5256399" lon="17.900928">
        <ele>3</ele>
        <time>2012-07-12T10:21:00Z</time>
      </trkpt>
      <trkpt lat="59.5260222" lon="17.9010324">
        <ele>3.2</ele>
        <time>2012-07-12T10:21:04Z</time>
      </trkpt>
      <trkpt lat="59.5264102" lon="17.9010737">
        <ele>4</ele>
        <time>2012-07-12T10:21:08Z</time>
      </trkpt>
      <trkpt lat="59.526796" lon="17.9010915">
        <ele>5.4</ele>
        <time>2012-07-12T10:21:12Z</time>
      </trkpt>
      <trkpt lat="59.527236" lon="17.9011242">
        <ele>6.8</ele>
        <time>2012-07-12T10:21:17Z</time>
      </trkpt>
      <trkpt lat="59.5276509" lon="17.9012196">
        <ele>9.2</ele>
        <time>2012-07-12T10:21:22Z</time>
      </trkpt>
      <trkpt lat="59.5280287" lon="17.9015313">
        <ele>12.8</ele>
        <time>2012-07-12T10:21:27Z</time>
      </trkpt>
      <trkpt lat="59.5283197" lon="17.9020125">
        <ele>16.2</ele>
        <time>2012-07-12T10:21:32Z</time>
      </trkpt>
      <trkpt lat="59.5285262" lon="17.9027189">
        <ele>18</ele>
        <time>2012-07-12T10:21:38Z</time>
      </trkpt>
      <trkpt lat="59.528643" lon="17.9034785">
        <ele>19.2</ele>
        <time>2012-07-12T10:21:44Z</time>
      </trkpt>
      <trkpt lat="59.5287693" lon="17.9042409">
        <ele>20.6</ele>
        <time>2012-07-12T10:21:51Z</time>
      </trkpt>
      <trkpt lat="59.5288874" lon="17.9049669">
        <ele>23.4</ele>
        <time>2012-07-12T10:21:58Z</time>
      </trkpt>
      <trkpt lat="59.5290157" lon="17.9056386">
        <ele>27.6</ele>
        <time>2012-07-12T10:22:06Z</time>
      </trkpt>
      <trkpt lat="59.529139" lon="17.9063586">
        <ele>28.8</ele>
        <time>2012-07-12T10:22:14Z</time>
      </trkpt>
      <trkpt lat="59.5292377" lon="17.9070745">
        <ele>31</ele>
        <time>2012-07-12T10:22:21Z</time>
      </trkpt>
      <trkpt lat="59.5293125" lon="17.9077402">
        <ele>33.8</ele>
        <time>2012-07-12T10:22:27Z</time>
      </trkpt>
      <trkpt lat="59.5293268" lon="17.9078604">
        <ele>34.4</ele>
        <time>2012-07-12T10:22:28Z</time>
      </trkpt>
      <trkpt lat="59.5293801" lon="17.9082264">
        <ele>35.8</ele>
        <time>2012-07-12T10:22:31Z</time>
      </trkpt>
      <trkpt lat="59.5294489" lon="17.9085983">
        <ele>35.8</ele>
        <time>2012-07-12T10:22:34Z</time>
      </trkpt>
      <trkpt lat="59.529621" lon="17.9093345">
        <ele>34</ele>
        <time>2012-07-12T10:22:40Z</time>
      </trkpt>
      <trkpt lat="59.5297549" lon="17.9101065">
        <ele>33.4</ele>
        <time>2012-07-12T10:22:46Z</time>
      </trkpt>
      <trkpt lat="59.5298499" lon="17.9108921">
        <ele>35</ele>
        <time>2012-07-12T10:22:52Z</time>
      </trkpt>
      <trkpt lat="59.5298825" lon="17.9112761">
        <ele>36.8</ele>
        <time>2012-07-12T10:22:55Z</time>
      </trkpt>
      <trkpt lat="59.5298948" lon="17.9117548">
        <ele>37.8</ele>
        <time>2012-07-12T10:22:58Z</time>
      </trkpt>
      <trkpt lat="59.5299958" lon="17.912508">
        <ele>41.4</ele>
        <time>2012-07-12T10:23:04Z</time>
      </trkpt>
      <trkpt lat="59.5300611" lon="17.9132532">
        <ele>41.2</ele>
        <time>2012-07-12T10:23:11Z</time>
      </trkpt>
      <trkpt lat="59.5301239" lon="17.9140592">
        <ele>43</ele>
        <time>2012-07-12T10:23:18Z</time>
      </trkpt>
      <trkpt lat="59.5301772" lon="17.9146787">
        <ele>43.4</ele>
        <time>2012-07-12T10:23:23Z</time>
      </trkpt>
      <trkpt lat="59.5301698" lon="17.9148125">
        <ele>43.2</ele>
        <time>2012-07-12T10:23:24Z</time>
      </trkpt>
      <trkpt lat="59.530101" lon="17.9152114">
        <ele>42.4</ele>
        <time>2012-07-12T10:23:27Z</time>
      </trkpt>
      <trkpt lat="59.5300617" lon="17.9153283">
        <ele>41.8</ele>
        <time>2012-07-12T10:23:28Z</time>
      </trkpt>
      <trkpt lat="59.5300079" lon="17.9154228">
        <ele>41.6</ele>
        <time>2012-07-12T10:23:29Z</time>
      </trkpt>
      <trkpt lat="59.5298011" lon="17.9156031">
        <ele>42</ele>
        <time>2012-07-12T10:23:32Z</time>
      </trkpt>
      <trkpt lat="59.5296607" lon="17.915701">
        <ele>42.4</ele>
        <time>2012-07-12T10:23:34Z</time>
      </trkpt>
      <trkpt lat="59.5293277" lon="17.915888">
        <ele>44.2</ele>
        <time>2012-07-12T10:23:39Z</time>
      </trkpt>
      <trkpt lat="59.5291854" lon="17.9159051">
        <ele>45.4</ele>
        <time>2012-07-12T10:23:41Z</time>
      </trkpt>
      <trkpt lat="59.5289687" lon="17.9158472">
        <ele>47.4</ele>
        <time>2012-07-12T10:23:44Z</time>
      </trkpt>
      <trkpt lat="59.5289129" lon="17.9158064">
        <ele>48.8</ele>
        <time>2012-07-12T10:23:45Z</time>
      </trkpt>
      <trkpt lat="59.5286221" lon="17.9156844">
        <ele>48.2</ele>
        <time>2012-07-12T10:23:49Z</time>
      </trkpt>
      <trkpt lat="59.5285497" lon="17.9157109">
        <ele>47.6</ele>
        <time>2012-07-12T10:23:50Z</time>
      </trkpt>
      <trkpt lat="59.5281717" lon="17.916091">
        <ele>43.4</ele>
        <time>2012-07-12T10:23:55Z</time>
      </trkpt>
      <trkpt lat="59.5279331" lon="17.9168376">
        <ele>37.4</ele>
        <time>2012-07-12T10:24:00Z</time>
      </trkpt>
      <trkpt lat="59.5278819" lon="17.9174449">
        <ele>33.2</ele>
        <time>2012-07-12T10:24:03Z</time>
      </trkpt>
      <trkpt lat="59.5278811" lon="17.9176595">
        <ele>31.8</ele>
        <time>2012-07-12T10:24:04Z</time>
      </trkpt>
      <trkpt lat="59.5280217" lon="17.9185384">
        <ele>26.4</ele>
        <time>2012-07-12T10:24:08Z</time>
      </trkpt>
      <trkpt lat="59.5281783" lon="17.9192012">
        <ele>22</ele>
        <time>2012-07-12T10:24:11Z</time>
      </trkpt>
      <trkpt lat="59.528325" lon="17.9198688">
        <ele>19.2</ele>
        <time>2012-07-12T10:24:14Z</time>
      </trkpt>
      <trkpt lat="59.5284047" lon="17.9203128">
        <ele>18.2</ele>
        <time>2012-07-12T10:24:16Z</time>
      </trkpt>
      <trkpt lat="59.528396" lon="17.9207543">
        <ele>17.6</ele>
        <time>2012-07-12T10:24:18Z</time>
      </trkpt>
      <trkpt lat="59.5282779" lon="17.9211789">
        <ele>19.6</ele>
        <time>2012-07-12T10:24:21Z</time>
      </trkpt>
      <trkpt lat="59.5282374" lon="17.9212603">
        <ele>18.8</ele>
        <time>2012-07-12T10:24:22Z</time>
      </trkpt>
      <trkpt lat="59.5282284" lon="17.9213716">
        <ele>18.4</ele>
        <time>2012-07-12T10:24:23Z</time>
      </trkpt>
      <trkpt lat="59.528397" lon="17.9219115">
        <ele>17.4</ele>
        <time>2012-07-12T10:24:27Z</time>
      </trkpt>
      <trkpt lat="59.5284589" lon="17.9220557">
        <ele>17.2</ele>
        <time>2012-07-12T10:24:28Z</time>
      </trkpt>
      <trkpt lat="59.5287133" lon="17.9226892">
        <ele>16</ele>
        <time>2012-07-12T10:24:32Z</time>
      </trkpt>
      <trkpt lat="59.528945" lon="17.9233789">
        <ele>14.4</ele>
        <time>2012-07-12T10:24:36Z</time>
      </trkpt>
      <trkpt lat="59.5291154" lon="17.92406">
        <ele>14.8</ele>
        <time>2012-07-12T10:24:40Z</time>
      </trkpt>
      <trkpt lat="59.5293089" lon="17.9253701">
        <ele>14.6</ele>
        <time>2012-07-12T10:25:05Z</time>
      </trkpt>
      <trkpt lat="59.5294526" lon="17.9260337">
        <ele>14.2</ele>
        <time>2012-07-12T10:25:11Z</time>
      </trkpt>
      <trkpt lat="59.5296208" lon="17.9268191">
        <ele>13.4</ele>
        <time>2012-07-12T10:25:16Z</time>
      </trkpt>
      <trkpt lat="59.5298279" lon="17.9276063">
        <ele>12.4</ele>
        <time>2012-07-12T10:25:21Z</time>
      </trkpt>
      <trkpt lat="59.530018" lon="17.9282389">
        <ele>11.2</ele>
        <time>2012-07-12T10:25:25Z</time>
      </trkpt>
      <trkpt lat="59.5302312" lon="17.9288704">
        <ele>10.6</ele>
        <time>2012-07-12T10:25:29Z</time>
      </trkpt>
      <trkpt lat="59.5304706" lon="17.929483">
        <ele>10.4</ele>
        <time>2012-07-12T10:25:33Z</time>
      </trkpt>
      <trkpt lat="59.5307315" lon="17.9300602">
        <ele>10.8</ele>
        <time>2012-07-12T10:25:37Z</time>
      </trkpt>
      <trkpt lat="59.5310147" lon="17.9306145">
        <ele>11.2</ele>
        <time>2012-07-12T10:25:41Z</time>
      </trkpt>
      <trkpt lat="59.5313198" lon="17.9311438">
        <ele>11.6</ele>
        <time>2012-07-12T10:25:45Z</time>
      </trkpt>
      <trkpt lat="59.5316428" lon="17.9316332">
        <ele>11.4</ele>
        <time>2012-07-12T10:25:49Z</time>
      </trkpt>
      <trkpt lat="59.5319883" lon="17.9320856">
        <ele>11.2</ele>
        <time>2012-07-12T10:25:53Z</time>
      </trkpt>
      <trkpt lat="59.5323421" lon="17.9324967">
        <ele>10.8</ele>
        <time>2012-07-12T10:25:57Z</time>
      </trkpt>
      <trkpt lat="59.5327119" lon="17.9328435">
        <ele>10.4</ele>
        <time>2012-07-12T10:26:01Z</time>
      </trkpt>
      <trkpt lat="59.5330983" lon="17.933159">
        <ele>10</ele>
        <time>2012-07-12T10:26:05Z</time>
      </trkpt>
      <trkpt lat="59.5334894" lon="17.9334703">
        <ele>9.4</ele>
        <time>2012-07-12T10:26:09Z</time>
      </trkpt>
      <trkpt lat="59.533879" lon="17.9338228">
        <ele>8.4</ele>
        <time>2012-07-12T10:26:13Z</time>
      </trkpt>
      <trkpt lat="59.5342536" lon="17.9342419">
        <ele>8</ele>
        <time>2012-07-12T10:26:17Z</time>
      </trkpt>
      <trkpt lat="59.5346208" lon="17.9346788">
        <ele>7.6</ele>
        <time>2012-07-12T10:26:21Z</time>
      </trkpt>
      <trkpt lat="59.5348996" lon="17.9349532">
        <ele>6.8</ele>
        <time>2012-07-12T10:26:24Z</time>
      </trkpt>
      <trkpt lat="59.5349974" lon="17.9350148">
        <ele>6.4</ele>
        <time>2012-07-12T10:26:25Z</time>
      </trkpt>
      <trkpt lat="59.5353815" lon="17.9352223">
        <ele>5.4</ele>
        <time>2012-07-12T10:26:29Z</time>
      </trkpt>
      <trkpt lat="59.5357581" lon="17.9352942">
        <ele>7.2</ele>
        <time>2012-07-12T10:26:33Z</time>
      </trkpt>
      <trkpt lat="59.5361928" lon="17.935366">
        <ele>9.6</ele>
        <time>2012-07-12T10:26:38Z</time>
      </trkpt>
      <trkpt lat="59.5366023" lon="17.935438">
        <ele>11.4</ele>
        <time>2012-07-12T10:26:43Z</time>
      </trkpt>
      <trkpt lat="59.5369922" lon="17.9355024">
        <ele>12.6</ele>
        <time>2012-07-12T10:26:48Z</time>
      </trkpt>
      <trkpt lat="59.5373563" lon="17.9355809">
        <ele>13.2</ele>
        <time>2012-07-12T10:26:53Z</time>
      </trkpt>
      <trkpt lat="59.5377331" lon="17.9356545">
        <ele>14</ele>
        <time>2012-07-12T10:26:58Z</time>
      </trkpt>
      <trkpt lat="59.5381008" lon="17.935735">
        <ele>15.4</ele>
        <time>2012-07-12T10:27:03Z</time>
      </trkpt>
      <trkpt lat="59.538467" lon="17.9358019">
        <ele>16.6</ele>
        <time>2012-07-12T10:27:08Z</time>
      </trkpt>
      <trkpt lat="59.53883" lon="17.9358733">
        <ele>17</ele>
        <time>2012-07-12T10:27:13Z</time>
      </trkpt>
      <trkpt lat="59.53919" lon="17.9359363">
        <ele>18.2</ele>
        <time>2012-07-12T10:27:18Z</time>
      </trkpt>
      <trkpt lat="59.5395652" lon="17.9359997">
        <ele>19</ele>
        <time>2012-07-12T10:27:23Z</time>
      </trkpt>
      <trkpt lat="59.5399972" lon="17.9360698">
        <ele>19.2</ele>
        <time>2012-07-12T10:27:28Z</time>
      </trkpt>
      <trkpt lat="59.540363" lon="17.9361358">
        <ele>18</ele>
        <time>2012-07-12T10:27:32Z</time>
      </trkpt>
      <trkpt lat="59.5407593" lon="17.936209">
        <ele>17.4</ele>
        <time>2012-07-12T10:27:36Z</time>
      </trkpt>
      <trkpt lat="59.5411714" lon="17.9362898">
        <ele>16</ele>
        <time>2012-07-12T10:27:40Z</time>
      </trkpt>
      <trkpt lat="59.5415793" lon="17.9363681">
        <ele>15.6</ele>
        <time>2012-07-12T10:27:44Z</time>
      </trkpt>
      <trkpt lat="59.5419517" lon="17.9363437">
        <ele>14.2</ele>
        <time>2012-07-12T10:27:48Z</time>
      </trkpt>
      <trkpt lat="59.5423821" lon="17.9361228">
        <ele>13.6</ele>
        <time>2012-07-12T10:27:53Z</time>
      </trkpt>
      <trkpt lat="59.5427903" lon="17.9358779">
        <ele>14</ele>
        <time>2012-07-12T10:27:58Z</time>
      </trkpt>
      <trkpt lat="59.5431965" lon="17.9356397">
        <ele>13.6</ele>
        <time>2012-07-12T10:28:03Z</time>
      </trkpt>
      <trkpt lat="59.5436094" lon="17.9353958">
        <ele>14.2</ele>
        <time>2012-07-12T10:28:08Z</time>
      </trkpt>
      <trkpt lat="59.5440339" lon="17.9351463">
        <ele>14.6</ele>
        <time>2012-07-12T10:28:13Z</time>
      </trkpt>
      <trkpt lat="59.5444546" lon="17.9349009">
        <ele>15.2</ele>
        <time>2012-07-12T10:28:18Z</time>
      </trkpt>
      <trkpt lat="59.5448697" lon="17.9346529">
        <ele>16.2</ele>
        <time>2012-07-12T10:28:23Z</time>
      </trkpt>
      <trkpt lat="59.545275" lon="17.9344084">
        <ele>17.4</ele>
        <time>2012-07-12T10:28:28Z</time>
      </trkpt>
      <trkpt lat="59.5456508" lon="17.9341887">
        <ele>17.2</ele>
        <time>2012-07-12T10:28:33Z</time>
      </trkpt>
      <trkpt lat="59.5460206" lon="17.9339852">
        <ele>17.2</ele>
        <time>2012-07-12T10:28:38Z</time>
      </trkpt>
      <trkpt lat="59.5463916" lon="17.9337671">
        <ele>16.6</ele>
        <time>2012-07-12T10:28:43Z</time>
      </trkpt>
      <trkpt lat="59.5467653" lon="17.9335354">
        <ele>16.6</ele>
        <time>2012-07-12T10:28:48Z</time>
      </trkpt>
      <trkpt lat="59.5471597" lon="17.9333033">
        <ele>16.4</ele>
        <time>2012-07-12T10:28:53Z</time>
      </trkpt>
      <trkpt lat="59.5475684" lon="17.9330723">
        <ele>14.8</ele>
        <time>2012-07-12T10:28:58Z</time>
      </trkpt>
      <trkpt lat="59.5479813" lon="17.9328353">
        <ele>13.4</ele>
        <time>2012-07-12T10:29:03Z</time>
      </trkpt>
      <trkpt lat="59.5483884" lon="17.9326008">
        <ele>13</ele>
        <time>2012-07-12T10:29:08Z</time>
      </trkpt>
      <trkpt lat="59.5487858" lon="17.9323616">
        <ele>12.8</ele>
        <time>2012-07-12T10:29:13Z</time>
      </trkpt>
      <trkpt lat="59.5491758" lon="17.9321272">
        <ele>11.8</ele>
        <time>2012-07-12T10:29:18Z</time>
      </trkpt>
      <trkpt lat="59.549561" lon="17.9318946">
        <ele>11.6</ele>
        <time>2012-07-12T10:29:23Z</time>
      </trkpt>
      <trkpt lat="59.5499369" lon="17.9316702">
        <ele>13.2</ele>
        <time>2012-07-12T10:29:28Z</time>
      </trkpt>
      <trkpt lat="59.5503117" lon="17.9314469">
        <ele>14</ele>
        <time>2012-07-12T10:29:33Z</time>
      </trkpt>
      <trkpt lat="59.5506133" lon="17.9313552">
        <ele>15.2</ele>
        <time>2012-07-12T10:29:37Z</time>
      </trkpt>
      <trkpt lat="59.5506889" lon="17.9313585">
        <ele>15.2</ele>
        <time>2012-07-12T10:29:38Z</time>
      </trkpt>
      <trkpt lat="59.5511094" lon="17.9316188">
        <ele>15.6</ele>
        <time>2012-07-12T10:29:44Z</time>
      </trkpt>
      <trkpt lat="59.5511749" lon="17.9316965">
        <ele>15.8</ele>
        <time>2012-07-12T10:29:45Z</time>
      </trkpt>
      <trkpt lat="59.5514523" lon="17.9319892">
        <ele>16.4</ele>
        <time>2012-07-12T10:29:49Z</time>
      </trkpt>
      <trkpt lat="59.5518275" lon="17.9322341">
        <ele>17.4</ele>
        <time>2012-07-12T10:29:54Z</time>
      </trkpt>
      <trkpt lat="59.5522025" lon="17.9324499">
        <ele>18</ele>
        <time>2012-07-12T10:29:59Z</time>
      </trkpt>
      <trkpt lat="59.5525759" lon="17.9326673">
        <ele>18.2</ele>
        <time>2012-07-12T10:30:04Z</time>
      </trkpt>
      <trkpt lat="59.5529561" lon="17.9328992">
        <ele>17.4</ele>
        <time>2012-07-12T10:30:09Z</time>
      </trkpt>
      <trkpt lat="59.5534381" lon="17.9331812">
        <ele>16.6</ele>
        <time>2012-07-12T10:30:14Z</time>
      </trkpt>
      <trkpt lat="59.5537652" lon="17.933375">
        <ele>16</ele>
        <time>2012-07-12T10:30:19Z</time>
      </trkpt>
      <trkpt lat="59.5540129" lon="17.9335754">
        <ele>15.6</ele>
        <time>2012-07-12T10:30:22Z</time>
      </trkpt>
      <trkpt lat="59.5541641" lon="17.9337717">
        <ele>15.8</ele>
        <time>2012-07-12T10:30:24Z</time>
      </trkpt>
      <trkpt lat="59.5543607" lon="17.934124">
        <ele>15.8</ele>
        <time>2012-07-12T10:30:27Z</time>
      </trkpt>
      <trkpt lat="59.5544756" lon="17.9343828">
        <ele>16</ele>
        <time>2012-07-12T10:30:29Z</time>
      </trkpt>
      <trkpt lat="59.5546952" lon="17.9350709">
        <ele>16.8</ele>
        <time>2012-07-12T10:30:34Z</time>
      </trkpt>
      <trkpt lat="59.5548258" lon="17.9357972">
        <ele>17.4</ele>
        <time>2012-07-12T10:30:39Z</time>
      </trkpt>
      <trkpt lat="59.5549004" lon="17.9366198">
        <ele>17</ele>
        <time>2012-07-12T10:30:44Z</time>
      </trkpt>
      <trkpt lat="59.5549333" lon="17.9374419">
        <ele>18.2</ele>
        <time>2012-07-12T10:30:49Z</time>
      </trkpt>
      <trkpt lat="59.5549578" lon="17.9382725">
        <ele>19.4</ele>
        <time>2012-07-12T10:30:54Z</time>
      </trkpt>
      <trkpt lat="59.5550785" lon="17.9390802">
        <ele>19</ele>
        <time>2012-07-12T10:30:59Z</time>
      </trkpt>
      <trkpt lat="59.5552684" lon="17.9397779">
        <ele>17.8</ele>
        <time>2012-07-12T10:31:03Z</time>
      </trkpt>
      <trkpt lat="59.5554684" lon="17.9404965">
        <ele>16.4</ele>
        <time>2012-07-12T10:31:07Z</time>
      </trkpt>
      <trkpt lat="59.5556411" lon="17.9412079">
        <ele>16</ele>
        <time>2012-07-12T10:31:11Z</time>
      </trkpt>
      <trkpt lat="59.5558044" lon="17.9420046">
        <ele>17.2</ele>
        <time>2012-07-12T10:31:16Z</time>
      </trkpt>
      <trkpt lat="59.5559603" lon="17.9427795">
        <ele>19.6</ele>
        <time>2012-07-12T10:31:21Z</time>
      </trkpt>
      <trkpt lat="59.5560809" lon="17.9435611">
        <ele>21.4</ele>
        <time>2012-07-12T10:31:26Z</time>
      </trkpt>
      <trkpt lat="59.5561066" lon="17.9440569">
        <ele>21.8</ele>
        <time>2012-07-12T10:31:29Z</time>
      </trkpt>
      <trkpt lat="59.5560954" lon="17.9443939">
        <ele>23</ele>
        <time>2012-07-12T10:31:31Z</time>
      </trkpt>
      <trkpt lat="59.5559856" lon="17.9452015">
        <ele>21.2</ele>
        <time>2012-07-12T10:31:36Z</time>
      </trkpt>
      <trkpt lat="59.5559196" lon="17.9459575">
        <ele>19</ele>
        <time>2012-07-12T10:31:40Z</time>
      </trkpt>
      <trkpt lat="59.5559478" lon="17.9466625">
        <ele>18.4</ele>
        <time>2012-07-12T10:31:44Z</time>
      </trkpt>
      <trkpt lat="59.5560833" lon="17.9474136">
        <ele>20.2</ele>
        <time>2012-07-12T10:31:49Z</time>
      </trkpt>
      <trkpt lat="59.5562254" lon="17.9480995">
        <ele>21.6</ele>
        <time>2012-07-12T10:31:54Z</time>
      </trkpt>
      <trkpt lat="59.5563576" lon="17.9487719">
        <ele>22.4</ele>
        <time>2012-07-12T10:31:59Z</time>
      </trkpt>
      <trkpt lat="59.5564713" lon="17.9494497">
        <ele>22</ele>
        <time>2012-07-12T10:32:04Z</time>
      </trkpt>
      <trkpt lat="59.5566025" lon="17.9501534">
        <ele>22.6</ele>
        <time>2012-07-12T10:32:09Z</time>
      </trkpt>
      <trkpt lat="59.5567206" lon="17.9508475">
        <ele>22.4</ele>
        <time>2012-07-12T10:32:14Z</time>
      </trkpt>
      <trkpt lat="59.5568532" lon="17.9516523">
        <ele>20.4</ele>
        <time>2012-07-12T10:32:19Z</time>
      </trkpt>
      <trkpt lat="59.5569667" lon="17.9524565">
        <ele>20.8</ele>
        <time>2012-07-12T10:32:24Z</time>
      </trkpt>
      <trkpt lat="59.5570953" lon="17.9532396">
        <ele>20.4</ele>
        <time>2012-07-12T10:32:29Z</time>
      </trkpt>
      <trkpt lat="59.5573222" lon="17.9539263">
        <ele>21.8</ele>
        <time>2012-07-12T10:32:34Z</time>
      </trkpt>
      <trkpt lat="59.5576122" lon="17.9545492">
        <ele>20.8</ele>
        <time>2012-07-12T10:32:39Z</time>
      </trkpt>
      <trkpt lat="59.5578981" lon="17.9551442">
        <ele>20.4</ele>
        <time>2012-07-12T10:32:44Z</time>
      </trkpt>
      <trkpt lat="59.5582" lon="17.9557172">
        <ele>18.6</ele>
        <time>2012-07-12T10:32:49Z</time>
      </trkpt>
      <trkpt lat="59.5583351" lon="17.9558983">
        <ele>17</ele>
        <time>2012-07-12T10:32:51Z</time>
      </trkpt>
      <trkpt lat="59.558571" lon="17.9560366">
        <ele>16.6</ele>
        <time>2012-07-12T10:32:54Z</time>
      </trkpt>
      <trkpt lat="59.5587404" lon="17.9560213">
        <ele>17.2</ele>
        <time>2012-07-12T10:32:56Z</time>
      </trkpt>
      <trkpt lat="59.5589999" lon="17.9558679">
        <ele>18.2</ele>
        <time>2012-07-12T10:32:59Z</time>
      </trkpt>
      <trkpt lat="59.5592466" lon="17.9558017">
        <ele>19.4</ele>
        <time>2012-07-12T10:33:02Z</time>
      </trkpt>
      <trkpt lat="59.559426" lon="17.9558156">
        <ele>21.2</ele>
        <time>2012-07-12T10:33:04Z</time>
      </trkpt>
      <trkpt lat="59.5595752" lon="17.9558614">
        <ele>21.6</ele>
        <time>2012-07-12T10:33:06Z</time>
      </trkpt>
      <trkpt lat="59.5596439" lon="17.955896">
        <ele>21.6</ele>
        <time>2012-07-12T10:33:07Z</time>
      </trkpt>
      <trkpt lat="59.559782" lon="17.9559901">
        <ele>21.8</ele>
        <time>2012-07-12T10:33:09Z</time>
      </trkpt>
      <trkpt lat="59.560153" lon="17.9561918">
        <ele>19.6</ele>
        <time>2012-07-12T10:33:14Z</time>
      </trkpt>
      <trkpt lat="59.5605368" lon="17.9564315">
        <ele>15</ele>
        <time>2012-07-12T10:33:19Z</time>
      </trkpt>
      <trkpt lat="59.5609542" lon="17.9567807">
        <ele>13</ele>
        <time>2012-07-12T10:33:24Z</time>
      </trkpt>
      <trkpt lat="59.5611144" lon="17.9569807">
        <ele>13</ele>
        <time>2012-07-12T10:33:26Z</time>
      </trkpt>
      <trkpt lat="59.5612609" lon="17.9572184">
        <ele>12.8</ele>
        <time>2012-07-12T10:33:28Z</time>
      </trkpt>
      <trkpt lat="59.5615538" lon="17.9577074">
        <ele>12.8</ele>
        <time>2012-07-12T10:33:32Z</time>
      </trkpt>
      <trkpt lat="59.5618728" lon="17.9581172">
        <ele>12.6</ele>
        <time>2012-07-12T10:33:36Z</time>
      </trkpt>
      <trkpt lat="59.5622063" lon="17.9584464">
        <ele>12</ele>
        <time>2012-07-12T10:33:40Z</time>
      </trkpt>
      <trkpt lat="59.5625439" lon="17.9587287">
        <ele>11.6</ele>
        <time>2012-07-12T10:33:44Z</time>
      </trkpt>
      <trkpt lat="59.5629414" lon="17.9591065">
        <ele>11.2</ele>
        <time>2012-07-12T10:33:49Z</time>
      </trkpt>
      <trkpt lat="59.5633279" lon="17.9595118">
        <ele>11.2</ele>
        <time>2012-07-12T10:33:54Z</time>
      </trkpt>
      <trkpt lat="59.5636374" lon="17.9598632">
        <ele>9</ele>
        <time>2012-07-12T10:33:58Z</time>
      </trkpt>
      <trkpt lat="59.5639474" lon="17.9602343">
        <ele>8.6</ele>
        <time>2012-07-12T10:34:02Z</time>
      </trkpt>
      <trkpt lat="59.5642552" lon="17.960646">
        <ele>8.6</ele>
        <time>2012-07-12T10:34:06Z</time>
      </trkpt>
      <trkpt lat="59.5645591" lon="17.9610941">
        <ele>8.8</ele>
        <time>2012-07-12T10:34:10Z</time>
      </trkpt>
      <trkpt lat="59.5648643" lon="17.9615644">
        <ele>9.4</ele>
        <time>2012-07-12T10:34:14Z</time>
      </trkpt>
      <trkpt lat="59.5651616" lon="17.9620249">
        <ele>11.2</ele>
        <time>2012-07-12T10:34:18Z</time>
      </trkpt>
      <trkpt lat="59.5654751" lon="17.9625471">
        <ele>11.2</ele>
        <time>2012-07-12T10:34:23Z</time>
      </trkpt>
      <trkpt lat="59.5657723" lon="17.9629549">
        <ele>11.6</ele>
        <time>2012-07-12T10:34:28Z</time>
      </trkpt>
      <trkpt lat="59.5661161" lon="17.9632288">
        <ele>13.2</ele>
        <time>2012-07-12T10:34:33Z</time>
      </trkpt>
      <trkpt lat="59.566472" lon="17.9633926">
        <ele>15</ele>
        <time>2012-07-12T10:34:38Z</time>
      </trkpt>
      <trkpt lat="59.566858" lon="17.9635405">
        <ele>17.6</ele>
        <time>2012-07-12T10:34:44Z</time>
      </trkpt>
      <trkpt lat="59.5672718" lon="17.9635351">
        <ele>18</ele>
        <time>2012-07-12T10:34:50Z</time>
      </trkpt>
      <trkpt lat="59.5676402" lon="17.9635372">
        <ele>19.4</ele>
        <time>2012-07-12T10:34:55Z</time>
      </trkpt>
      <trkpt lat="59.5680214" lon="17.9636735">
        <ele>20.4</ele>
        <time>2012-07-12T10:35:00Z</time>
      </trkpt>
      <trkpt lat="59.5683822" lon="17.9638981">
        <ele>19.6</ele>
        <time>2012-07-12T10:35:05Z</time>
      </trkpt>
      <trkpt lat="59.5687643" lon="17.9640422">
        <ele>18</ele>
        <time>2012-07-12T10:35:10Z</time>
      </trkpt>
      <trkpt lat="59.5691638" lon="17.9642735">
        <ele>16.4</ele>
        <time>2012-07-12T10:35:15Z</time>
      </trkpt>
      <trkpt lat="59.5695637" lon="17.9646787">
        <ele>13.8</ele>
        <time>2012-07-12T10:35:20Z</time>
      </trkpt>
      <trkpt lat="59.5698288" lon="17.9648554">
        <ele>12.4</ele>
        <time>2012-07-12T10:35:23Z</time>
      </trkpt>
      <trkpt lat="59.5699229" lon="17.9648828">
        <ele>12</ele>
        <time>2012-07-12T10:35:24Z</time>
      </trkpt>
      <trkpt lat="59.570293" lon="17.9648288">
        <ele>11.8</ele>
        <time>2012-07-12T10:35:28Z</time>
      </trkpt>
      <trkpt lat="59.570723" lon="17.9646786">
        <ele>10.4</ele>
        <time>2012-07-12T10:35:33Z</time>
      </trkpt>
      <trkpt lat="59.5711457" lon="17.9645528">
        <ele>11.4</ele>
        <time>2012-07-12T10:35:38Z</time>
      </trkpt>
      <trkpt lat="59.5715547" lon="17.9644297">
        <ele>12</ele>
        <time>2012-07-12T10:35:43Z</time>
      </trkpt>
      <trkpt lat="59.5719748" lon="17.9643043">
        <ele>12.2</ele>
        <time>2012-07-12T10:35:48Z</time>
      </trkpt>
      <trkpt lat="59.5723799" lon="17.9641824">
        <ele>12.6</ele>
        <time>2012-07-12T10:35:53Z</time>
      </trkpt>
      <trkpt lat="59.5727972" lon="17.9640558">
        <ele>12.8</ele>
        <time>2012-07-12T10:35:58Z</time>
      </trkpt>
      <trkpt lat="59.5732064" lon="17.9639187">
        <ele>14</ele>
        <time>2012-07-12T10:36:03Z</time>
      </trkpt>
      <trkpt lat="59.5736197" lon="17.9637998">
        <ele>14.2</ele>
        <time>2012-07-12T10:36:08Z</time>
      </trkpt>
      <trkpt lat="59.5740274" lon="17.9636853">
        <ele>15.8</ele>
        <time>2012-07-12T10:36:13Z</time>
      </trkpt>
      <trkpt lat="59.5744305" lon="17.96356">
        <ele>17.6</ele>
        <time>2012-07-12T10:36:18Z</time>
      </trkpt>
      <trkpt lat="59.5748774" lon="17.9635079">
        <ele>17.6</ele>
        <time>2012-07-12T10:36:23Z</time>
      </trkpt>
      <trkpt lat="59.5753303" lon="17.9634579">
        <ele>17.8</ele>
        <time>2012-07-12T10:36:28Z</time>
      </trkpt>
      <trkpt lat="59.5757663" lon="17.9634458">
        <ele>15.8</ele>
        <time>2012-07-12T10:36:33Z</time>
      </trkpt>
      <trkpt lat="59.5760212" lon="17.963466">
        <ele>15.8</ele>
        <time>2012-07-12T10:36:36Z</time>
      </trkpt>
      <trkpt lat="59.5761961" lon="17.9634515">
        <ele>15.2</ele>
        <time>2012-07-12T10:36:38Z</time>
      </trkpt>
      <trkpt lat="59.5766405" lon="17.9632802">
        <ele>16.2</ele>
        <time>2012-07-12T10:36:43Z</time>
      </trkpt>
      <trkpt lat="59.5768288" lon="17.9625487">
        <ele>16.8</ele>
        <time>2012-07-12T10:36:48Z</time>
      </trkpt>
      <trkpt lat="59.5770387" lon="17.9622364">
        <ele>16.6</ele>
        <time>2012-07-12T10:36:51Z</time>
      </trkpt>
      <trkpt lat="59.5771183" lon="17.9621432">
        <ele>15.6</ele>
        <time>2012-07-12T10:36:52Z</time>
      </trkpt>
      <trkpt lat="59.5774425" lon="17.9617645">
        <ele>12</ele>
        <time>2012-07-12T10:36:56Z</time>
      </trkpt>
      <trkpt lat="59.5777765" lon="17.9613765">
        <ele>9.4</ele>
        <time>2012-07-12T10:37:00Z</time>
      </trkpt>
      <trkpt lat="59.5781071" lon="17.9609999">
        <ele>8</ele>
        <time>2012-07-12T10:37:04Z</time>
      </trkpt>
      <trkpt lat="59.5784302" lon="17.9606253">
        <ele>8.2</ele>
        <time>2012-07-12T10:37:08Z</time>
      </trkpt>
      <trkpt lat="59.5787423" lon="17.9602421">
        <ele>9</ele>
        <time>2012-07-12T10:37:12Z</time>
      </trkpt>
      <trkpt lat="59.5790449" lon="17.9598417">
        <ele>8.8</ele>
        <time>2012-07-12T10:37:16Z</time>
      </trkpt>
      <trkpt lat="59.5793452" lon="17.9594478">
        <ele>9.6</ele>
        <time>2012-07-12T10:37:20Z</time>
      </trkpt>
      <trkpt lat="59.5797125" lon="17.9589621">
        <ele>9.8</ele>
        <time>2012-07-12T10:37:25Z</time>
      </trkpt>
      <trkpt lat="59.5800587" lon="17.9584654">
        <ele>10</ele>
        <time>2012-07-12T10:37:30Z</time>
      </trkpt>
      <trkpt lat="59.5801177" lon="17.9583519">
        <ele>10</ele>
        <time>2012-07-12T10:37:31Z</time>
      </trkpt>
      <trkpt lat="59.5803211" lon="17.9578556">
        <ele>10.6</ele>
        <time>2012-07-12T10:37:35Z</time>
      </trkpt>
      <trkpt lat="59.5805668" lon="17.9572474">
        <ele>10.8</ele>
        <time>2012-07-12T10:37:40Z</time>
      </trkpt>
      <trkpt lat="59.5808164" lon="17.9566505">
        <ele>11.2</ele>
        <time>2012-07-12T10:37:45Z</time>
      </trkpt>
      <trkpt lat="59.5810572" lon="17.955986">
        <ele>9.6</ele>
        <time>2012-07-12T10:37:50Z</time>
      </trkpt>
      <trkpt lat="59.5812584" lon="17.9552175">
        <ele>8</ele>
        <time>2012-07-12T10:37:55Z</time>
      </trkpt>
      <trkpt lat="59.5814085" lon="17.954432">
        <ele>7</ele>
        <time>2012-07-12T10:38:00Z</time>
      </trkpt>
      <trkpt lat="59.5814712" lon="17.9536662">
        <ele>7.4</ele>
        <time>2012-07-12T10:38:05Z</time>
      </trkpt>
      <trkpt lat="59.5814404" lon="17.9529431">
        <ele>8</ele>
        <time>2012-07-12T10:38:10Z</time>
      </trkpt>
      <trkpt lat="59.58151" lon="17.9522386">
        <ele>9.4</ele>
        <time>2012-07-12T10:38:15Z</time>
      </trkpt>
      <trkpt lat="59.5816338" lon="17.9515312">
        <ele>10.6</ele>
        <time>2012-07-12T10:38:20Z</time>
      </trkpt>
      <trkpt lat="59.5817479" lon="17.9508018">
        <ele>11.2</ele>
        <time>2012-07-12T10:38:25Z</time>
      </trkpt>
      <trkpt lat="59.5818286" lon="17.9500729">
        <ele>12.2</ele>
        <time>2012-07-12T10:38:30Z</time>
      </trkpt>
      <trkpt lat="59.58187" lon="17.9493338">
        <ele>12.6</ele>
        <time>2012-07-12T10:38:35Z</time>
      </trkpt>
      <trkpt lat="59.5819761" lon="17.9486143">
        <ele>11.8</ele>
        <time>2012-07-12T10:38:40Z</time>
      </trkpt>
      <trkpt lat="59.5822215" lon="17.9480417">
        <ele>12</ele>
        <time>2012-07-12T10:38:45Z</time>
      </trkpt>
      <trkpt lat="59.5825061" lon="17.9475809">
        <ele>11.8</ele>
        <time>2012-07-12T10:38:50Z</time>
      </trkpt>
      <trkpt lat="59.5827842" lon="17.9471453">
        <ele>12</ele>
        <time>2012-07-12T10:38:55Z</time>
      </trkpt>
      <trkpt lat="59.5830998" lon="17.9466443">
        <ele>12.6</ele>
        <time>2012-07-12T10:39:01Z</time>
      </trkpt>
      <trkpt lat="59.5834306" lon="17.9461194">
        <ele>13.6</ele>
        <time>2012-07-12T10:39:07Z</time>
      </trkpt>
      <trkpt lat="59.5837513" lon="17.9455679">
        <ele>14.6</ele>
        <time>2012-07-12T10:39:13Z</time>
      </trkpt>
      <trkpt lat="59.5840254" lon="17.9450639">
        <ele>14.6</ele>
        <time>2012-07-12T10:39:18Z</time>
      </trkpt>
      <trkpt lat="59.5842969" lon="17.9445465">
        <ele>15</ele>
        <time>2012-07-12T10:39:23Z</time>
      </trkpt>
      <trkpt lat="59.5845828" lon="17.9439481">
        <ele>15.8</ele>
        <time>2012-07-12T10:39:29Z</time>
      </trkpt>
      <trkpt lat="59.5848237" lon="17.9433786">
        <ele>14.6</ele>
        <time>2012-07-12T10:39:34Z</time>
      </trkpt>
      <trkpt lat="59.5851319" lon="17.9428213">
        <ele>16</ele>
        <time>2012-07-12T10:39:40Z</time>
      </trkpt>
      <trkpt lat="59.5854576" lon="17.9423468">
        <ele>17.2</ele>
        <time>2012-07-12T10:39:46Z</time>
      </trkpt>
      <trkpt lat="59.5857471" lon="17.9418842">
        <ele>18.6</ele>
        <time>2012-07-12T10:39:52Z</time>
      </trkpt>
      <trkpt lat="59.5860862" lon="17.9414046">
        <ele>17.8</ele>
        <time>2012-07-12T10:39:58Z</time>
      </trkpt>
      <trkpt lat="59.5863867" lon="17.9409622">
        <ele>17.2</ele>
        <time>2012-07-12T10:40:03Z</time>
      </trkpt>
      <trkpt lat="59.5866766" lon="17.9404868">
        <ele>17.6</ele>
        <time>2012-07-12T10:40:08Z</time>
      </trkpt>
      <trkpt lat="59.5869394" lon="17.9399297">
        <ele>18.2</ele>
        <time>2012-07-12T10:40:13Z</time>
      </trkpt>
      <trkpt lat="59.5871621" lon="17.9393067">
        <ele>17.2</ele>
        <time>2012-07-12T10:40:18Z</time>
      </trkpt>
      <trkpt lat="59.5874391" lon="17.9387073">
        <ele>17.8</ele>
        <time>2012-07-12T10:40:23Z</time>
      </trkpt>
      <trkpt lat="59.587766" lon="17.9382075">
        <ele>18.4</ele>
        <time>2012-07-12T10:40:28Z</time>
      </trkpt>
      <trkpt lat="59.5880835" lon="17.9377179">
        <ele>18.4</ele>
        <time>2012-07-12T10:40:33Z</time>
      </trkpt>
      <trkpt lat="59.5883624" lon="17.9371767">
        <ele>19</ele>
        <time>2012-07-12T10:40:38Z</time>
      </trkpt>
      <trkpt lat="59.5886016" lon="17.9366198">
        <ele>19.6</ele>
        <time>2012-07-12T10:40:43Z</time>
      </trkpt>
      <trkpt lat="59.5886819" lon="17.9364126">
        <ele>20</ele>
        <time>2012-07-12T10:40:45Z</time>
      </trkpt>
      <trkpt lat="59.5888989" lon="17.9360065">
        <ele>19.8</ele>
        <time>2012-07-12T10:40:49Z</time>
      </trkpt>
      <trkpt lat="59.5891961" lon="17.9353765">
        <ele>19</ele>
        <time>2012-07-12T10:40:54Z</time>
      </trkpt>
      <trkpt lat="59.5895028" lon="17.9347674">
        <ele>18.8</ele>
        <time>2012-07-12T10:40:59Z</time>
      </trkpt>
      <trkpt lat="59.5897872" lon="17.934269">
        <ele>20.6</ele>
        <time>2012-07-12T10:41:04Z</time>
      </trkpt>
      <trkpt lat="59.5900847" lon="17.933738">
        <ele>23.2</ele>
        <time>2012-07-12T10:41:11Z</time>
      </trkpt>
      <trkpt lat="59.5902722" lon="17.9333387">
        <ele>22.6</ele>
        <time>2012-07-12T10:41:15Z</time>
      </trkpt>
      <trkpt lat="59.5903668" lon="17.9330926">
        <ele>22.6</ele>
        <time>2012-07-12T10:41:17Z</time>
      </trkpt>
      <trkpt lat="59.5904056" lon="17.932961">
        <ele>22.8</ele>
        <time>2012-07-12T10:41:18Z</time>
      </trkpt>
      <trkpt lat="59.5904955" lon="17.9323638">
        <ele>22.4</ele>
        <time>2012-07-12T10:41:22Z</time>
      </trkpt>
      <trkpt lat="59.5905591" lon="17.9315091">
        <ele>21.4</ele>
        <time>2012-07-12T10:41:27Z</time>
      </trkpt>
      <trkpt lat="59.5905985" lon="17.9306622">
        <ele>21.6</ele>
        <time>2012-07-12T10:41:32Z</time>
      </trkpt>
      <trkpt lat="59.5905722" lon="17.929897">
        <ele>21.6</ele>
        <time>2012-07-12T10:41:37Z</time>
      </trkpt>
      <trkpt lat="59.5905544" lon="17.9297539">
        <ele>21.8</ele>
        <time>2012-07-12T10:41:38Z</time>
      </trkpt>
      <trkpt lat="59.5904202" lon="17.9292216">
        <ele>22.6</ele>
        <time>2012-07-12T10:41:42Z</time>
      </trkpt>
      <trkpt lat="59.5903742" lon="17.929104">
        <ele>22.8</ele>
        <time>2012-07-12T10:41:43Z</time>
      </trkpt>
      <trkpt lat="59.5901711" lon="17.9286943">
        <ele>23.8</ele>
        <time>2012-07-12T10:41:47Z</time>
      </trkpt>
      <trkpt lat="59.5899257" lon="17.9281431">
        <ele>24</ele>
        <time>2012-07-12T10:41:52Z</time>
      </trkpt>
      <trkpt lat="59.5896778" lon="17.9277199">
        <ele>23.2</ele>
        <time>2012-07-12T10:41:56Z</time>
      </trkpt>
      <trkpt lat="59.5896042" lon="17.9276395">
        <ele>23</ele>
        <time>2012-07-12T10:41:57Z</time>
      </trkpt>
      <trkpt lat="59.5891967" lon="17.9273521">
        <ele>20.6</ele>
        <time>2012-07-12T10:42:02Z</time>
      </trkpt>
      <trkpt lat="59.5888326" lon="17.9271246">
        <ele>18.8</ele>
        <time>2012-07-12T10:42:06Z</time>
      </trkpt>
      <trkpt lat="59.5884773" lon="17.9268593">
        <ele>17.4</ele>
        <time>2012-07-12T10:42:10Z</time>
      </trkpt>
      <trkpt lat="59.5882291" lon="17.9262842">
        <ele>15.8</ele>
        <time>2012-07-12T10:42:14Z</time>
      </trkpt>
      <trkpt lat="59.5881954" lon="17.9257135">
        <ele>15</ele>
        <time>2012-07-12T10:42:17Z</time>
      </trkpt>
      <trkpt lat="59.5881934" lon="17.9255224">
        <ele>14.8</ele>
        <time>2012-07-12T10:42:18Z</time>
      </trkpt>
      <trkpt lat="59.5881866" lon="17.9247556">
        <ele>14.4</ele>
        <time>2012-07-12T10:42:22Z</time>
      </trkpt>
      <trkpt lat="59.5881597" lon="17.9240041">
        <ele>14.4</ele>
        <time>2012-07-12T10:42:26Z</time>
      </trkpt>
      <trkpt lat="59.588124" lon="17.923281">
        <ele>14.6</ele>
        <time>2012-07-12T10:42:30Z</time>
      </trkpt>
      <trkpt lat="59.5880934" lon="17.9224247">
        <ele>15.2</ele>
        <time>2012-07-12T10:42:35Z</time>
      </trkpt>
      <trkpt lat="59.588121" lon="17.9217073">
        <ele>15.2</ele>
        <time>2012-07-12T10:42:39Z</time>
      </trkpt>
      <trkpt lat="59.5882062" lon="17.9208432">
        <ele>14.8</ele>
        <time>2012-07-12T10:42:44Z</time>
      </trkpt>
      <trkpt lat="59.5883172" lon="17.9200299">
        <ele>14</ele>
        <time>2012-07-12T10:42:49Z</time>
      </trkpt>
      <trkpt lat="59.5883425" lon="17.9195441">
        <ele>14.2</ele>
        <time>2012-07-12T10:42:52Z</time>
      </trkpt>
      <trkpt lat="59.5883333" lon="17.9192276">
        <ele>14.2</ele>
        <time>2012-07-12T10:42:54Z</time>
      </trkpt>
      <trkpt lat="59.588338" lon="17.9189176">
        <ele>14.2</ele>
        <time>2012-07-12T10:42:56Z</time>
      </trkpt>
      <trkpt lat="59.5884089" lon="17.9184692">
        <ele>14.4</ele>
        <time>2012-07-12T10:42:59Z</time>
      </trkpt>
      <trkpt lat="59.5884845" lon="17.9182008">
        <ele>14.2</ele>
        <time>2012-07-12T10:43:01Z</time>
      </trkpt>
      <trkpt lat="59.5885275" lon="17.918076">
        <ele>14.4</ele>
        <time>2012-07-12T10:43:02Z</time>
      </trkpt>
      <trkpt lat="59.5886314" lon="17.9178439">
        <ele>14.4</ele>
        <time>2012-07-12T10:43:04Z</time>
      </trkpt>
      <trkpt lat="59.5889192" lon="17.917298">
        <ele>13.6</ele>
        <time>2012-07-12T10:43:09Z</time>
      </trkpt>
      <trkpt lat="59.5892085" lon="17.9167018">
        <ele>13</ele>
        <time>2012-07-12T10:43:14Z</time>
      </trkpt>
      <trkpt lat="59.5894722" lon="17.9161365">
        <ele>13</ele>
        <time>2012-07-12T10:43:19Z</time>
      </trkpt>
      <trkpt lat="59.5896587" lon="17.9155417">
        <ele>14</ele>
        <time>2012-07-12T10:43:24Z</time>
      </trkpt>
      <trkpt lat="59.5896801" lon="17.9154078">
        <ele>14.2</ele>
        <time>2012-07-12T10:43:25Z</time>
      </trkpt>
      <trkpt lat="59.5897809" lon="17.9145949">
        <ele>14.6</ele>
        <time>2012-07-12T10:43:31Z</time>
      </trkpt>
      <trkpt lat="59.5899096" lon="17.9138873">
        <ele>15</ele>
        <time>2012-07-12T10:43:36Z</time>
      </trkpt>
      <trkpt lat="59.5900364" lon="17.9131706">
        <ele>14.6</ele>
        <time>2012-07-12T10:43:41Z</time>
      </trkpt>
      <trkpt lat="59.5901715" lon="17.9124702">
        <ele>15.2</ele>
        <time>2012-07-12T10:43:46Z</time>
      </trkpt>
      <trkpt lat="59.5903245" lon="17.9117834">
        <ele>14.8</ele>
        <time>2012-07-12T10:43:51Z</time>
      </trkpt>
      <trkpt lat="59.5903533" lon="17.9109859">
        <ele>15.6</ele>
        <time>2012-07-12T10:43:56Z</time>
      </trkpt>
      <trkpt lat="59.5905804" lon="17.9104353">
        <ele>15.6</ele>
        <time>2012-07-12T10:44:01Z</time>
      </trkpt>
      <trkpt lat="59.5907126" lon="17.9103353">
        <ele>15.4</ele>
        <time>2012-07-12T10:44:03Z</time>
      </trkpt>
      <trkpt lat="59.5909871" lon="17.9101743">
        <ele>14.4</ele>
        <time>2012-07-12T10:44:07Z</time>
      </trkpt>
      <trkpt lat="59.5913766" lon="17.9100402">
        <ele>14.4</ele>
        <time>2012-07-12T10:44:13Z</time>
      </trkpt>
      <trkpt lat="59.5917527" lon="17.9098832">
        <ele>14.4</ele>
        <time>2012-07-12T10:44:19Z</time>
      </trkpt>
      <trkpt lat="59.5919702" lon="17.9096625">
        <ele>15.2</ele>
        <time>2012-07-12T10:44:23Z</time>
      </trkpt>
      <trkpt lat="59.5920729" lon="17.9095221">
        <ele>15.8</ele>
        <time>2012-07-12T10:44:25Z</time>
      </trkpt>
      <trkpt lat="59.5922897" lon="17.9090678">
        <ele>15.8</ele>
        <time>2012-07-12T10:44:30Z</time>
      </trkpt>
      <trkpt lat="59.5923256" lon="17.908964">
        <ele>16</ele>
        <time>2012-07-12T10:44:31Z</time>
      </trkpt>
      <trkpt lat="59.5925048" lon="17.9082355">
        <ele>17.8</ele>
        <time>2012-07-12T10:44:38Z</time>
      </trkpt>
      <trkpt lat="59.5926383" lon="17.9074817">
        <ele>19</ele>
        <time>2012-07-12T10:44:45Z</time>
      </trkpt>
      <trkpt lat="59.5927169" lon="17.9067108">
        <ele>20.4</ele>
        <time>2012-07-12T10:44:52Z</time>
      </trkpt>
      <trkpt lat="59.5927076" lon="17.9064991">
        <ele>21</ele>
        <time>2012-07-12T10:44:54Z</time>
      </trkpt>
      <trkpt lat="59.5926426" lon="17.9059938">
        <ele>22.2</ele>
        <time>2012-07-12T10:44:59Z</time>
      </trkpt>
      <trkpt lat="59.5926139" lon="17.9057427">
        <ele>24.2</ele>
        <time>2012-07-12T10:45:02Z</time>
      </trkpt>
      <trkpt lat="59.5926227" lon="17.9052453">
        <ele>28.2</ele>
        <time>2012-07-12T10:45:08Z</time>
      </trkpt>
      <trkpt lat="59.5926465" lon="17.905085">
        <ele>29</ele>
        <time>2012-07-12T10:45:10Z</time>
      </trkpt>
      <trkpt lat="59.5927332" lon="17.9047558">
        <ele>30</ele>
        <time>2012-07-12T10:45:14Z</time>
      </trkpt>
      <trkpt lat="59.5927991" lon="17.9046093">
        <ele>30.2</ele>
        <time>2012-07-12T10:45:16Z</time>
      </trkpt>
      <trkpt lat="59.5931181" lon="17.9041322">
        <ele>28.4</ele>
        <time>2012-07-12T10:45:23Z</time>
      </trkpt>
      <trkpt lat="59.5934734" lon="17.903765">
        <ele>27</ele>
        <time>2012-07-12T10:45:30Z</time>
      </trkpt>
      <trkpt lat="59.5938201" lon="17.9036373">
        <ele>25.4</ele>
        <time>2012-07-12T10:45:36Z</time>
      </trkpt>
      <trkpt lat="59.5941902" lon="17.9035187">
        <ele>24.6</ele>
        <time>2012-07-12T10:45:42Z</time>
      </trkpt>
      <trkpt lat="59.5942525" lon="17.9035024">
        <ele>24.8</ele>
        <time>2012-07-12T10:45:43Z</time>
      </trkpt>
      <trkpt lat="59.5945815" lon="17.9034786">
        <ele>24.8</ele>
        <time>2012-07-12T10:45:48Z</time>
      </trkpt>
      <trkpt lat="59.594998" lon="17.9034801">
        <ele>24.8</ele>
        <time>2012-07-12T10:45:54Z</time>
      </trkpt>
      <trkpt lat="59.5954279" lon="17.9034662">
        <ele>25.2</ele>
        <time>2012-07-12T10:46:00Z</time>
      </trkpt>
      <trkpt lat="59.5957906" lon="17.9035132">
        <ele>25.2</ele>
        <time>2012-07-12T10:46:05Z</time>
      </trkpt>
      <trkpt lat="59.5961333" lon="17.903754">
        <ele>24</ele>
        <time>2012-07-12T10:46:10Z</time>
      </trkpt>
      <trkpt lat="59.5964966" lon="17.9041181">
        <ele>22.4</ele>
        <time>2012-07-12T10:46:15Z</time>
      </trkpt>
      <trkpt lat="59.596653" lon="17.9042517">
        <ele>21.6</ele>
        <time>2012-07-12T10:46:17Z</time>
      </trkpt>
      <trkpt lat="59.5968975" lon="17.9042265">
        <ele>21.2</ele>
        <time>2012-07-12T10:46:20Z</time>
      </trkpt>
      <trkpt lat="59.5972636" lon="17.9043997">
        <ele>21.4</ele>
        <time>2012-07-12T10:46:25Z</time>
      </trkpt>
      <trkpt lat="59.5975781" lon="17.9047927">
        <ele>22</ele>
        <time>2012-07-12T10:46:30Z</time>
      </trkpt>
      <trkpt lat="59.5978893" lon="17.9051629">
        <ele>22.4</ele>
        <time>2012-07-12T10:46:35Z</time>
      </trkpt>
      <trkpt lat="59.5981959" lon="17.9055493">
        <ele>22.4</ele>
        <time>2012-07-12T10:46:40Z</time>
      </trkpt>
      <trkpt lat="59.5985334" lon="17.9059614">
        <ele>22.4</ele>
        <time>2012-07-12T10:46:45Z</time>
      </trkpt>
      <trkpt lat="59.5988768" lon="17.9063797">
        <ele>22.2</ele>
        <time>2012-07-12T10:46:50Z</time>
      </trkpt>
      <trkpt lat="59.5992228" lon="17.9067933">
        <ele>22.4</ele>
        <time>2012-07-12T10:46:55Z</time>
      </trkpt>
      <trkpt lat="59.599571" lon="17.9072119">
        <ele>22.6</ele>
        <time>2012-07-12T10:47:00Z</time>
      </trkpt>
      <trkpt lat="59.5999135" lon="17.9076324">
        <ele>23</ele>
        <time>2012-07-12T10:47:05Z</time>
      </trkpt>
      <trkpt lat="59.600251" lon="17.9080466">
        <ele>23.6</ele>
        <time>2012-07-12T10:47:10Z</time>
      </trkpt>
      <trkpt lat="59.6005752" lon="17.9084328">
        <ele>24.2</ele>
        <time>2012-07-12T10:47:15Z</time>
      </trkpt>
      <trkpt lat="59.6008795" lon="17.9088093">
        <ele>25.8</ele>
        <time>2012-07-12T10:47:20Z</time>
      </trkpt>
      <trkpt lat="59.6012342" lon="17.9092133">
        <ele>27.4</ele>
        <time>2012-07-12T10:47:26Z</time>
      </trkpt>
      <trkpt lat="59.6016098" lon="17.9095662">
        <ele>28.2</ele>
        <time>2012-07-12T10:47:32Z</time>
      </trkpt>
      <trkpt lat="59.601994" lon="17.9098779">
        <ele>29</ele>
        <time>2012-07-12T10:47:38Z</time>
      </trkpt>
      <trkpt lat="59.6023645" lon="17.9101576">
        <ele>29</ele>
        <time>2012-07-12T10:47:44Z</time>
      </trkpt>
      <trkpt lat="59.6027519" lon="17.910396">
        <ele>29</ele>
        <time>2012-07-12T10:47:54Z</time>
      </trkpt>
      <trkpt lat="59.6031067" lon="17.9105702">
        <ele>30</ele>
        <time>2012-07-12T10:48:00Z</time>
      </trkpt>
      <trkpt lat="59.6035218" lon="17.9107101">
        <ele>30</ele>
        <time>2012-07-12T10:48:07Z</time>
      </trkpt>
      <trkpt lat="59.6039317" lon="17.9108424">
        <ele>30.2</ele>
        <time>2012-07-12T10:48:13Z</time>
      </trkpt>
      <trkpt lat="59.6043007" lon="17.9109582">
        <ele>30.8</ele>
        <time>2012-07-12T10:48:18Z</time>
      </trkpt>
      <trkpt lat="59.6046577" lon="17.9110797">
        <ele>30.6</ele>
        <time>2012-07-12T10:48:23Z</time>
      </trkpt>
      <trkpt lat="59.6050176" lon="17.9112703">
        <ele>30.8</ele>
        <time>2012-07-12T10:48:28Z</time>
      </trkpt>
      <trkpt lat="59.6053652" lon="17.9115191">
        <ele>30.6</ele>
        <time>2012-07-12T10:48:33Z</time>
      </trkpt>
      <trkpt lat="59.6056835" lon="17.9118624">
        <ele>30.6</ele>
        <time>2012-07-12T10:48:38Z</time>
      </trkpt>
      <trkpt lat="59.6060246" lon="17.9123135">
        <ele>31.4</ele>
        <time>2012-07-12T10:48:44Z</time>
      </trkpt>
      <trkpt lat="59.606318" lon="17.9128394">
        <ele>33.8</ele>
        <time>2012-07-12T10:48:50Z</time>
      </trkpt>
      <trkpt lat="59.6065836" lon="17.9133617">
        <ele>36.4</ele>
        <time>2012-07-12T10:48:56Z</time>
      </trkpt>
      <trkpt lat="59.6068686" lon="17.9139008">
        <ele>39.2</ele>
        <time>2012-07-12T10:49:02Z</time>
      </trkpt>
      <trkpt lat="59.6071397" lon="17.9144079">
        <ele>38.8</ele>
        <time>2012-07-12T10:49:08Z</time>
      </trkpt>
      <trkpt lat="59.6074199" lon="17.9149414">
        <ele>39.6</ele>
        <time>2012-07-12T10:49:14Z</time>
      </trkpt>
      <trkpt lat="59.607698" lon="17.9154749">
        <ele>42</ele>
        <time>2012-07-12T10:49:20Z</time>
      </trkpt>
      <trkpt lat="59.6079803" lon="17.9159714">
        <ele>48</ele>
        <time>2012-07-12T10:49:26Z</time>
      </trkpt>
      <trkpt lat="59.6082712" lon="17.9164531">
        <ele>52.4</ele>
        <time>2012-07-12T10:49:32Z</time>
      </trkpt>
      <trkpt lat="59.6085833" lon="17.9169025">
        <ele>55.4</ele>
        <time>2012-07-12T10:49:38Z</time>
      </trkpt>
      <trkpt lat="59.6086864" lon="17.9170437">
        <ele>56.6</ele>
        <time>2012-07-12T10:49:40Z</time>
      </trkpt>
      <trkpt lat="59.6088993" lon="17.9173373">
        <ele>57.8</ele>
        <time>2012-07-12T10:49:44Z</time>
      </trkpt>
      <trkpt lat="59.6091877" lon="17.9177688">
        <ele>56.8</ele>
        <time>2012-07-12T10:49:50Z</time>
      </trkpt>
      <trkpt lat="59.609496" lon="17.9182029">
        <ele>56.2</ele>
        <time>2012-07-12T10:49:56Z</time>
      </trkpt>
      <trkpt lat="59.6098141" lon="17.9186311">
        <ele>52.4</ele>
        <time>2012-07-12T10:50:02Z</time>
      </trkpt>
      <trkpt lat="59.6101441" lon="17.9190763">
        <ele>50</ele>
        <time>2012-07-12T10:50:08Z</time>
      </trkpt>
      <trkpt lat="59.6104424" lon="17.919487">
        <ele>47.4</ele>
        <time>2012-07-12T10:50:13Z</time>
      </trkpt>
      <trkpt lat="59.610758" lon="17.9199322">
        <ele>43.8</ele>
        <time>2012-07-12T10:50:18Z</time>
      </trkpt>
      <trkpt lat="59.611133" lon="17.9203434">
        <ele>42.8</ele>
        <time>2012-07-12T10:50:23Z</time>
      </trkpt>
      <trkpt lat="59.611587" lon="17.9206996">
        <ele>41.2</ele>
        <time>2012-07-12T10:50:28Z</time>
      </trkpt>
      <trkpt lat="59.611956" lon="17.9209145">
        <ele>41.6</ele>
        <time>2012-07-12T10:50:32Z</time>
      </trkpt>
      <trkpt lat="59.6123238" lon="17.9210939">
        <ele>41.2</ele>
        <time>2012-07-12T10:50:36Z</time>
      </trkpt>
      <trkpt lat="59.6126857" lon="17.9212748">
        <ele>40.2</ele>
        <time>2012-07-12T10:50:40Z</time>
      </trkpt>
      <trkpt lat="59.6130594" lon="17.9214275">
        <ele>38.8</ele>
        <time>2012-07-12T10:50:44Z</time>
      </trkpt>
      <trkpt lat="59.6134218" lon="17.9215892">
        <ele>37</ele>
        <time>2012-07-12T10:50:48Z</time>
      </trkpt>
      <trkpt lat="59.6138811" lon="17.9218332">
        <ele>36.8</ele>
        <time>2012-07-12T10:50:52Z</time>
      </trkpt>
      <trkpt lat="59.614156" lon="17.921944">
        <ele>35.6</ele>
        <time>2012-07-12T10:50:56Z</time>
      </trkpt>
      <trkpt lat="59.6146267" lon="17.9220756">
        <ele>34.6</ele>
        <time>2012-07-12T10:51:00Z</time>
      </trkpt>
      <trkpt lat="59.6150046" lon="17.9221383">
        <ele>33.8</ele>
        <time>2012-07-12T10:51:04Z</time>
      </trkpt>
      <trkpt lat="59.6154861" lon="17.9221926">
        <ele>32.8</ele>
        <time>2012-07-12T10:51:09Z</time>
      </trkpt>
      <trkpt lat="59.6158727" lon="17.9222192">
        <ele>32.2</ele>
        <time>2012-07-12T10:51:13Z</time>
      </trkpt>
      <trkpt lat="59.6160643" lon="17.9222435">
        <ele>32</ele>
        <time>2012-07-12T10:51:15Z</time>
      </trkpt>
      <trkpt lat="59.6162579" lon="17.9222712">
        <ele>31.8</ele>
        <time>2012-07-12T10:51:17Z</time>
      </trkpt>
      <trkpt lat="59.6166302" lon="17.9223106">
        <ele>32</ele>
        <time>2012-07-12T10:51:21Z</time>
      </trkpt>
      <trkpt lat="59.6169859" lon="17.9223707">
        <ele>32.4</ele>
        <time>2012-07-12T10:51:25Z</time>
      </trkpt>
      <trkpt lat="59.617405" lon="17.9225335">
        <ele>32.2</ele>
        <time>2012-07-12T10:51:30Z</time>
      </trkpt>
      <trkpt lat="59.6177933" lon="17.9227566">
        <ele>32</ele>
        <time>2012-07-12T10:51:35Z</time>
      </trkpt>
      <trkpt lat="59.6181794" lon="17.9230411">
        <ele>32.2</ele>
        <time>2012-07-12T10:51:40Z</time>
      </trkpt>
      <trkpt lat="59.618554" lon="17.9233835">
        <ele>32.8</ele>
        <time>2012-07-12T10:51:45Z</time>
      </trkpt>
      <trkpt lat="59.6188307" lon="17.923713">
        <ele>33.2</ele>
        <time>2012-07-12T10:51:50Z</time>
      </trkpt>
      <trkpt lat="59.6192147" lon="17.9242968">
        <ele>33.6</ele>
        <time>2012-07-12T10:51:55Z</time>
      </trkpt>
      <trkpt lat="59.6195278" lon="17.9248519">
        <ele>34.4</ele>
        <time>2012-07-12T10:52:00Z</time>
      </trkpt>
      <trkpt lat="59.6198278" lon="17.9254402">
        <ele>36.8</ele>
        <time>2012-07-12T10:52:05Z</time>
      </trkpt>
      <trkpt lat="59.6200639" lon="17.9259125">
        <ele>37.8</ele>
        <time>2012-07-12T10:52:09Z</time>
      </trkpt>
      <trkpt lat="59.6201178" lon="17.9260345">
        <ele>38.4</ele>
        <time>2012-07-12T10:52:10Z</time>
      </trkpt>
      <trkpt lat="59.6203856" lon="17.9266087">
        <ele>39.8</ele>
        <time>2012-07-12T10:52:15Z</time>
      </trkpt>
      <trkpt lat="59.6206048" lon="17.9270723">
        <ele>39.6</ele>
        <time>2012-07-12T10:52:20Z</time>
      </trkpt>
      <trkpt lat="59.6209518" lon="17.9277732">
        <ele>39.2</ele>
        <time>2012-07-12T10:52:25Z</time>
      </trkpt>
      <trkpt lat="59.6212397" lon="17.9283687">
        <ele>39.4</ele>
        <time>2012-07-12T10:52:30Z</time>
      </trkpt>
      <trkpt lat="59.6215174" lon="17.928936">
        <ele>39.4</ele>
        <time>2012-07-12T10:52:35Z</time>
      </trkpt>
      <trkpt lat="59.6217661" lon="17.9294692">
        <ele>39.8</ele>
        <time>2012-07-12T10:52:40Z</time>
      </trkpt>
      <trkpt lat="59.6220522" lon="17.9300515">
        <ele>41</ele>
        <time>2012-07-12T10:52:46Z</time>
      </trkpt>
      <trkpt lat="59.6223199" lon="17.9306016">
        <ele>41.6</ele>
        <time>2012-07-12T10:52:52Z</time>
      </trkpt>
      <trkpt lat="59.6225877" lon="17.9311571">
        <ele>42.6</ele>
        <time>2012-07-12T10:52:58Z</time>
      </trkpt>
      <trkpt lat="59.6228537" lon="17.931706">
        <ele>44.8</ele>
        <time>2012-07-12T10:53:04Z</time>
      </trkpt>
      <trkpt lat="59.6231041" lon="17.9322244">
        <ele>45.8</ele>
        <time>2012-07-12T10:53:09Z</time>
      </trkpt>
      <trkpt lat="59.6233578" lon="17.9327408">
        <ele>45.4</ele>
        <time>2012-07-12T10:53:14Z</time>
      </trkpt>
      <trkpt lat="59.6234046" lon="17.9328404">
        <ele>45.2</ele>
        <time>2012-07-12T10:53:15Z</time>
      </trkpt>
      <trkpt lat="59.6233301" lon="17.9333842">
        <ele>44</ele>
        <time>2012-07-12T10:53:20Z</time>
      </trkpt>
      <trkpt lat="59.6228969" lon="17.933395">
        <ele>45.8</ele>
        <time>2012-07-12T10:53:25Z</time>
      </trkpt>
      <trkpt lat="59.6228969" lon="17.933395">
        <ele>46</ele>
        <time>2012-07-12T10:53:26Z</time>
      </trkpt>
      <trkpt lat="59.6224944" lon="17.9332515">
        <ele>46.6</ele>
        <time>2012-07-12T10:53:30Z</time>
      </trkpt>
      <trkpt lat="59.6220666" lon="17.933185">
        <ele>46</ele>
        <time>2012-07-12T10:53:35Z</time>
      </trkpt>
      <trkpt lat="59.6216386" lon="17.9330456">
        <ele>46.8</ele>
        <time>2012-07-12T10:53:40Z</time>
      </trkpt>
      <trkpt lat="59.6212107" lon="17.9328995">
        <ele>48.4</ele>
        <time>2012-07-12T10:53:45Z</time>
      </trkpt>
      <trkpt lat="59.6208741" lon="17.9328096">
        <ele>48</ele>
        <time>2012-07-12T10:53:49Z</time>
      </trkpt>
      <trkpt lat="59.6208741" lon="17.9328096">
        <ele>48.2</ele>
        <time>2012-07-12T10:53:50Z</time>
      </trkpt>
      <trkpt lat="59.620703" lon="17.9328268">
        <ele>48</ele>
        <time>2012-07-12T10:53:51Z</time>
      </trkpt>
      <trkpt lat="59.6203624" lon="17.9329858">
        <ele>48.2</ele>
        <time>2012-07-12T10:53:55Z</time>
      </trkpt>
      <trkpt lat="59.6199394" lon="17.9331899">
        <ele>48</ele>
        <time>2012-07-12T10:54:00Z</time>
      </trkpt>
      <trkpt lat="59.6195391" lon="17.9334248">
        <ele>48.8</ele>
        <time>2012-07-12T10:54:05Z</time>
      </trkpt>
      <trkpt lat="59.6191347" lon="17.9337926">
        <ele>48.4</ele>
        <time>2012-07-12T10:54:10Z</time>
      </trkpt>
      <trkpt lat="59.6187861" lon="17.9342569">
        <ele>46.8</ele>
        <time>2012-07-12T10:54:15Z</time>
      </trkpt>
      <trkpt lat="59.6185259" lon="17.9346249">
        <ele>46.8</ele>
        <time>2012-07-12T10:54:20Z</time>
      </trkpt>
      <trkpt lat="59.6181919" lon="17.9350203">
        <ele>44.2</ele>
        <time>2012-07-12T10:54:24Z</time>
      </trkpt>
      <trkpt lat="59.618124" lon="17.9350668">
        <ele>43.8</ele>
        <time>2012-07-12T10:54:25Z</time>
      </trkpt>
      <trkpt lat="59.6178697" lon="17.9350771">
        <ele>42.8</ele>
        <time>2012-07-12T10:54:29Z</time>
      </trkpt>
      <trkpt lat="59.6177944" lon="17.9350615">
        <ele>43.6</ele>
        <time>2012-07-12T10:54:30Z</time>
      </trkpt>
      <trkpt lat="59.6176423" lon="17.9350617">
        <ele>44</ele>
        <time>2012-07-12T10:54:32Z</time>
      </trkpt>
      <trkpt lat="59.6174174" lon="17.9351346">
        <ele>44.6</ele>
        <time>2012-07-12T10:54:35Z</time>
      </trkpt>
      <trkpt lat="59.6171279" lon="17.9352821">
        <ele>44.6</ele>
        <time>2012-07-12T10:54:39Z</time>
      </trkpt>
      <trkpt lat="59.6170696" lon="17.9353506">
        <ele>44.8</ele>
        <time>2012-07-12T10:54:40Z</time>
      </trkpt>
      <trkpt lat="59.6168861" lon="17.9360437">
        <ele>42</ele>
        <time>2012-07-12T10:54:46Z</time>
      </trkpt>
      <trkpt lat="59.6169149" lon="17.9363022">
        <ele>40.6</ele>
        <time>2012-07-12T10:54:48Z</time>
      </trkpt>
      <trkpt lat="59.616923" lon="17.9365456">
        <ele>39.8</ele>
        <time>2012-07-12T10:54:49Z</time>
      </trkpt>
      <trkpt lat="59.6169859" lon="17.9368248">
        <ele>41</ele>
        <time>2012-07-12T10:54:51Z</time>
      </trkpt>
      <trkpt lat="59.6170099" lon="17.936957">
        <ele>41</ele>
        <time>2012-07-12T10:54:52Z</time>
      </trkpt>
      <trkpt lat="59.6170273" lon="17.9372202">
        <ele>40.8</ele>
        <time>2012-07-12T10:54:54Z</time>
      </trkpt>
      <trkpt lat="59.6170355" lon="17.9375088">
        <ele>41.8</ele>
        <time>2012-07-12T10:54:56Z</time>
      </trkpt>
      <trkpt lat="59.6170279" lon="17.9376514">
        <ele>42.4</ele>
        <time>2012-07-12T10:54:57Z</time>
      </trkpt>
      <trkpt lat="59.6169579" lon="17.9384732">
        <ele>44.4</ele>
        <time>2012-07-12T10:55:03Z</time>
      </trkpt>
      <trkpt lat="59.6168741" lon="17.9392278">
        <ele>47.4</ele>
        <time>2012-07-12T10:55:09Z</time>
      </trkpt>
      <trkpt lat="59.6167935" lon="17.9397489">
        <ele>47</ele>
        <time>2012-07-12T10:55:13Z</time>
      </trkpt>
      <trkpt lat="59.6167363" lon="17.9399947">
        <ele>47.4</ele>
        <time>2012-07-12T10:55:15Z</time>
      </trkpt>
      <trkpt lat="59.616528" lon="17.9406999">
        <ele>48.4</ele>
        <time>2012-07-12T10:55:21Z</time>
      </trkpt>
      <trkpt lat="59.616441" lon="17.9412959">
        <ele>47.2</ele>
        <time>2012-07-12T10:55:26Z</time>
      </trkpt>
      <trkpt lat="59.616354" lon="17.9423158">
        <ele>46.4</ele>
        <time>2012-07-12T10:55:31Z</time>
      </trkpt>
      <trkpt lat="59.6163175" lon="17.9426617">
        <ele>46</ele>
        <time>2012-07-12T10:55:33Z</time>
      </trkpt>
      <trkpt lat="59.616209" lon="17.9431745">
        <ele>44.4</ele>
        <time>2012-07-12T10:55:36Z</time>
      </trkpt>
      <trkpt lat="59.6159489" lon="17.9437679">
        <ele>41.8</ele>
        <time>2012-07-12T10:55:40Z</time>
      </trkpt>
      <trkpt lat="59.6158669" lon="17.9438937">
        <ele>41.4</ele>
        <time>2012-07-12T10:55:41Z</time>
      </trkpt>
      <trkpt lat="59.6156008" lon="17.9442008">
        <ele>40</ele>
        <time>2012-07-12T10:55:44Z</time>
      </trkpt>
      <trkpt lat="59.6153421" lon="17.9444931">
        <ele>39</ele>
        <time>2012-07-12T10:55:47Z</time>
      </trkpt>
      <trkpt lat="59.6152672" lon="17.9446172">
        <ele>38.8</ele>
        <time>2012-07-12T10:55:48Z</time>
      </trkpt>
      <trkpt lat="59.6150991" lon="17.9450648">
        <ele>38.4</ele>
        <time>2012-07-12T10:55:51Z</time>
      </trkpt>
      <trkpt lat="59.6150574" lon="17.9452273">
        <ele>38.4</ele>
        <time>2012-07-12T10:55:52Z</time>
      </trkpt>
      <trkpt lat="59.6149323" lon="17.9459165">
        <ele>38.8</ele>
        <time>2012-07-12T10:55:56Z</time>
      </trkpt>
      <trkpt lat="59.6148408" lon="17.9464405">
        <ele>38.8</ele>
        <time>2012-07-12T10:55:59Z</time>
      </trkpt>
      <trkpt lat="59.6147935" lon="17.9466008">
        <ele>38.8</ele>
        <time>2012-07-12T10:56:00Z</time>
      </trkpt>
      <trkpt lat="59.6145014" lon="17.9470228">
        <ele>38.4</ele>
        <time>2012-07-12T10:56:04Z</time>
      </trkpt>
      <trkpt lat="59.6143274" lon="17.9470922">
        <ele>38.2</ele>
        <time>2012-07-12T10:56:06Z</time>
      </trkpt>
      <trkpt lat="59.6142389" lon="17.947125">
        <ele>38.4</ele>
        <time>2012-07-12T10:56:07Z</time>
      </trkpt>
      <trkpt lat="59.6140654" lon="17.9472194">
        <ele>38.6</ele>
        <time>2012-07-12T10:56:09Z</time>
      </trkpt>
      <trkpt lat="59.61381" lon="17.9476814">
        <ele>40.2</ele>
        <time>2012-07-12T10:56:13Z</time>
      </trkpt>
      <trkpt lat="59.6137572" lon="17.947813">
        <ele>40.4</ele>
        <time>2012-07-12T10:56:14Z</time>
      </trkpt>
      <trkpt lat="59.6136997" lon="17.9479324">
        <ele>40.6</ele>
        <time>2012-07-12T10:56:15Z</time>
      </trkpt>
      <trkpt lat="59.6134629" lon="17.9483517">
        <ele>41.4</ele>
        <time>2012-07-12T10:56:19Z</time>
      </trkpt>
      <trkpt lat="59.6133833" lon="17.9486084">
        <ele>41.6</ele>
        <time>2012-07-12T10:56:21Z</time>
      </trkpt>
      <trkpt lat="59.6133355" lon="17.9491026">
        <ele>42</ele>
        <time>2012-07-12T10:56:24Z</time>
      </trkpt>
      <trkpt lat="59.6132893" lon="17.9494504">
        <ele>42</ele>
        <time>2012-07-12T10:56:26Z</time>
      </trkpt>
      <trkpt lat="59.6131841" lon="17.9499311">
        <ele>42.4</ele>
        <time>2012-07-12T10:56:29Z</time>
      </trkpt>
      <trkpt lat="59.6131573" lon="17.9500885">
        <ele>42.4</ele>
        <time>2012-07-12T10:56:30Z</time>
      </trkpt>
      <trkpt lat="59.6131802" lon="17.950767">
        <ele>41.8</ele>
        <time>2012-07-12T10:56:34Z</time>
      </trkpt>
      <trkpt lat="59.6133851" lon="17.9514375">
        <ele>43.2</ele>
        <time>2012-07-12T10:56:38Z</time>
      </trkpt>
      <trkpt lat="59.6136003" lon="17.9521754">
        <ele>44.4</ele>
        <time>2012-07-12T10:56:43Z</time>
      </trkpt>
      <trkpt lat="59.6137199" lon="17.9527167">
        <ele>42.2</ele>
        <time>2012-07-12T10:56:47Z</time>
      </trkpt>
      <trkpt lat="59.6137409" lon="17.952866">
        <ele>42.6</ele>
        <time>2012-07-12T10:56:48Z</time>
      </trkpt>
      <trkpt lat="59.6137671" lon="17.953372">
        <ele>41.2</ele>
        <time>2012-07-12T10:56:51Z</time>
      </trkpt>
      <trkpt lat="59.6137385" lon="17.9537352">
        <ele>41.6</ele>
        <time>2012-07-12T10:56:53Z</time>
      </trkpt>
      <trkpt lat="59.6135734" lon="17.9544032">
        <ele>39</ele>
        <time>2012-07-12T10:56:57Z</time>
      </trkpt>
      <trkpt lat="59.6134565" lon="17.9546942">
        <ele>37.8</ele>
        <time>2012-07-12T10:56:59Z</time>
      </trkpt>
      <trkpt lat="59.6133344" lon="17.9549889">
        <ele>37.2</ele>
        <time>2012-07-12T10:57:01Z</time>
      </trkpt>
      <trkpt lat="59.6131186" lon="17.9556328">
        <ele>36.2</ele>
        <time>2012-07-12T10:57:05Z</time>
      </trkpt>
      <trkpt lat="59.6129641" lon="17.9563024">
        <ele>35.8</ele>
        <time>2012-07-12T10:57:09Z</time>
      </trkpt>
      <trkpt lat="59.6128427" lon="17.9570014">
        <ele>34.8</ele>
        <time>2012-07-12T10:57:13Z</time>
      </trkpt>
      <trkpt lat="59.6127064" lon="17.9577619">
        <ele>31.6</ele>
        <time>2012-07-12T10:57:17Z</time>
      </trkpt>
      <trkpt lat="59.6125549" lon="17.9586093">
        <ele>28.4</ele>
        <time>2012-07-12T10:57:21Z</time>
      </trkpt>
      <trkpt lat="59.6123631" lon="17.95944">
        <ele>26.2</ele>
        <time>2012-07-12T10:57:25Z</time>
      </trkpt>
      <trkpt lat="59.6121564" lon="17.9602171">
        <ele>25</ele>
        <time>2012-07-12T10:57:29Z</time>
      </trkpt>
      <trkpt lat="59.6119617" lon="17.9610175">
        <ele>24.2</ele>
        <time>2012-07-12T10:57:33Z</time>
      </trkpt>
      <trkpt lat="59.6117872" lon="17.9618043">
        <ele>24</ele>
        <time>2012-07-12T10:57:37Z</time>
      </trkpt>
      <trkpt lat="59.6116241" lon="17.9625575">
        <ele>23.8</ele>
        <time>2012-07-12T10:57:41Z</time>
      </trkpt>
      <trkpt lat="59.611466" lon="17.9632822">
        <ele>23.8</ele>
        <time>2012-07-12T10:57:45Z</time>
      </trkpt>
      <trkpt lat="59.6113104" lon="17.963992">
        <ele>23.8</ele>
        <time>2012-07-12T10:57:49Z</time>
      </trkpt>
      <trkpt lat="59.6111639" lon="17.9646576">
        <ele>24.4</ele>
        <time>2012-07-12T10:57:53Z</time>
      </trkpt>
      <trkpt lat="59.6110164" lon="17.9653186">
        <ele>25.2</ele>
        <time>2012-07-12T10:57:57Z</time>
      </trkpt>
      <trkpt lat="59.6108566" lon="17.9661299">
        <ele>26.2</ele>
        <time>2012-07-12T10:58:02Z</time>
      </trkpt>
      <trkpt lat="59.6108111" lon="17.966453">
        <ele>26.6</ele>
        <time>2012-07-12T10:58:04Z</time>
      </trkpt>
      <trkpt lat="59.6108069" lon="17.9669392">
        <ele>26.6</ele>
        <time>2012-07-12T10:58:07Z</time>
      </trkpt>
      <trkpt lat="59.6108222" lon="17.9675724">
        <ele>26.6</ele>
        <time>2012-07-12T10:58:11Z</time>
      </trkpt>
      <trkpt lat="59.6108085" lon="17.9677136">
        <ele>27</ele>
        <time>2012-07-12T10:58:12Z</time>
      </trkpt>
      <trkpt lat="59.6106475" lon="17.9681988">
        <ele>28</ele>
        <time>2012-07-12T10:58:16Z</time>
      </trkpt>
      <trkpt lat="59.6105976" lon="17.9683086">
        <ele>28</ele>
        <time>2012-07-12T10:58:17Z</time>
      </trkpt>
      <trkpt lat="59.6103854" lon="17.9688932">
        <ele>29.4</ele>
        <time>2012-07-12T10:58:22Z</time>
      </trkpt>
      <trkpt lat="59.6102165" lon="17.9695284">
        <ele>31.6</ele>
        <time>2012-07-12T10:58:27Z</time>
      </trkpt>
      <trkpt lat="59.6101131" lon="17.9702417">
        <ele>31.2</ele>
        <time>2012-07-12T10:58:32Z</time>
      </trkpt>
      <trkpt lat="59.610085" lon="17.9710078">
        <ele>30.8</ele>
        <time>2012-07-12T10:58:37Z</time>
      </trkpt>
      <trkpt lat="59.6100839" lon="17.9717189">
        <ele>30.6</ele>
        <time>2012-07-12T10:58:42Z</time>
      </trkpt>
      <trkpt lat="59.6101136" lon="17.9725288">
        <ele>30.2</ele>
        <time>2012-07-12T10:58:47Z</time>
      </trkpt>
      <trkpt lat="59.6100863" lon="17.9732027">
        <ele>29.8</ele>
        <time>2012-07-12T10:58:51Z</time>
      </trkpt>
      <trkpt lat="59.610062" lon="17.9733669">
        <ele>29.6</ele>
        <time>2012-07-12T10:58:52Z</time>
      </trkpt>
      <trkpt lat="59.6099617" lon="17.9741685">
        <ele>29.8</ele>
        <time>2012-07-12T10:58:57Z</time>
      </trkpt>
      <trkpt lat="59.6099866" lon="17.9749214">
        <ele>30.4</ele>
        <time>2012-07-12T10:59:02Z</time>
      </trkpt>
      <trkpt lat="59.610056" lon="17.975743">
        <ele>30.4</ele>
        <time>2012-07-12T10:59:08Z</time>
      </trkpt>
      <trkpt lat="59.6100968" lon="17.9764204">
        <ele>29.4</ele>
        <time>2012-07-12T10:59:13Z</time>
      </trkpt>
      <trkpt lat="59.6100675" lon="17.9765507">
        <ele>29.4</ele>
        <time>2012-07-12T10:59:14Z</time>
      </trkpt>
      <trkpt lat="59.6097444" lon="17.9766479">
        <ele>27.8</ele>
        <time>2012-07-12T10:59:18Z</time>
      </trkpt>
      <trkpt lat="59.6096483" lon="17.9766436">
        <ele>27.2</ele>
        <time>2012-07-12T10:59:19Z</time>
      </trkpt>
      <trkpt lat="59.6093519" lon="17.9766457">
        <ele>26.6</ele>
        <time>2012-07-12T10:59:22Z</time>
      </trkpt>
      <trkpt lat="59.6092547" lon="17.9766925">
        <ele>25.8</ele>
        <time>2012-07-12T10:59:23Z</time>
      </trkpt>
      <trkpt lat="59.6091085" lon="17.9769145">
        <ele>25.4</ele>
        <time>2012-07-12T10:59:26Z</time>
      </trkpt>
      <trkpt lat="59.6090126" lon="17.9772261">
        <ele>25</ele>
        <time>2012-07-12T10:59:27Z</time>
      </trkpt>
      <trkpt lat="59.6088821" lon="17.9778998">
        <ele>25</ele>
        <time>2012-07-12T10:59:31Z</time>
      </trkpt>
      <trkpt lat="59.6088165" lon="17.978605">
        <ele>24.6</ele>
        <time>2012-07-12T10:59:35Z</time>
      </trkpt>
      <trkpt lat="59.6088428" lon="17.9794789">
        <ele>24.2</ele>
        <time>2012-07-12T10:59:40Z</time>
      </trkpt>
      <trkpt lat="59.6088635" lon="17.9796421">
        <ele>24.4</ele>
        <time>2012-07-12T10:59:41Z</time>
      </trkpt>
      <trkpt lat="59.6090785" lon="17.9801367">
        <ele>25</ele>
        <time>2012-07-12T10:59:45Z</time>
      </trkpt>
      <trkpt lat="59.6092948" lon="17.9806381">
        <ele>24.8</ele>
        <time>2012-07-12T10:59:49Z</time>
      </trkpt>
      <trkpt lat="59.6093642" lon="17.9807307">
        <ele>24.8</ele>
        <time>2012-07-12T10:59:50Z</time>
      </trkpt>
      <trkpt lat="59.6096908" lon="17.9808384">
        <ele>25.2</ele>
        <time>2012-07-12T10:59:54Z</time>
      </trkpt>
      <trkpt lat="59.6097733" lon="17.9808543">
        <ele>25.2</ele>
        <time>2012-07-12T10:59:55Z</time>
      </trkpt>
      <trkpt lat="59.6098549" lon="17.9808854">
        <ele>25.2</ele>
        <time>2012-07-12T10:59:56Z</time>
      </trkpt>
      <trkpt lat="59.6101221" lon="17.981234">
        <ele>25</ele>
        <time>2012-07-12T11:00:00Z</time>
      </trkpt>
      <trkpt lat="59.6102419" lon="17.9817996">
        <ele>25.2</ele>
        <time>2012-07-12T11:00:04Z</time>
      </trkpt>
      <trkpt lat="59.6102632" lon="17.9819456">
        <ele>25.2</ele>
        <time>2012-07-12T11:00:05Z</time>
      </trkpt>
      <trkpt lat="59.6103627" lon="17.9826284">
        <ele>25.4</ele>
        <time>2012-07-12T11:00:10Z</time>
      </trkpt>
      <trkpt lat="59.610451" lon="17.9833106">
        <ele>25.8</ele>
        <time>2012-07-12T11:00:15Z</time>
      </trkpt>
      <trkpt lat="59.6104914" lon="17.9835819">
        <ele>26.2</ele>
        <time>2012-07-12T11:00:17Z</time>
      </trkpt>
      <trkpt lat="59.6106299" lon="17.9838974">
        <ele>26.6</ele>
        <time>2012-07-12T11:00:20Z</time>
      </trkpt>
      <trkpt lat="59.6109015" lon="17.9840746">
        <ele>27.2</ele>
        <time>2012-07-12T11:00:24Z</time>
      </trkpt>
      <trkpt lat="59.6109713" lon="17.9841006">
        <ele>27.2</ele>
        <time>2012-07-12T11:00:25Z</time>
      </trkpt>
      <trkpt lat="59.6111612" lon="17.9842053">
        <ele>27.2</ele>
        <time>2012-07-12T11:00:28Z</time>
      </trkpt>
      <trkpt lat="59.6113287" lon="17.9843875">
        <ele>28</ele>
        <time>2012-07-12T11:00:31Z</time>
      </trkpt>
      <trkpt lat="59.6114603" lon="17.9846445">
        <ele>28.4</ele>
        <time>2012-07-12T11:00:34Z</time>
      </trkpt>
      <trkpt lat="59.6115876" lon="17.984915">
        <ele>29</ele>
        <time>2012-07-12T11:00:37Z</time>
      </trkpt>
      <trkpt lat="59.6117411" lon="17.9852877">
        <ele>30.6</ele>
        <time>2012-07-12T11:00:41Z</time>
      </trkpt>
      <trkpt lat="59.6117887" lon="17.9855049">
        <ele>31</ele>
        <time>2012-07-12T11:00:43Z</time>
      </trkpt>
      <trkpt lat="59.6118166" lon="17.9858745">
        <ele>30.8</ele>
        <time>2012-07-12T11:00:46Z</time>
      </trkpt>
      <trkpt lat="59.6118339" lon="17.9862713">
        <ele>30.4</ele>
        <time>2012-07-12T11:00:49Z</time>
      </trkpt>
      <trkpt lat="59.6118658" lon="17.9871142">
        <ele>30.4</ele>
        <time>2012-07-12T11:00:55Z</time>
      </trkpt>
      <trkpt lat="59.6119054" lon="17.9879234">
        <ele>31.2</ele>
        <time>2012-07-12T11:01:01Z</time>
      </trkpt>
      <trkpt lat="59.6119067" lon="17.9882061">
        <ele>31.6</ele>
        <time>2012-07-12T11:01:03Z</time>
      </trkpt>
      <trkpt lat="59.6118533" lon="17.9885922">
        <ele>32.2</ele>
        <time>2012-07-12T11:01:06Z</time>
      </trkpt>
      <trkpt lat="59.6117811" lon="17.9888238">
        <ele>32</ele>
        <time>2012-07-12T11:01:08Z</time>
      </trkpt>
      <trkpt lat="59.611708" lon="17.9890693">
        <ele>31.8</ele>
        <time>2012-07-12T11:01:10Z</time>
      </trkpt>
      <trkpt lat="59.611654" lon="17.9893402">
        <ele>31.6</ele>
        <time>2012-07-12T11:01:12Z</time>
      </trkpt>
      <trkpt lat="59.6115753" lon="17.990064">
        <ele>31</ele>
        <time>2012-07-12T11:01:17Z</time>
      </trkpt>
      <trkpt lat="59.6115003" lon="17.9908746">
        <ele>31.8</ele>
        <time>2012-07-12T11:01:23Z</time>
      </trkpt>
      <trkpt lat="59.6114251" lon="17.9913304">
        <ele>31.6</ele>
        <time>2012-07-12T11:01:27Z</time>
      </trkpt>
      <trkpt lat="59.6113469" lon="17.9915454">
        <ele>31.4</ele>
        <time>2012-07-12T11:01:29Z</time>
      </trkpt>
      <trkpt lat="59.6109756" lon="17.991631">
        <ele>26.8</ele>
        <time>2012-07-12T11:01:34Z</time>
      </trkpt>
      <trkpt lat="59.6109036" lon="17.9916304">
        <ele>26</ele>
        <time>2012-07-12T11:01:35Z</time>
      </trkpt>
      <trkpt lat="59.6106043" lon="17.9917919">
        <ele>23.8</ele>
        <time>2012-07-12T11:01:39Z</time>
      </trkpt>
      <trkpt lat="59.6104573" lon="17.9919654">
        <ele>23.2</ele>
        <time>2012-07-12T11:01:41Z</time>
      </trkpt>
      <trkpt lat="59.6102476" lon="17.9922318">
        <ele>22.8</ele>
        <time>2012-07-12T11:01:44Z</time>
      </trkpt>
      <trkpt lat="59.6100595" lon="17.9925108">
        <ele>23</ele>
        <time>2012-07-12T11:01:47Z</time>
      </trkpt>
      <trkpt lat="59.6099668" lon="17.9927466">
        <ele>23.2</ele>
        <time>2012-07-12T11:01:49Z</time>
      </trkpt>
      <trkpt lat="59.6099176" lon="17.9933829">
        <ele>22.4</ele>
        <time>2012-07-12T11:01:53Z</time>
      </trkpt>
      <trkpt lat="59.6099145" lon="17.9935575">
        <ele>22.2</ele>
        <time>2012-07-12T11:01:54Z</time>
      </trkpt>
      <trkpt lat="59.6099025" lon="17.994267">
        <ele>21.8</ele>
        <time>2012-07-12T11:01:58Z</time>
      </trkpt>
      <trkpt lat="59.6098422" lon="17.995028">
        <ele>24.4</ele>
        <time>2012-07-12T11:02:03Z</time>
      </trkpt>
      <trkpt lat="59.609819" lon="17.9951487">
        <ele>24.8</ele>
        <time>2012-07-12T11:02:04Z</time>
      </trkpt>
      <trkpt lat="59.6097101" lon="17.9955222">
        <ele>26</ele>
        <time>2012-07-12T11:02:08Z</time>
      </trkpt>
      <trkpt lat="59.6096636" lon="17.9956763">
        <ele>27.2</ele>
        <time>2012-07-12T11:02:10Z</time>
      </trkpt>
      <trkpt lat="59.6095182" lon="17.9961959">
        <ele>26.8</ele>
        <time>2012-07-12T11:02:15Z</time>
      </trkpt>
      <trkpt lat="59.6094783" lon="17.9963044">
        <ele>26.8</ele>
        <time>2012-07-12T11:02:16Z</time>
      </trkpt>
      <trkpt lat="59.6092936" lon="17.9966933">
        <ele>27</ele>
        <time>2012-07-12T11:02:20Z</time>
      </trkpt>
      <trkpt lat="59.6091869" lon="17.9968778">
        <ele>27.4</ele>
        <time>2012-07-12T11:02:22Z</time>
      </trkpt>
      <trkpt lat="59.6088749" lon="17.9974363">
        <ele>28.6</ele>
        <time>2012-07-12T11:02:28Z</time>
      </trkpt>
      <trkpt lat="59.6087454" lon="17.9977447">
        <ele>29.4</ele>
        <time>2012-07-12T11:02:31Z</time>
      </trkpt>
      <trkpt lat="59.6086987" lon="17.9981158">
        <ele>30.8</ele>
        <time>2012-07-12T11:02:34Z</time>
      </trkpt>
      <trkpt lat="59.6087183" lon="17.9983705">
        <ele>31.2</ele>
        <time>2012-07-12T11:02:36Z</time>
      </trkpt>
      <trkpt lat="59.6087448" lon="17.9987571">
        <ele>31</ele>
        <time>2012-07-12T11:02:39Z</time>
      </trkpt>
      <trkpt lat="59.6087371" lon="17.9988878">
        <ele>31</ele>
        <time>2012-07-12T11:02:40Z</time>
      </trkpt>
      <trkpt lat="59.6086961" lon="17.9992731">
        <ele>31</ele>
        <time>2012-07-12T11:02:43Z</time>
      </trkpt>
      <trkpt lat="59.6086386" lon="17.9996523">
        <ele>30.6</ele>
        <time>2012-07-12T11:02:46Z</time>
      </trkpt>
      <trkpt lat="59.608625" lon="18.0004745">
        <ele>30</ele>
        <time>2012-07-12T11:02:52Z</time>
      </trkpt>
      <trkpt lat="59.6087222" lon="18.0012271">
        <ele>30.2</ele>
        <time>2012-07-12T11:02:58Z</time>
      </trkpt>
      <trkpt lat="59.6087797" lon="18.0015912">
        <ele>29.8</ele>
        <time>2012-07-12T11:03:01Z</time>
      </trkpt>
      <trkpt lat="59.6088056" lon="18.0020054">
        <ele>28.6</ele>
        <time>2012-07-12T11:03:04Z</time>
      </trkpt>
      <trkpt lat="59.6088018" lon="18.0023043">
        <ele>28.2</ele>
        <time>2012-07-12T11:03:06Z</time>
      </trkpt>
      <trkpt lat="59.6087533" lon="18.0027788">
        <ele>27.4</ele>
        <time>2012-07-12T11:03:09Z</time>
      </trkpt>
      <trkpt lat="59.6086584" lon="18.0035648">
        <ele>26.2</ele>
        <time>2012-07-12T11:03:14Z</time>
      </trkpt>
      <trkpt lat="59.6085085" lon="18.0042543">
        <ele>26.2</ele>
        <time>2012-07-12T11:03:19Z</time>
      </trkpt>
      <trkpt lat="59.6081474" lon="18.00477">
        <ele>26.8</ele>
        <time>2012-07-12T11:03:24Z</time>
      </trkpt>
      <trkpt lat="59.6079286" lon="18.0050368">
        <ele>27.6</ele>
        <time>2012-07-12T11:03:27Z</time>
      </trkpt>
      <trkpt lat="59.6078129" lon="18.0052407">
        <ele>28.4</ele>
        <time>2012-07-12T11:03:29Z</time>
      </trkpt>
      <trkpt lat="59.6077663" lon="18.0053507">
        <ele>28.6</ele>
        <time>2012-07-12T11:03:30Z</time>
      </trkpt>
      <trkpt lat="59.6076136" lon="18.005941">
        <ele>33</ele>
        <time>2012-07-12T11:03:35Z</time>
      </trkpt>
      <trkpt lat="59.607496" lon="18.0066749">
        <ele>37</ele>
        <time>2012-07-12T11:03:41Z</time>
      </trkpt>
      <trkpt lat="59.6074425" lon="18.006899">
        <ele>37</ele>
        <time>2012-07-12T11:03:43Z</time>
      </trkpt>
      <trkpt lat="59.6072587" lon="18.0072153">
        <ele>35.6</ele>
        <time>2012-07-12T11:03:47Z</time>
      </trkpt>
      <trkpt lat="59.6070425" lon="18.0073458">
        <ele>35.6</ele>
        <time>2012-07-12T11:03:50Z</time>
      </trkpt>
      <trkpt lat="59.6069639" lon="18.0073834">
        <ele>35.8</ele>
        <time>2012-07-12T11:03:51Z</time>
      </trkpt>
      <trkpt lat="59.6068576" lon="18.007426">
        <ele>35.6</ele>
        <time>2012-07-12T11:03:52Z</time>
      </trkpt>
      <trkpt lat="59.6066598" lon="18.0075127">
        <ele>34.6</ele>
        <time>2012-07-12T11:03:54Z</time>
      </trkpt>
      <trkpt lat="59.6065075" lon="18.0076384">
        <ele>34.2</ele>
        <time>2012-07-12T11:03:56Z</time>
      </trkpt>
      <trkpt lat="59.6062619" lon="18.0082864">
        <ele>35.8</ele>
        <time>2012-07-12T11:04:01Z</time>
      </trkpt>
      <trkpt lat="59.6061837" lon="18.008677">
        <ele>36</ele>
        <time>2012-07-12T11:04:04Z</time>
      </trkpt>
      <trkpt lat="59.6061451" lon="18.0089679">
        <ele>35.2</ele>
        <time>2012-07-12T11:04:06Z</time>
      </trkpt>
      <trkpt lat="59.6060775" lon="18.0097477">
        <ele>34.4</ele>
        <time>2012-07-12T11:04:11Z</time>
      </trkpt>
      <trkpt lat="59.6059652" lon="18.0105056">
        <ele>34.6</ele>
        <time>2012-07-12T11:04:16Z</time>
      </trkpt>
      <trkpt lat="59.6059316" lon="18.0108029">
        <ele>34.6</ele>
        <time>2012-07-12T11:04:18Z</time>
      </trkpt>
      <trkpt lat="59.6059497" lon="18.0112535">
        <ele>34.2</ele>
        <time>2012-07-12T11:04:21Z</time>
      </trkpt>
      <trkpt lat="59.6060405" lon="18.0120233">
        <ele>34.8</ele>
        <time>2012-07-12T11:04:26Z</time>
      </trkpt>
      <trkpt lat="59.6061203" lon="18.012821">
        <ele>33.4</ele>
        <time>2012-07-12T11:04:31Z</time>
      </trkpt>
      <trkpt lat="59.6062175" lon="18.0136038">
        <ele>33.6</ele>
        <time>2012-07-12T11:04:36Z</time>
      </trkpt>
      <trkpt lat="59.6063867" lon="18.0143316">
        <ele>35.2</ele>
        <time>2012-07-12T11:04:41Z</time>
      </trkpt>
      <trkpt lat="59.6064655" lon="18.0148062">
        <ele>35.2</ele>
        <time>2012-07-12T11:04:44Z</time>
      </trkpt>
      <trkpt lat="59.606511" lon="18.0151507">
        <ele>34.8</ele>
        <time>2012-07-12T11:04:46Z</time>
      </trkpt>
      <trkpt lat="59.6066195" lon="18.0159512">
        <ele>36.4</ele>
        <time>2012-07-12T11:04:51Z</time>
      </trkpt>
      <trkpt lat="59.606707" lon="18.0167707">
        <ele>36.2</ele>
        <time>2012-07-12T11:04:56Z</time>
      </trkpt>
      <trkpt lat="59.6066916" lon="18.0175828">
        <ele>36</ele>
        <time>2012-07-12T11:05:01Z</time>
      </trkpt>
      <trkpt lat="59.6067361" lon="18.0181939">
        <ele>35.6</ele>
        <time>2012-07-12T11:05:05Z</time>
      </trkpt>
      <trkpt lat="59.6067495" lon="18.0183926">
        <ele>34</ele>
        <time>2012-07-12T11:05:06Z</time>
      </trkpt>
      <trkpt lat="59.6069753" lon="18.0188315">
        <ele>31.8</ele>
        <time>2012-07-12T11:05:10Z</time>
      </trkpt>
      <trkpt lat="59.6070453" lon="18.0189114">
        <ele>31.6</ele>
        <time>2012-07-12T11:05:11Z</time>
      </trkpt>
      <trkpt lat="59.6073877" lon="18.0193133">
        <ele>29</ele>
        <time>2012-07-12T11:05:16Z</time>
      </trkpt>
      <trkpt lat="59.6076719" lon="18.0197485">
        <ele>29</ele>
        <time>2012-07-12T11:05:21Z</time>
      </trkpt>
      <trkpt lat="59.6077156" lon="18.0198499">
        <ele>29.2</ele>
        <time>2012-07-12T11:05:22Z</time>
      </trkpt>
      <trkpt lat="59.6078193" lon="18.0202885">
        <ele>30</ele>
        <time>2012-07-12T11:05:26Z</time>
      </trkpt>
      <trkpt lat="59.6078384" lon="18.0204097">
        <ele>30.2</ele>
        <time>2012-07-12T11:05:27Z</time>
      </trkpt>
      <trkpt lat="59.6078612" lon="18.02054">
        <ele>29.6</ele>
        <time>2012-07-12T11:05:28Z</time>
      </trkpt>
      <trkpt lat="59.6079663" lon="18.0211461">
        <ele>29.4</ele>
        <time>2012-07-12T11:05:33Z</time>
      </trkpt>
      <trkpt lat="59.6080253" lon="18.0216459">
        <ele>30.4</ele>
        <time>2012-07-12T11:05:37Z</time>
      </trkpt>
      <trkpt lat="59.6080382" lon="18.0219154">
        <ele>29.8</ele>
        <time>2012-07-12T11:05:39Z</time>
      </trkpt>
      <trkpt lat="59.6080127" lon="18.0227142">
        <ele>27.4</ele>
        <time>2012-07-12T11:05:44Z</time>
      </trkpt>
      <trkpt lat="59.6079892" lon="18.0232316">
        <ele>27.8</ele>
        <time>2012-07-12T11:05:47Z</time>
      </trkpt>
      <trkpt lat="59.6080026" lon="18.0235632">
        <ele>28</ele>
        <time>2012-07-12T11:05:49Z</time>
      </trkpt>
      <trkpt lat="59.6080114" lon="18.0242259">
        <ele>28</ele>
        <time>2012-07-12T11:05:53Z</time>
      </trkpt>
      <trkpt lat="59.6079907" lon="18.0243884">
        <ele>28.6</ele>
        <time>2012-07-12T11:05:54Z</time>
      </trkpt>
      <trkpt lat="59.6078768" lon="18.0247761">
        <ele>30.4</ele>
        <time>2012-07-12T11:05:57Z</time>
      </trkpt>
      <trkpt lat="59.6078089" lon="18.0249752">
        <ele>31.4</ele>
        <time>2012-07-12T11:05:59Z</time>
      </trkpt>
      <trkpt lat="59.6077706" lon="18.0250622">
        <ele>32</ele>
        <time>2012-07-12T11:06:00Z</time>
      </trkpt>
      <trkpt lat="59.6075311" lon="18.0255222">
        <ele>34.8</ele>
        <time>2012-07-12T11:06:06Z</time>
      </trkpt>
      <trkpt lat="59.6074581" lon="18.0256639">
        <ele>35</ele>
        <time>2012-07-12T11:06:08Z</time>
      </trkpt>
      <trkpt lat="59.6072575" lon="18.0261101">
        <ele>33</ele>
        <time>2012-07-12T11:06:13Z</time>
      </trkpt>
      <trkpt lat="59.6071359" lon="18.0263873">
        <ele>33.6</ele>
        <time>2012-07-12T11:06:16Z</time>
      </trkpt>
      <trkpt lat="59.6070798" lon="18.02674">
        <ele>33.6</ele>
        <time>2012-07-12T11:06:19Z</time>
      </trkpt>
      <trkpt lat="59.6072252" lon="18.0274878">
        <ele>29</ele>
        <time>2012-07-12T11:06:24Z</time>
      </trkpt>
      <trkpt lat="59.607199" lon="18.0280781">
        <ele>26.2</ele>
        <time>2012-07-12T11:06:27Z</time>
      </trkpt>
      <trkpt lat="59.6071891" lon="18.0282816">
        <ele>25.4</ele>
        <time>2012-07-12T11:06:28Z</time>
      </trkpt>
      <trkpt lat="59.6071687" lon="18.0287028">
        <ele>24.4</ele>
        <time>2012-07-12T11:06:30Z</time>
      </trkpt>
      <trkpt lat="59.6070866" lon="18.029132">
        <ele>23</ele>
        <time>2012-07-12T11:06:32Z</time>
      </trkpt>
      <trkpt lat="59.6069505" lon="18.0295264">
        <ele>21.6</ele>
        <time>2012-07-12T11:06:34Z</time>
      </trkpt>
      <trkpt lat="59.6068784" lon="18.0297187">
        <ele>21</ele>
        <time>2012-07-12T11:06:35Z</time>
      </trkpt>
      <trkpt lat="59.6065848" lon="18.0304644">
        <ele>18.6</ele>
        <time>2012-07-12T11:06:39Z</time>
      </trkpt>
      <trkpt lat="59.6062964" lon="18.0311756">
        <ele>17.4</ele>
        <time>2012-07-12T11:06:43Z</time>
      </trkpt>
      <trkpt lat="59.6059765" lon="18.0317419">
        <ele>17.2</ele>
        <time>2012-07-12T11:06:47Z</time>
      </trkpt>
      <trkpt lat="59.6058114" lon="18.0319642">
        <ele>19</ele>
        <time>2012-07-12T11:06:49Z</time>
      </trkpt>
      <trkpt lat="59.6056348" lon="18.0320898">
        <ele>20</ele>
        <time>2012-07-12T11:06:51Z</time>
      </trkpt>
      <trkpt lat="59.6053147" lon="18.0320997">
        <ele>21.6</ele>
        <time>2012-07-12T11:06:55Z</time>
      </trkpt>
      <trkpt lat="59.6052455" lon="18.0320759">
        <ele>22.2</ele>
        <time>2012-07-12T11:06:56Z</time>
      </trkpt>
      <trkpt lat="59.6048889" lon="18.0318714">
        <ele>23.2</ele>
        <time>2012-07-12T11:07:02Z</time>
      </trkpt>
      <trkpt lat="59.6047738" lon="18.0318278">
        <ele>23.2</ele>
        <time>2012-07-12T11:07:04Z</time>
      </trkpt>
      <trkpt lat="59.6045426" lon="18.0320792">
        <ele>21.2</ele>
        <time>2012-07-12T11:07:08Z</time>
      </trkpt>
      <trkpt lat="59.6044241" lon="18.0325149">
        <ele>20.6</ele>
        <time>2012-07-12T11:07:11Z</time>
      </trkpt>
      <trkpt lat="59.6043522" lon="18.0328473">
        <ele>21</ele>
        <time>2012-07-12T11:07:13Z</time>
      </trkpt>
      <trkpt lat="59.6042087" lon="18.0335511">
        <ele>22</ele>
        <time>2012-07-12T11:07:17Z</time>
      </trkpt>
      <trkpt lat="59.604045" lon="18.0342347">
        <ele>22.2</ele>
        <time>2012-07-12T11:07:21Z</time>
      </trkpt>
      <trkpt lat="59.603858" lon="18.0350292">
        <ele>22.6</ele>
        <time>2012-07-12T11:07:26Z</time>
      </trkpt>
      <trkpt lat="59.6036819" lon="18.0357513">
        <ele>23.2</ele>
        <time>2012-07-12T11:07:31Z</time>
      </trkpt>
      <trkpt lat="59.60364" lon="18.0358788">
        <ele>23.4</ele>
        <time>2012-07-12T11:07:32Z</time>
      </trkpt>
      <trkpt lat="59.6034023" lon="18.0362277">
        <ele>25.4</ele>
        <time>2012-07-12T11:07:36Z</time>
      </trkpt>
      <trkpt lat="59.6033358" lon="18.0362744">
        <ele>25.6</ele>
        <time>2012-07-12T11:07:37Z</time>
      </trkpt>
      <trkpt lat="59.6030763" lon="18.0364382">
        <ele>26.2</ele>
        <time>2012-07-12T11:07:41Z</time>
      </trkpt>
      <trkpt lat="59.6029033" lon="18.0365886">
        <ele>26.8</ele>
        <time>2012-07-12T11:07:44Z</time>
      </trkpt>
      <trkpt lat="59.602767" lon="18.0367742">
        <ele>27.2</ele>
        <time>2012-07-12T11:07:47Z</time>
      </trkpt>
      <trkpt lat="59.6027283" lon="18.0368437">
        <ele>27.4</ele>
        <time>2012-07-12T11:07:48Z</time>
      </trkpt>
      <trkpt lat="59.6025591" lon="18.0373116">
        <ele>31</ele>
        <time>2012-07-12T11:07:54Z</time>
      </trkpt>
      <trkpt lat="59.6025002" lon="18.0374634">
        <ele>32</ele>
        <time>2012-07-12T11:07:56Z</time>
      </trkpt>
      <trkpt lat="59.6022977" lon="18.0376198">
        <ele>32.8</ele>
        <time>2012-07-12T11:08:01Z</time>
      </trkpt>
      <trkpt lat="59.6022473" lon="18.0376396">
        <ele>33</ele>
        <time>2012-07-12T11:08:02Z</time>
      </trkpt>
      <trkpt lat="59.602002" lon="18.0378176">
        <ele>32.2</ele>
        <time>2012-07-12T11:08:07Z</time>
      </trkpt>
      <trkpt lat="59.6019565" lon="18.0378773">
        <ele>32</ele>
        <time>2012-07-12T11:08:08Z</time>
      </trkpt>
      <trkpt lat="59.6017346" lon="18.0384295">
        <ele>30.6</ele>
        <time>2012-07-12T11:08:14Z</time>
      </trkpt>
      <trkpt lat="59.6017046" lon="18.0385449">
        <ele>30.8</ele>
        <time>2012-07-12T11:08:15Z</time>
      </trkpt>
      <trkpt lat="59.6015141" lon="18.0390729">
        <ele>31.2</ele>
        <time>2012-07-12T11:08:20Z</time>
      </trkpt>
      <trkpt lat="59.6014663" lon="18.0391645">
        <ele>31</ele>
        <time>2012-07-12T11:08:21Z</time>
      </trkpt>
      <trkpt lat="59.6011455" lon="18.039694">
        <ele>26.4</ele>
        <time>2012-07-12T11:08:27Z</time>
      </trkpt>
      <trkpt lat="59.6010842" lon="18.0397519">
        <ele>26.4</ele>
        <time>2012-07-12T11:08:28Z</time>
      </trkpt>
      <trkpt lat="59.6007974" lon="18.0398821">
        <ele>25.4</ele>
        <time>2012-07-12T11:08:33Z</time>
      </trkpt>
      <trkpt lat="59.6003623" lon="18.0398078">
        <ele>23.8</ele>
        <time>2012-07-12T11:08:39Z</time>
      </trkpt>
      <trkpt lat="59.5999632" lon="18.0396654">
        <ele>22.8</ele>
        <time>2012-07-12T11:08:44Z</time>
      </trkpt>
      <trkpt lat="59.5995533" lon="18.0396039">
        <ele>21.4</ele>
        <time>2012-07-12T11:08:49Z</time>
      </trkpt>
      <trkpt lat="59.5993948" lon="18.0396255">
        <ele>21.4</ele>
        <time>2012-07-12T11:08:51Z</time>
      </trkpt>
      <trkpt lat="59.5991897" lon="18.0397961">
        <ele>21.8</ele>
        <time>2012-07-12T11:08:54Z</time>
      </trkpt>
      <trkpt lat="59.5990715" lon="18.0399476">
        <ele>22</ele>
        <time>2012-07-12T11:08:56Z</time>
      </trkpt>
      <trkpt lat="59.5988417" lon="18.0402077">
        <ele>23.2</ele>
        <time>2012-07-12T11:09:00Z</time>
      </trkpt>
      <trkpt lat="59.5985355" lon="18.0405513">
        <ele>25.6</ele>
        <time>2012-07-12T11:09:06Z</time>
      </trkpt>
      <trkpt lat="59.5983811" lon="18.0407593">
        <ele>26</ele>
        <time>2012-07-12T11:09:09Z</time>
      </trkpt>
      <trkpt lat="59.598212" lon="18.0409217">
        <ele>26.4</ele>
        <time>2012-07-12T11:09:12Z</time>
      </trkpt>
      <trkpt lat="59.5981481" lon="18.0409696">
        <ele>26.8</ele>
        <time>2012-07-12T11:09:13Z</time>
      </trkpt>
      <trkpt lat="59.5980818" lon="18.041007">
        <ele>27.2</ele>
        <time>2012-07-12T11:09:14Z</time>
      </trkpt>
      <trkpt lat="59.597818" lon="18.0410992">
        <ele>27.8</ele>
        <time>2012-07-12T11:09:18Z</time>
      </trkpt>
      <trkpt lat="59.5975372" lon="18.041225">
        <ele>29</ele>
        <time>2012-07-12T11:09:23Z</time>
      </trkpt>
      <trkpt lat="59.5974353" lon="18.0413303">
        <ele>29.8</ele>
        <time>2012-07-12T11:09:25Z</time>
      </trkpt>
      <trkpt lat="59.5973835" lon="18.0413909">
        <ele>29.4</ele>
        <time>2012-07-12T11:09:26Z</time>
      </trkpt>
      <trkpt lat="59.5971468" lon="18.0417887">
        <ele>28.6</ele>
        <time>2012-07-12T11:09:31Z</time>
      </trkpt>
      <trkpt lat="59.5969105" lon="18.042003">
        <ele>29.2</ele>
        <time>2012-07-12T11:09:35Z</time>
      </trkpt>
      <trkpt lat="59.5967778" lon="18.042072">
        <ele>29</ele>
        <time>2012-07-12T11:09:37Z</time>
      </trkpt>
      <trkpt lat="59.5967131" lon="18.0421138">
        <ele>28.8</ele>
        <time>2012-07-12T11:09:38Z</time>
      </trkpt>
      <trkpt lat="59.5965296" lon="18.0422695">
        <ele>28.2</ele>
        <time>2012-07-12T11:09:41Z</time>
      </trkpt>
      <trkpt lat="59.5964069" lon="18.0422926">
        <ele>28.4</ele>
        <time>2012-07-12T11:09:43Z</time>
      </trkpt>
      <trkpt lat="59.5962456" lon="18.0419538">
        <ele>28.2</ele>
        <time>2012-07-12T11:09:47Z</time>
      </trkpt>
      <trkpt lat="59.5961894" lon="18.0417297">
        <ele>28</ele>
        <time>2012-07-12T11:09:49Z</time>
      </trkpt>
      <trkpt lat="59.5961589" lon="18.0416188">
        <ele>28</ele>
        <time>2012-07-12T11:09:50Z</time>
      </trkpt>
      <trkpt lat="59.5959038" lon="18.0412301">
        <ele>28</ele>
        <time>2012-07-12T11:09:55Z</time>
      </trkpt>
      <trkpt lat="59.5958329" lon="18.0411785">
        <ele>27.4</ele>
        <time>2012-07-12T11:09:56Z</time>
      </trkpt>
      <trkpt lat="59.595515" lon="18.0409371">
        <ele>25</ele>
        <time>2012-07-12T11:10:00Z</time>
      </trkpt>
      <trkpt lat="59.5951699" lon="18.0406336">
        <ele>22.8</ele>
        <time>2012-07-12T11:10:04Z</time>
      </trkpt>
      <trkpt lat="59.5947996" lon="18.0403652">
        <ele>20.8</ele>
        <time>2012-07-12T11:10:08Z</time>
      </trkpt>
      <trkpt lat="59.59444" lon="18.0401091">
        <ele>19.8</ele>
        <time>2012-07-12T11:10:12Z</time>
      </trkpt>
      <trkpt lat="59.5941" lon="18.0398382">
        <ele>19.6</ele>
        <time>2012-07-12T11:10:16Z</time>
      </trkpt>
      <trkpt lat="59.5936921" lon="18.0395086">
        <ele>19</ele>
        <time>2012-07-12T11:10:21Z</time>
      </trkpt>
      <trkpt lat="59.59329" lon="18.0392651">
        <ele>18.8</ele>
        <time>2012-07-12T11:10:26Z</time>
      </trkpt>
      <trkpt lat="59.5928964" lon="18.0390714">
        <ele>18.6</ele>
        <time>2012-07-12T11:10:31Z</time>
      </trkpt>
      <trkpt lat="59.592538" lon="18.0387698">
        <ele>18.6</ele>
        <time>2012-07-12T11:10:36Z</time>
      </trkpt>
      <trkpt lat="59.5923011" lon="18.038199">
        <ele>19</ele>
        <time>2012-07-12T11:10:41Z</time>
      </trkpt>
      <trkpt lat="59.5922142" lon="18.0379514">
        <ele>18.8</ele>
        <time>2012-07-12T11:10:43Z</time>
      </trkpt>
      <trkpt lat="59.5920318" lon="18.0376478">
        <ele>18.4</ele>
        <time>2012-07-12T11:10:46Z</time>
      </trkpt>
      <trkpt lat="59.5918055" lon="18.0374727">
        <ele>18.2</ele>
        <time>2012-07-12T11:10:49Z</time>
      </trkpt>
      <trkpt lat="59.5916522" lon="18.0373644">
        <ele>18.2</ele>
        <time>2012-07-12T11:10:51Z</time>
      </trkpt>
      <trkpt lat="59.5912929" lon="18.0371095">
        <ele>18.6</ele>
        <time>2012-07-12T11:10:56Z</time>
      </trkpt>
      <trkpt lat="59.5909398" lon="18.0369918">
        <ele>18.6</ele>
        <time>2012-07-12T11:11:01Z</time>
      </trkpt>
      <trkpt lat="59.5906411" lon="18.0369165">
        <ele>17.4</ele>
        <time>2012-07-12T11:11:05Z</time>
      </trkpt>
      <trkpt lat="59.5905684" lon="18.0368732">
        <ele>17.2</ele>
        <time>2012-07-12T11:11:06Z</time>
      </trkpt>
      <trkpt lat="59.5903479" lon="18.0365175">
        <ele>17.6</ele>
        <time>2012-07-12T11:11:10Z</time>
      </trkpt>
      <trkpt lat="59.5903039" lon="18.0364054">
        <ele>17.6</ele>
        <time>2012-07-12T11:11:11Z</time>
      </trkpt>
      <trkpt lat="59.590036" lon="18.0357683">
        <ele>18.6</ele>
        <time>2012-07-12T11:11:17Z</time>
      </trkpt>
      <trkpt lat="59.5897142" lon="18.0352621">
        <ele>20.2</ele>
        <time>2012-07-12T11:11:23Z</time>
      </trkpt>
      <trkpt lat="59.5894147" lon="18.0348624">
        <ele>21.2</ele>
        <time>2012-07-12T11:11:28Z</time>
      </trkpt>
      <trkpt lat="59.5891774" lon="18.0345805">
        <ele>21.6</ele>
        <time>2012-07-12T11:11:32Z</time>
      </trkpt>
      <trkpt lat="59.5890494" lon="18.0345148">
        <ele>21.8</ele>
        <time>2012-07-12T11:11:34Z</time>
      </trkpt>
      <trkpt lat="59.5887526" lon="18.0344686">
        <ele>23.2</ele>
        <time>2012-07-12T11:11:39Z</time>
      </trkpt>
      <trkpt lat="59.5886952" lon="18.0344469">
        <ele>23.6</ele>
        <time>2012-07-12T11:11:40Z</time>
      </trkpt>
      <trkpt lat="59.5884776" lon="18.0343344">
        <ele>24.4</ele>
        <time>2012-07-12T11:11:44Z</time>
      </trkpt>
      <trkpt lat="59.5883078" lon="18.0343153">
        <ele>24.6</ele>
        <time>2012-07-12T11:11:47Z</time>
      </trkpt>
      <trkpt lat="59.5881192" lon="18.0343154">
        <ele>24.6</ele>
        <time>2012-07-12T11:11:50Z</time>
      </trkpt>
      <trkpt lat="59.5879276" lon="18.034191">
        <ele>24.2</ele>
        <time>2012-07-12T11:11:53Z</time>
      </trkpt>
      <trkpt lat="59.587822" lon="18.0340461">
        <ele>24.6</ele>
        <time>2012-07-12T11:11:55Z</time>
      </trkpt>
      <trkpt lat="59.5876395" lon="18.0337213">
        <ele>25.4</ele>
        <time>2012-07-12T11:11:59Z</time>
      </trkpt>
      <trkpt lat="59.5874051" lon="18.0333414">
        <ele>25</ele>
        <time>2012-07-12T11:12:04Z</time>
      </trkpt>
      <trkpt lat="59.5873572" lon="18.0332845">
        <ele>25.2</ele>
        <time>2012-07-12T11:12:05Z</time>
      </trkpt>
      <trkpt lat="59.5872003" lon="18.0331212">
        <ele>25</ele>
        <time>2012-07-12T11:12:08Z</time>
      </trkpt>
      <trkpt lat="59.5870225" lon="18.0329977">
        <ele>24.6</ele>
        <time>2012-07-12T11:12:11Z</time>
      </trkpt>
      <trkpt lat="59.5866321" lon="18.0327246">
        <ele>23.2</ele>
        <time>2012-07-12T11:12:17Z</time>
      </trkpt>
      <trkpt lat="59.5863261" lon="18.0323962">
        <ele>22.6</ele>
        <time>2012-07-12T11:12:22Z</time>
      </trkpt>
      <trkpt lat="59.5862741" lon="18.0323091">
        <ele>22.6</ele>
        <time>2012-07-12T11:12:23Z</time>
      </trkpt>
      <trkpt lat="59.5860237" lon="18.0317303">
        <ele>24</ele>
        <time>2012-07-12T11:12:29Z</time>
      </trkpt>
      <trkpt lat="59.5859778" lon="18.0316376">
        <ele>23.4</ele>
        <time>2012-07-12T11:12:30Z</time>
      </trkpt>
      <trkpt lat="59.5857739" lon="18.0313538">
        <ele>24</ele>
        <time>2012-07-12T11:12:34Z</time>
      </trkpt>
      <trkpt lat="59.5857194" lon="18.0312953">
        <ele>24</ele>
        <time>2012-07-12T11:12:35Z</time>
      </trkpt>
      <trkpt lat="59.5854091" lon="18.030966">
        <ele>23.2</ele>
        <time>2012-07-12T11:12:41Z</time>
      </trkpt>
      <trkpt lat="59.5850739" lon="18.0305303">
        <ele>22.8</ele>
        <time>2012-07-12T11:12:48Z</time>
      </trkpt>
      <trkpt lat="59.5849685" lon="18.030404">
        <ele>23</ele>
        <time>2012-07-12T11:12:50Z</time>
      </trkpt>
      <trkpt lat="59.584733" lon="18.0302168">
        <ele>22.8</ele>
        <time>2012-07-12T11:12:54Z</time>
      </trkpt>
      <trkpt lat="59.5844193" lon="18.0300791">
        <ele>21.8</ele>
        <time>2012-07-12T11:12:59Z</time>
      </trkpt>
      <trkpt lat="59.5843497" lon="18.0300698">
        <ele>21</ele>
        <time>2012-07-12T11:13:00Z</time>
      </trkpt>
      <trkpt lat="59.5839741" lon="18.0301563">
        <ele>19.2</ele>
        <time>2012-07-12T11:13:05Z</time>
      </trkpt>
      <trkpt lat="59.5836711" lon="18.0302672">
        <ele>18.4</ele>
        <time>2012-07-12T11:13:09Z</time>
      </trkpt>
      <trkpt lat="59.5835958" lon="18.0302647">
        <ele>18.4</ele>
        <time>2012-07-12T11:13:10Z</time>
      </trkpt>
      <trkpt lat="59.5832415" lon="18.0299657">
        <ele>18</ele>
        <time>2012-07-12T11:13:15Z</time>
      </trkpt>
      <trkpt lat="59.5831355" lon="18.0297636">
        <ele>18.2</ele>
        <time>2012-07-12T11:13:17Z</time>
      </trkpt>
      <trkpt lat="59.5829812" lon="18.0294709">
        <ele>19.4</ele>
        <time>2012-07-12T11:13:20Z</time>
      </trkpt>
      <trkpt lat="59.5827848" lon="18.0292025">
        <ele>19.2</ele>
        <time>2012-07-12T11:13:23Z</time>
      </trkpt>
      <trkpt lat="59.5826381" lon="18.0290477">
        <ele>17.6</ele>
        <time>2012-07-12T11:13:25Z</time>
      </trkpt>
      <trkpt lat="59.5823419" lon="18.0287457">
        <ele>16</ele>
        <time>2012-07-12T11:13:29Z</time>
      </trkpt>
      <trkpt lat="59.5820071" lon="18.0284296">
        <ele>13.6</ele>
        <time>2012-07-12T11:13:33Z</time>
      </trkpt>
      <trkpt lat="59.5819229" lon="18.028332">
        <ele>13</ele>
        <time>2012-07-12T11:13:34Z</time>
      </trkpt>
      <trkpt lat="59.5817505" lon="18.0278888">
        <ele>12</ele>
        <time>2012-07-12T11:13:37Z</time>
      </trkpt>
      <trkpt lat="59.5816895" lon="18.0275495">
        <ele>11.8</ele>
        <time>2012-07-12T11:13:39Z</time>
      </trkpt>
      <trkpt lat="59.5816253" lon="18.0272025">
        <ele>10.6</ele>
        <time>2012-07-12T11:13:41Z</time>
      </trkpt>
      <trkpt lat="59.5814132" lon="18.0264313">
        <ele>10</ele>
        <time>2012-07-12T11:13:46Z</time>
      </trkpt>
      <trkpt lat="59.5811827" lon="18.0257505">
        <ele>10</ele>
        <time>2012-07-12T11:13:51Z</time>
      </trkpt>
      <trkpt lat="59.5809574" lon="18.0250984">
        <ele>10.2</ele>
        <time>2012-07-12T11:13:56Z</time>
      </trkpt>
      <trkpt lat="59.580729" lon="18.0244718">
        <ele>10.6</ele>
        <time>2012-07-12T11:14:01Z</time>
      </trkpt>
      <trkpt lat="59.5805209" lon="18.0238309">
        <ele>11.2</ele>
        <time>2012-07-12T11:14:06Z</time>
      </trkpt>
      <trkpt lat="59.5803875" lon="18.0231312">
        <ele>11.8</ele>
        <time>2012-07-12T11:14:11Z</time>
      </trkpt>
      <trkpt lat="59.5802885" lon="18.0224362">
        <ele>12.2</ele>
        <time>2012-07-12T11:14:16Z</time>
      </trkpt>
      <trkpt lat="59.580111" lon="18.0216792">
        <ele>12.2</ele>
        <time>2012-07-12T11:14:22Z</time>
      </trkpt>
      <trkpt lat="59.5799244" lon="18.0209545">
        <ele>11</ele>
        <time>2012-07-12T11:14:28Z</time>
      </trkpt>
      <trkpt lat="59.5797481" lon="18.0202661">
        <ele>12.2</ele>
        <time>2012-07-12T11:14:34Z</time>
      </trkpt>
      <trkpt lat="59.5795659" lon="18.0195438">
        <ele>13.4</ele>
        <time>2012-07-12T11:14:40Z</time>
      </trkpt>
      <trkpt lat="59.579366" lon="18.0188332">
        <ele>13.4</ele>
        <time>2012-07-12T11:14:46Z</time>
      </trkpt>
      <trkpt lat="59.5791748" lon="18.0182234">
        <ele>12.6</ele>
        <time>2012-07-12T11:14:51Z</time>
      </trkpt>
      <trkpt lat="59.5789738" lon="18.0175774">
        <ele>12.4</ele>
        <time>2012-07-12T11:14:56Z</time>
      </trkpt>
      <trkpt lat="59.5787818" lon="18.0169368">
        <ele>12</ele>
        <time>2012-07-12T11:15:01Z</time>
      </trkpt>
      <trkpt lat="59.5785998" lon="18.0162854">
        <ele>11.6</ele>
        <time>2012-07-12T11:15:06Z</time>
      </trkpt>
      <trkpt lat="59.5785133" lon="18.0158846">
        <ele>11.6</ele>
        <time>2012-07-12T11:15:09Z</time>
      </trkpt>
      <trkpt lat="59.5784844" lon="18.0156099">
        <ele>11.6</ele>
        <time>2012-07-12T11:15:11Z</time>
      </trkpt>
      <trkpt lat="59.5784072" lon="18.0147974">
        <ele>11.8</ele>
        <time>2012-07-12T11:15:17Z</time>
      </trkpt>
      <trkpt lat="59.5783038" lon="18.0140271">
        <ele>12</ele>
        <time>2012-07-12T11:15:23Z</time>
      </trkpt>
      <trkpt lat="59.5781334" lon="18.0133491">
        <ele>14.6</ele>
        <time>2012-07-12T11:15:29Z</time>
      </trkpt>
      <trkpt lat="59.5778067" lon="18.0128455">
        <ele>15.8</ele>
        <time>2012-07-12T11:15:35Z</time>
      </trkpt>
      <trkpt lat="59.5775777" lon="18.0125269">
        <ele>15.2</ele>
        <time>2012-07-12T11:15:39Z</time>
      </trkpt>
      <trkpt lat="59.5775279" lon="18.0124233">
        <ele>15</ele>
        <time>2012-07-12T11:15:40Z</time>
      </trkpt>
      <trkpt lat="59.5773469" lon="18.0117944">
        <ele>12.6</ele>
        <time>2012-07-12T11:15:45Z</time>
      </trkpt>
      <trkpt lat="59.5773218" lon="18.0116504">
        <ele>11.8</ele>
        <time>2012-07-12T11:15:46Z</time>
      </trkpt>
      <trkpt lat="59.5771927" lon="18.0110421">
        <ele>9</ele>
        <time>2012-07-12T11:15:50Z</time>
      </trkpt>
      <trkpt lat="59.5769855" lon="18.0103161">
        <ele>6.8</ele>
        <time>2012-07-12T11:15:55Z</time>
      </trkpt>
      <trkpt lat="59.576792" lon="18.009581">
        <ele>5.4</ele>
        <time>2012-07-12T11:16:00Z</time>
      </trkpt>
      <trkpt lat="59.576638" lon="18.0088818">
        <ele>5.2</ele>
        <time>2012-07-12T11:16:05Z</time>
      </trkpt>
      <trkpt lat="59.5764939" lon="18.0082305">
        <ele>5</ele>
        <time>2012-07-12T11:16:10Z</time>
      </trkpt>
      <trkpt lat="59.5763355" lon="18.0075935">
        <ele>5.2</ele>
        <time>2012-07-12T11:16:15Z</time>
      </trkpt>
      <trkpt lat="59.5761776" lon="18.0069654">
        <ele>5.4</ele>
        <time>2012-07-12T11:16:20Z</time>
      </trkpt>
      <trkpt lat="59.576023" lon="18.0063256">
        <ele>5.4</ele>
        <time>2012-07-12T11:16:25Z</time>
      </trkpt>
      <trkpt lat="59.5758759" lon="18.0056696">
        <ele>5.4</ele>
        <time>2012-07-12T11:16:30Z</time>
      </trkpt>
      <trkpt lat="59.5756773" lon="18.0049454">
        <ele>5.2</ele>
        <time>2012-07-12T11:16:36Z</time>
      </trkpt>
      <trkpt lat="59.5754275" lon="18.0043143">
        <ele>6.6</ele>
        <time>2012-07-12T11:16:42Z</time>
      </trkpt>
      <trkpt lat="59.5751706" lon="18.0037304">
        <ele>9</ele>
        <time>2012-07-12T11:16:48Z</time>
      </trkpt>
      <trkpt lat="59.5749306" lon="18.0031027">
        <ele>11</ele>
        <time>2012-07-12T11:16:54Z</time>
      </trkpt>
      <trkpt lat="59.574713" lon="18.0024338">
        <ele>12.8</ele>
        <time>2012-07-12T11:17:00Z</time>
      </trkpt>
      <trkpt lat="59.5744925" lon="18.0017455">
        <ele>11.4</ele>
        <time>2012-07-12T11:17:06Z</time>
      </trkpt>
      <trkpt lat="59.5742879" lon="18.0011508">
        <ele>10.8</ele>
        <time>2012-07-12T11:17:11Z</time>
      </trkpt>
      <trkpt lat="59.5740854" lon="18.0005084">
        <ele>9.8</ele>
        <time>2012-07-12T11:17:16Z</time>
      </trkpt>
      <trkpt lat="59.5738455" lon="17.9998575">
        <ele>8.4</ele>
        <time>2012-07-12T11:17:21Z</time>
      </trkpt>
      <trkpt lat="59.5735627" lon="17.999312">
        <ele>8.6</ele>
        <time>2012-07-12T11:17:26Z</time>
      </trkpt>
      <trkpt lat="59.5732714" lon="17.9987865">
        <ele>8.6</ele>
        <time>2012-07-12T11:17:31Z</time>
      </trkpt>
      <trkpt lat="59.5730059" lon="17.9982349">
        <ele>9</ele>
        <time>2012-07-12T11:17:36Z</time>
      </trkpt>
      <trkpt lat="59.5728342" lon="17.9976926">
        <ele>10.4</ele>
        <time>2012-07-12T11:17:41Z</time>
      </trkpt>
      <trkpt lat="59.5728156" lon="17.9975916">
        <ele>11</ele>
        <time>2012-07-12T11:17:42Z</time>
      </trkpt>
      <trkpt lat="59.5727888" lon="17.9973987">
        <ele>12</ele>
        <time>2012-07-12T11:17:44Z</time>
      </trkpt>
      <trkpt lat="59.5727209" lon="17.996929">
        <ele>13.2</ele>
        <time>2012-07-12T11:17:49Z</time>
      </trkpt>
      <trkpt lat="59.5726318" lon="17.9962591">
        <ele>18.8</ele>
        <time>2012-07-12T11:17:56Z</time>
      </trkpt>
      <trkpt lat="59.5725255" lon="17.9955532">
        <ele>23</ele>
        <time>2012-07-12T11:18:03Z</time>
      </trkpt>
      <trkpt lat="59.5723578" lon="17.9947743">
        <ele>16.4</ele>
        <time>2012-07-12T11:18:10Z</time>
      </trkpt>
      <trkpt lat="59.5722097" lon="17.9940333">
        <ele>13.4</ele>
        <time>2012-07-12T11:18:17Z</time>
      </trkpt>
      <trkpt lat="59.5720635" lon="17.9932994">
        <ele>12</ele>
        <time>2012-07-12T11:18:23Z</time>
      </trkpt>
      <trkpt lat="59.5719215" lon="17.9925565">
        <ele>10.4</ele>
        <time>2012-07-12T11:18:29Z</time>
      </trkpt>
      <trkpt lat="59.5717937" lon="17.9918607">
        <ele>10.8</ele>
        <time>2012-07-12T11:18:35Z</time>
      </trkpt>
      <trkpt lat="59.5716523" lon="17.99112">
        <ele>11</ele>
        <time>2012-07-12T11:18:41Z</time>
      </trkpt>
      <trkpt lat="59.5715052" lon="17.9903587">
        <ele>10.2</ele>
        <time>2012-07-12T11:18:47Z</time>
      </trkpt>
      <trkpt lat="59.5713767" lon="17.9896573">
        <ele>10.8</ele>
        <time>2012-07-12T11:18:53Z</time>
      </trkpt>
      <trkpt lat="59.571242" lon="17.9889833">
        <ele>11.8</ele>
        <time>2012-07-12T11:18:59Z</time>
      </trkpt>
      <trkpt lat="59.5711135" lon="17.9882424">
        <ele>11.4</ele>
        <time>2012-07-12T11:19:05Z</time>
      </trkpt>
      <trkpt lat="59.5710524" lon="17.9874781">
        <ele>12.8</ele>
        <time>2012-07-12T11:19:11Z</time>
      </trkpt>
      <trkpt lat="59.5710653" lon="17.9870903">
        <ele>13.6</ele>
        <time>2012-07-12T11:19:14Z</time>
      </trkpt>
      <trkpt lat="59.5711197" lon="17.9867066">
        <ele>13.6</ele>
        <time>2012-07-12T11:19:17Z</time>
      </trkpt>
      <trkpt lat="59.5712579" lon="17.9860466">
        <ele>14.2</ele>
        <time>2012-07-12T11:19:22Z</time>
      </trkpt>
      <trkpt lat="59.5714" lon="17.9853789">
        <ele>15.2</ele>
        <time>2012-07-12T11:19:27Z</time>
      </trkpt>
      <trkpt lat="59.5715466" lon="17.9847244">
        <ele>16.2</ele>
        <time>2012-07-12T11:19:32Z</time>
      </trkpt>
      <trkpt lat="59.5716985" lon="17.9840338">
        <ele>17.8</ele>
        <time>2012-07-12T11:19:37Z</time>
      </trkpt>
      <trkpt lat="59.5718092" lon="17.9833368">
        <ele>19.4</ele>
        <time>2012-07-12T11:19:42Z</time>
      </trkpt>
      <trkpt lat="59.5718881" lon="17.9825384">
        <ele>20.6</ele>
        <time>2012-07-12T11:19:48Z</time>
      </trkpt>
      <trkpt lat="59.5719437" lon="17.9817276">
        <ele>20.8</ele>
        <time>2012-07-12T11:19:54Z</time>
      </trkpt>
      <trkpt lat="59.5719729" lon="17.9808924">
        <ele>21.4</ele>
        <time>2012-07-12T11:20:00Z</time>
      </trkpt>
      <trkpt lat="59.5720316" lon="17.9802054">
        <ele>22</ele>
        <time>2012-07-12T11:20:05Z</time>
      </trkpt>
      <trkpt lat="59.5721325" lon="17.9793934">
        <ele>22</ele>
        <time>2012-07-12T11:20:11Z</time>
      </trkpt>
      <trkpt lat="59.5721724" lon="17.978653">
        <ele>21.6</ele>
        <time>2012-07-12T11:20:16Z</time>
      </trkpt>
      <trkpt lat="59.5721812" lon="17.977922">
        <ele>21</ele>
        <time>2012-07-12T11:20:21Z</time>
      </trkpt>
      <trkpt lat="59.5721469" lon="17.9775043">
        <ele>20.6</ele>
        <time>2012-07-12T11:20:24Z</time>
      </trkpt>
      <trkpt lat="59.5720686" lon="17.9771259">
        <ele>20.2</ele>
        <time>2012-07-12T11:20:27Z</time>
      </trkpt>
      <trkpt lat="59.5718249" lon="17.9764076">
        <ele>18.4</ele>
        <time>2012-07-12T11:20:33Z</time>
      </trkpt>
      <trkpt lat="59.5717912" lon="17.9762754">
        <ele>18.2</ele>
        <time>2012-07-12T11:20:34Z</time>
      </trkpt>
      <trkpt lat="59.571786" lon="17.9756809">
        <ele>16.6</ele>
        <time>2012-07-12T11:20:38Z</time>
      </trkpt>
      <trkpt lat="59.5719881" lon="17.9751872">
        <ele>15.6</ele>
        <time>2012-07-12T11:20:42Z</time>
      </trkpt>
      <trkpt lat="59.5720491" lon="17.9750769">
        <ele>15.2</ele>
        <time>2012-07-12T11:20:43Z</time>
      </trkpt>
      <trkpt lat="59.5721065" lon="17.9749575">
        <ele>14.6</ele>
        <time>2012-07-12T11:20:44Z</time>
      </trkpt>
      <trkpt lat="59.5722299" lon="17.9743286">
        <ele>14</ele>
        <time>2012-07-12T11:20:48Z</time>
      </trkpt>
      <trkpt lat="59.5721903" lon="17.9735829">
        <ele>16.2</ele>
        <time>2012-07-12T11:20:53Z</time>
      </trkpt>
      <trkpt lat="59.5720224" lon="17.973212">
        <ele>17.8</ele>
        <time>2012-07-12T11:20:57Z</time>
      </trkpt>
      <trkpt lat="59.5719324" lon="17.9730647">
        <ele>18.4</ele>
        <time>2012-07-12T11:20:59Z</time>
      </trkpt>
      <trkpt lat="59.571685" lon="17.9725386">
        <ele>19.6</ele>
        <time>2012-07-12T11:21:05Z</time>
      </trkpt>
      <trkpt lat="59.5714569" lon="17.9719702">
        <ele>20.6</ele>
        <time>2012-07-12T11:21:11Z</time>
      </trkpt>
      <trkpt lat="59.5712053" lon="17.9714253">
        <ele>20.8</ele>
        <time>2012-07-12T11:21:17Z</time>
      </trkpt>
      <trkpt lat="59.5709954" lon="17.9707907">
        <ele>20.2</ele>
        <time>2012-07-12T11:21:23Z</time>
      </trkpt>
      <trkpt lat="59.5707909" lon="17.9700949">
        <ele>19.2</ele>
        <time>2012-07-12T11:21:29Z</time>
      </trkpt>
      <trkpt lat="59.570594" lon="17.9694146">
        <ele>16.8</ele>
        <time>2012-07-12T11:21:35Z</time>
      </trkpt>
      <trkpt lat="59.5705591" lon="17.9691917">
        <ele>17.4</ele>
        <time>2012-07-12T11:21:37Z</time>
      </trkpt>
      <trkpt lat="59.5705444" lon="17.9689642">
        <ele>18.4</ele>
        <time>2012-07-12T11:21:39Z</time>
      </trkpt>
      <trkpt lat="59.5705479" lon="17.9687435">
        <ele>19.4</ele>
        <time>2012-07-12T11:21:41Z</time>
      </trkpt>
      <trkpt lat="59.5706033" lon="17.968035">
        <ele>18.6</ele>
        <time>2012-07-12T11:21:47Z</time>
      </trkpt>
      <trkpt lat="59.5707383" lon="17.9673335">
        <ele>15.4</ele>
        <time>2012-07-12T11:21:52Z</time>
      </trkpt>
      <trkpt lat="59.5709235" lon="17.9665391">
        <ele>12.2</ele>
        <time>2012-07-12T11:21:57Z</time>
      </trkpt>
      <trkpt lat="59.5709947" lon="17.9657074">
        <ele>12</ele>
        <time>2012-07-12T11:22:02Z</time>
      </trkpt>
      <trkpt lat="59.5709861" lon="17.9655456">
        <ele>12</ele>
        <time>2012-07-12T11:22:03Z</time>
      </trkpt>
      <trkpt lat="59.5709461" lon="17.9649726">
        <ele>13.4</ele>
        <time>2012-07-12T11:22:07Z</time>
      </trkpt>
      <trkpt lat="59.5709353" lon="17.9648651">
        <ele>14</ele>
        <time>2012-07-12T11:22:08Z</time>
      </trkpt>
      <trkpt lat="59.5704987" lon="17.9646991">
        <ele>13.6</ele>
        <time>2012-07-12T11:22:26Z</time>
      </trkpt>
      <trkpt lat="59.5702468" lon="17.9647794">
        <ele>13.6</ele>
        <time>2012-07-12T11:22:30Z</time>
      </trkpt>
      <trkpt lat="59.570122" lon="17.9648237">
        <ele>14.6</ele>
        <time>2012-07-12T11:22:32Z</time>
      </trkpt>
      <trkpt lat="59.5699921" lon="17.9648431">
        <ele>15</ele>
        <time>2012-07-12T11:22:34Z</time>
      </trkpt>
      <trkpt lat="59.5697412" lon="17.9647591">
        <ele>15.4</ele>
        <time>2012-07-12T11:22:38Z</time>
      </trkpt>
      <trkpt lat="59.5693835" lon="17.9644372">
        <ele>17.8</ele>
        <time>2012-07-12T11:22:45Z</time>
      </trkpt>
      <trkpt lat="59.5690363" lon="17.9641069">
        <ele>18</ele>
        <time>2012-07-12T11:22:52Z</time>
      </trkpt>
      <trkpt lat="59.5686711" lon="17.9639612">
        <ele>16.8</ele>
        <time>2012-07-12T11:22:58Z</time>
      </trkpt>
      <trkpt lat="59.5683084" lon="17.96381">
        <ele>17</ele>
        <time>2012-07-12T11:23:04Z</time>
      </trkpt>
      <trkpt lat="59.5679543" lon="17.9635989">
        <ele>17.2</ele>
        <time>2012-07-12T11:23:10Z</time>
      </trkpt>
      <trkpt lat="59.5675796" lon="17.9634889">
        <ele>17.2</ele>
        <time>2012-07-12T11:23:16Z</time>
      </trkpt>
      <trkpt lat="59.5672098" lon="17.9635017">
        <ele>17.4</ele>
        <time>2012-07-12T11:23:22Z</time>
      </trkpt>
      <trkpt lat="59.5668389" lon="17.9634984">
        <ele>18.2</ele>
        <time>2012-07-12T11:23:28Z</time>
      </trkpt>
      <trkpt lat="59.5664683" lon="17.9633681">
        <ele>16</ele>
        <time>2012-07-12T11:23:33Z</time>
      </trkpt>
      <trkpt lat="59.5660534" lon="17.9631373">
        <ele>12</ele>
        <time>2012-07-12T11:23:38Z</time>
      </trkpt>
      <trkpt lat="59.5657205" lon="17.962842">
        <ele>10</ele>
        <time>2012-07-12T11:23:42Z</time>
      </trkpt>
      <trkpt lat="59.5653631" lon="17.9623218">
        <ele>9</ele>
        <time>2012-07-12T11:23:47Z</time>
      </trkpt>
      <trkpt lat="59.5650182" lon="17.961771">
        <ele>9</ele>
        <time>2012-07-12T11:23:52Z</time>
      </trkpt>
      <trkpt lat="59.5646861" lon="17.9612367">
        <ele>8.4</ele>
        <time>2012-07-12T11:23:57Z</time>
      </trkpt>
      <trkpt lat="59.5643935" lon="17.9607802">
        <ele>7.8</ele>
        <time>2012-07-12T11:24:02Z</time>
      </trkpt>
      <trkpt lat="59.564091" lon="17.9603686">
        <ele>6.6</ele>
        <time>2012-07-12T11:24:07Z</time>
      </trkpt>
      <trkpt lat="59.5637201" lon="17.9599121">
        <ele>3.6</ele>
        <time>2012-07-12T11:24:13Z</time>
      </trkpt>
      <trkpt lat="59.5633496" lon="17.9595023">
        <ele>2.6</ele>
        <time>2012-07-12T11:24:19Z</time>
      </trkpt>
      <trkpt lat="59.5630176" lon="17.959144">
        <ele>6</ele>
        <time>2012-07-12T11:24:25Z</time>
      </trkpt>
      <trkpt lat="59.5626311" lon="17.9587922">
        <ele>3.8</ele>
        <time>2012-07-12T11:24:31Z</time>
      </trkpt>
      <trkpt lat="59.5622409" lon="17.9584591">
        <ele>4.2</ele>
        <time>2012-07-12T11:24:37Z</time>
      </trkpt>
      <trkpt lat="59.5618793" lon="17.958103">
        <ele>6</ele>
        <time>2012-07-12T11:24:43Z</time>
      </trkpt>
      <trkpt lat="59.5615569" lon="17.9576727">
        <ele>8</ele>
        <time>2012-07-12T11:24:49Z</time>
      </trkpt>
      <trkpt lat="59.5612797" lon="17.9571826">
        <ele>9.8</ele>
        <time>2012-07-12T11:24:55Z</time>
      </trkpt>
      <trkpt lat="59.5609762" lon="17.9567382">
        <ele>10.8</ele>
        <time>2012-07-12T11:25:01Z</time>
      </trkpt>
      <trkpt lat="59.5606522" lon="17.9564594">
        <ele>12.8</ele>
        <time>2012-07-12T11:25:07Z</time>
      </trkpt>
      <trkpt lat="59.5603181" lon="17.9562757">
        <ele>19.6</ele>
        <time>2012-07-12T11:25:14Z</time>
      </trkpt>
      <trkpt lat="59.5599006" lon="17.9560638">
        <ele>18</ele>
        <time>2012-07-12T11:25:21Z</time>
      </trkpt>
      <trkpt lat="59.5595221" lon="17.9558457">
        <ele>16.6</ele>
        <time>2012-07-12T11:25:27Z</time>
      </trkpt>
      <trkpt lat="59.5594573" lon="17.955822">
        <ele>17</ele>
        <time>2012-07-12T11:25:28Z</time>
      </trkpt>
      <trkpt lat="59.559109" lon="17.9558553">
        <ele>16.8</ele>
        <time>2012-07-12T11:25:33Z</time>
      </trkpt>
      <trkpt lat="59.5587456" lon="17.9559947">
        <ele>15</ele>
        <time>2012-07-12T11:25:38Z</time>
      </trkpt>
      <trkpt lat="59.5583756" lon="17.9558493">
        <ele>14.8</ele>
        <time>2012-07-12T11:25:43Z</time>
      </trkpt>
      <trkpt lat="59.5581892" lon="17.9555974">
        <ele>16.4</ele>
        <time>2012-07-12T11:25:46Z</time>
      </trkpt>
      <trkpt lat="59.5580306" lon="17.9553138">
        <ele>17.6</ele>
        <time>2012-07-12T11:25:49Z</time>
      </trkpt>
      <trkpt lat="59.5577692" lon="17.9547983">
        <ele>17.6</ele>
        <time>2012-07-12T11:25:54Z</time>
      </trkpt>
      <trkpt lat="59.5574613" lon="17.9542071">
        <ele>17.6</ele>
        <time>2012-07-12T11:26:00Z</time>
      </trkpt>
      <trkpt lat="59.5572182" lon="17.953653">
        <ele>18.4</ele>
        <time>2012-07-12T11:26:05Z</time>
      </trkpt>
      <trkpt lat="59.5570448" lon="17.9529822">
        <ele>19.4</ele>
        <time>2012-07-12T11:26:10Z</time>
      </trkpt>
      <trkpt lat="59.5569539" lon="17.9522697">
        <ele>19.6</ele>
        <time>2012-07-12T11:26:15Z</time>
      </trkpt>
      <trkpt lat="59.5568517" lon="17.9515758">
        <ele>17.8</ele>
        <time>2012-07-12T11:26:20Z</time>
      </trkpt>
      <trkpt lat="59.5567236" lon="17.9508614">
        <ele>18.4</ele>
        <time>2012-07-12T11:26:26Z</time>
      </trkpt>
      <trkpt lat="59.5566479" lon="17.9504111">
        <ele>19.8</ele>
        <time>2012-07-12T11:26:30Z</time>
      </trkpt>
      <trkpt lat="59.5566132" lon="17.9501808">
        <ele>20</ele>
        <time>2012-07-12T11:26:32Z</time>
      </trkpt>
      <trkpt lat="59.5564773" lon="17.9494121">
        <ele>19</ele>
        <time>2012-07-12T11:26:38Z</time>
      </trkpt>
      <trkpt lat="59.5563347" lon="17.9487289">
        <ele>18.2</ele>
        <time>2012-07-12T11:26:43Z</time>
      </trkpt>
      <trkpt lat="59.5561965" lon="17.9479972">
        <ele>19</ele>
        <time>2012-07-12T11:26:48Z</time>
      </trkpt>
      <trkpt lat="59.5560315" lon="17.9471841">
        <ele>16.6</ele>
        <time>2012-07-12T11:26:53Z</time>
      </trkpt>
      <trkpt lat="59.5559333" lon="17.9464972">
        <ele>15.2</ele>
        <time>2012-07-12T11:26:57Z</time>
      </trkpt>
      <trkpt lat="59.555923" lon="17.9457852">
        <ele>16.2</ele>
        <time>2012-07-12T11:27:01Z</time>
      </trkpt>
      <trkpt lat="59.5559472" lon="17.9454408">
        <ele>15.8</ele>
        <time>2012-07-12T11:27:03Z</time>
      </trkpt>
      <trkpt lat="59.5560163" lon="17.9449893">
        <ele>17</ele>
        <time>2012-07-12T11:27:06Z</time>
      </trkpt>
      <trkpt lat="59.5561069" lon="17.9443785">
        <ele>18.6</ele>
        <time>2012-07-12T11:27:10Z</time>
      </trkpt>
      <trkpt lat="59.5561149" lon="17.9442251">
        <ele>19</ele>
        <time>2012-07-12T11:27:11Z</time>
      </trkpt>
      <trkpt lat="59.5561187" lon="17.9439246">
        <ele>20.6</ele>
        <time>2012-07-12T11:27:13Z</time>
      </trkpt>
      <trkpt lat="59.5560788" lon="17.9434363">
        <ele>20.2</ele>
        <time>2012-07-12T11:27:16Z</time>
      </trkpt>
      <trkpt lat="59.5559505" lon="17.9426474">
        <ele>17.2</ele>
        <time>2012-07-12T11:27:21Z</time>
      </trkpt>
      <trkpt lat="59.5558083" lon="17.9418829">
        <ele>15.8</ele>
        <time>2012-07-12T11:27:26Z</time>
      </trkpt>
      <trkpt lat="59.5556336" lon="17.9410889">
        <ele>13.2</ele>
        <time>2012-07-12T11:27:31Z</time>
      </trkpt>
      <trkpt lat="59.555437" lon="17.9403261">
        <ele>13</ele>
        <time>2012-07-12T11:27:36Z</time>
      </trkpt>
      <trkpt lat="59.5552483" lon="17.9396288">
        <ele>13.8</ele>
        <time>2012-07-12T11:27:41Z</time>
      </trkpt>
      <trkpt lat="59.5550755" lon="17.9389709">
        <ele>16</ele>
        <time>2012-07-12T11:27:47Z</time>
      </trkpt>
      <trkpt lat="59.5550008" lon="17.93854">
        <ele>18.2</ele>
        <time>2012-07-12T11:27:51Z</time>
      </trkpt>
      <trkpt lat="59.5549791" lon="17.9381817">
        <ele>19.4</ele>
        <time>2012-07-12T11:27:54Z</time>
      </trkpt>
      <trkpt lat="59.5549671" lon="17.9374424">
        <ele>21.2</ele>
        <time>2012-07-12T11:28:00Z</time>
      </trkpt>
      <trkpt lat="59.5549331" lon="17.936612">
        <ele>22.4</ele>
        <time>2012-07-12T11:28:06Z</time>
      </trkpt>
      <trkpt lat="59.5548605" lon="17.9358613">
        <ele>22.4</ele>
        <time>2012-07-12T11:28:11Z</time>
      </trkpt>
      <trkpt lat="59.5547714" lon="17.9352774">
        <ele>22.4</ele>
        <time>2012-07-12T11:28:15Z</time>
      </trkpt>
      <trkpt lat="59.5547376" lon="17.9351355">
        <ele>21.8</ele>
        <time>2012-07-12T11:28:16Z</time>
      </trkpt>
      <trkpt lat="59.5546244" lon="17.9347172">
        <ele>19.6</ele>
        <time>2012-07-12T11:28:19Z</time>
      </trkpt>
      <trkpt lat="59.5545288" lon="17.9344534">
        <ele>18.6</ele>
        <time>2012-07-12T11:28:21Z</time>
      </trkpt>
      <trkpt lat="59.5542698" lon="17.9338819">
        <ele>17.6</ele>
        <time>2012-07-12T11:28:26Z</time>
      </trkpt>
      <trkpt lat="59.5539559" lon="17.9334749">
        <ele>16</ele>
        <time>2012-07-12T11:28:31Z</time>
      </trkpt>
      <trkpt lat="59.5536058" lon="17.9332303">
        <ele>15.6</ele>
        <time>2012-07-12T11:28:36Z</time>
      </trkpt>
      <trkpt lat="59.5532641" lon="17.933028">
        <ele>16</ele>
        <time>2012-07-12T11:28:41Z</time>
      </trkpt>
      <trkpt lat="59.5529208" lon="17.9328319">
        <ele>16.2</ele>
        <time>2012-07-12T11:28:46Z</time>
      </trkpt>
      <trkpt lat="59.5525766" lon="17.9326229">
        <ele>16.6</ele>
        <time>2012-07-12T11:28:51Z</time>
      </trkpt>
      <trkpt lat="59.5522465" lon="17.9324256">
        <ele>17.8</ele>
        <time>2012-07-12T11:28:56Z</time>
      </trkpt>
      <trkpt lat="59.5519102" lon="17.9322344">
        <ele>18.6</ele>
        <time>2012-07-12T11:29:01Z</time>
      </trkpt>
      <trkpt lat="59.5515593" lon="17.9320152">
        <ele>18.2</ele>
        <time>2012-07-12T11:29:06Z</time>
      </trkpt>
      <trkpt lat="59.551209" lon="17.9316505">
        <ele>16.8</ele>
        <time>2012-07-12T11:29:11Z</time>
      </trkpt>
      <trkpt lat="59.5508479" lon="17.9313366">
        <ele>15</ele>
        <time>2012-07-12T11:29:16Z</time>
      </trkpt>
      <trkpt lat="59.5507654" lon="17.9313063">
        <ele>14.4</ele>
        <time>2012-07-12T11:29:17Z</time>
      </trkpt>
      <trkpt lat="59.5504263" lon="17.9313419">
        <ele>12.6</ele>
        <time>2012-07-12T11:29:21Z</time>
      </trkpt>
      <trkpt lat="59.5503401" lon="17.9313822">
        <ele>12</ele>
        <time>2012-07-12T11:29:22Z</time>
      </trkpt>
      <trkpt lat="59.5500071" lon="17.9315862">
        <ele>12</ele>
        <time>2012-07-12T11:29:26Z</time>
      </trkpt>
      <trkpt lat="59.5496668" lon="17.9318018">
        <ele>12.8</ele>
        <time>2012-07-12T11:29:30Z</time>
      </trkpt>
      <trkpt lat="59.5492473" lon="17.9320571">
        <ele>13.8</ele>
        <time>2012-07-12T11:29:35Z</time>
      </trkpt>
      <trkpt lat="59.5488277" lon="17.9323161">
        <ele>14.8</ele>
        <time>2012-07-12T11:29:40Z</time>
      </trkpt>
      <trkpt lat="59.548406" lon="17.9325711">
        <ele>15.2</ele>
        <time>2012-07-12T11:29:45Z</time>
      </trkpt>
      <trkpt lat="59.5479883" lon="17.9328248">
        <ele>15.8</ele>
        <time>2012-07-12T11:29:50Z</time>
      </trkpt>
      <trkpt lat="59.5475807" lon="17.9330684">
        <ele>16.4</ele>
        <time>2012-07-12T11:29:55Z</time>
      </trkpt>
      <trkpt lat="59.5471922" lon="17.9332921">
        <ele>16.4</ele>
        <time>2012-07-12T11:30:00Z</time>
      </trkpt>
      <trkpt lat="59.5468197" lon="17.933521">
        <ele>17</ele>
        <time>2012-07-12T11:30:05Z</time>
      </trkpt>
      <trkpt lat="59.546448" lon="17.9337508">
        <ele>18.2</ele>
        <time>2012-07-12T11:30:10Z</time>
      </trkpt>
      <trkpt lat="59.546089" lon="17.9339717">
        <ele>20</ele>
        <time>2012-07-12T11:30:15Z</time>
      </trkpt>
      <trkpt lat="59.5457366" lon="17.9341885">
        <ele>21.6</ele>
        <time>2012-07-12T11:30:20Z</time>
      </trkpt>
      <trkpt lat="59.5453787" lon="17.9344022">
        <ele>22.2</ele>
        <time>2012-07-12T11:30:25Z</time>
      </trkpt>
      <trkpt lat="59.5449939" lon="17.9346213">
        <ele>20.4</ele>
        <time>2012-07-12T11:30:30Z</time>
      </trkpt>
      <trkpt lat="59.5445827" lon="17.9348475">
        <ele>17.6</ele>
        <time>2012-07-12T11:30:35Z</time>
      </trkpt>
      <trkpt lat="59.544188" lon="17.9350802">
        <ele>16.2</ele>
        <time>2012-07-12T11:30:40Z</time>
      </trkpt>
      <trkpt lat="59.5438026" lon="17.9353005">
        <ele>15.2</ele>
        <time>2012-07-12T11:30:45Z</time>
      </trkpt>
      <trkpt lat="59.5434161" lon="17.9355188">
        <ele>14.4</ele>
        <time>2012-07-12T11:30:50Z</time>
      </trkpt>
      <trkpt lat="59.5430336" lon="17.9357457">
        <ele>14</ele>
        <time>2012-07-12T11:30:55Z</time>
      </trkpt>
      <trkpt lat="59.5426629" lon="17.9359687">
        <ele>13.8</ele>
        <time>2012-07-12T11:31:00Z</time>
      </trkpt>
      <trkpt lat="59.5422763" lon="17.93618">
        <ele>12.2</ele>
        <time>2012-07-12T11:31:05Z</time>
      </trkpt>
      <trkpt lat="59.5418812" lon="17.9363761">
        <ele>11.8</ele>
        <time>2012-07-12T11:31:10Z</time>
      </trkpt>
      <trkpt lat="59.5414792" lon="17.9363551">
        <ele>11.8</ele>
        <time>2012-07-12T11:31:15Z</time>
      </trkpt>
      <trkpt lat="59.5410792" lon="17.9362827">
        <ele>11.6</ele>
        <time>2012-07-12T11:31:20Z</time>
      </trkpt>
      <trkpt lat="59.5407054" lon="17.9362096">
        <ele>11.4</ele>
        <time>2012-07-12T11:31:25Z</time>
      </trkpt>
      <trkpt lat="59.5403146" lon="17.9361436">
        <ele>11.8</ele>
        <time>2012-07-12T11:31:31Z</time>
      </trkpt>
      <trkpt lat="59.5402503" lon="17.9361308">
        <ele>11.8</ele>
        <time>2012-07-12T11:31:32Z</time>
      </trkpt>
      <trkpt lat="59.5399315" lon="17.9360749">
        <ele>12.6</ele>
        <time>2012-07-12T11:31:37Z</time>
      </trkpt>
      <trkpt lat="59.5395534" lon="17.9360184">
        <ele>13</ele>
        <time>2012-07-12T11:31:43Z</time>
      </trkpt>
      <trkpt lat="59.5391381" lon="17.9359142">
        <ele>13</ele>
        <time>2012-07-12T11:31:50Z</time>
      </trkpt>
      <trkpt lat="59.5387757" lon="17.9358314">
        <ele>12.6</ele>
        <time>2012-07-12T11:31:56Z</time>
      </trkpt>
      <trkpt lat="59.5383831" lon="17.9357484">
        <ele>11.4</ele>
        <time>2012-07-12T11:32:02Z</time>
      </trkpt>
      <trkpt lat="59.5379679" lon="17.9356647">
        <ele>10.2</ele>
        <time>2012-07-12T11:32:08Z</time>
      </trkpt>
      <trkpt lat="59.5376024" lon="17.9355977">
        <ele>9</ele>
        <time>2012-07-12T11:32:13Z</time>
      </trkpt>
      <trkpt lat="59.5372135" lon="17.9355242">
        <ele>7.4</ele>
        <time>2012-07-12T11:32:18Z</time>
      </trkpt>
      <trkpt lat="59.5368081" lon="17.9354448">
        <ele>6</ele>
        <time>2012-07-12T11:32:23Z</time>
      </trkpt>
      <trkpt lat="59.5363893" lon="17.9353548">
        <ele>4.4</ele>
        <time>2012-07-12T11:32:28Z</time>
      </trkpt>
      <trkpt lat="59.5359737" lon="17.9352734">
        <ele>2.8</ele>
        <time>2012-07-12T11:32:33Z</time>
      </trkpt>
      <trkpt lat="59.5355439" lon="17.9351953">
        <ele>1.2</ele>
        <time>2012-07-12T11:32:38Z</time>
      </trkpt>
      <trkpt lat="59.5352073" lon="17.9351349">
        <ele>0.8</ele>
        <time>2012-07-12T11:32:42Z</time>
      </trkpt>
      <trkpt lat="59.5351287" lon="17.9350946">
        <ele>0.6</ele>
        <time>2012-07-12T11:32:43Z</time>
      </trkpt>
      <trkpt lat="59.534786" lon="17.9348382">
        <ele>1</ele>
        <time>2012-07-12T11:32:48Z</time>
      </trkpt>
      <trkpt lat="59.534459" lon="17.9344487">
        <ele>0.8</ele>
        <time>2012-07-12T11:32:54Z</time>
      </trkpt>
      <trkpt lat="59.5341142" lon="17.934025">
        <ele>0</ele>
        <time>2012-07-12T11:33:00Z</time>
      </trkpt>
      <trkpt lat="59.5337446" lon="17.9336296">
        <ele>0</ele>
        <time>2012-07-12T11:33:06Z</time>
      </trkpt>
      <trkpt lat="59.5333647" lon="17.9332986">
        <ele>0</ele>
        <time>2012-07-12T11:33:12Z</time>
      </trkpt>
      <trkpt lat="59.5329988" lon="17.9329994">
        <ele>0</ele>
        <time>2012-07-12T11:33:18Z</time>
      </trkpt>
      <trkpt lat="59.5326445" lon="17.9326868">
        <ele>0</ele>
        <time>2012-07-12T11:33:24Z</time>
      </trkpt>
      <trkpt lat="59.5322988" lon="17.932344">
        <ele>0</ele>
        <time>2012-07-12T11:33:30Z</time>
      </trkpt>
      <trkpt lat="59.5319704" lon="17.9319846">
        <ele>0</ele>
        <time>2012-07-12T11:33:36Z</time>
      </trkpt>
      <trkpt lat="59.5316508" lon="17.9315597">
        <ele>0</ele>
        <time>2012-07-12T11:33:42Z</time>
      </trkpt>
      <trkpt lat="59.5313236" lon="17.9310663">
        <ele>0</ele>
        <time>2012-07-12T11:33:48Z</time>
      </trkpt>
      <trkpt lat="59.5310614" lon="17.930629">
        <ele>0</ele>
        <time>2012-07-12T11:33:53Z</time>
      </trkpt>
      <trkpt lat="59.5310147" lon="17.93053">
        <ele>0</ele>
        <time>2012-07-12T11:33:54Z</time>
      </trkpt>
      <trkpt lat="59.5307166" lon="17.9299399">
        <ele>0</ele>
        <time>2012-07-12T11:34:00Z</time>
      </trkpt>
      <trkpt lat="59.5304532" lon="17.9293431">
        <ele>0.8</ele>
        <time>2012-07-12T11:34:06Z</time>
      </trkpt>
      <trkpt lat="59.5302173" lon="17.9287227">
        <ele>2.8</ele>
        <time>2012-07-12T11:34:12Z</time>
      </trkpt>
      <trkpt lat="59.5300079" lon="17.928097">
        <ele>4.4</ele>
        <time>2012-07-12T11:34:18Z</time>
      </trkpt>
      <trkpt lat="59.5298287" lon="17.9274619">
        <ele>5.6</ele>
        <time>2012-07-12T11:34:24Z</time>
      </trkpt>
      <trkpt lat="59.5296788" lon="17.9267662">
        <ele>5.6</ele>
        <time>2012-07-12T11:34:30Z</time>
      </trkpt>
      <trkpt lat="59.5295316" lon="17.9260442">
        <ele>7.6</ele>
        <time>2012-07-12T11:34:37Z</time>
      </trkpt>
      <trkpt lat="59.5293309" lon="17.9250363">
        <ele>10.8</ele>
        <time>2012-07-12T11:34:50Z</time>
      </trkpt>
      <trkpt lat="59.5291838" lon="17.9243515">
        <ele>10.8</ele>
        <time>2012-07-12T11:34:56Z</time>
      </trkpt>
      <trkpt lat="59.5290266" lon="17.9237119">
        <ele>9.6</ele>
        <time>2012-07-12T11:35:01Z</time>
      </trkpt>
      <trkpt lat="59.5289157" lon="17.9232746">
        <ele>9.4</ele>
        <time>2012-07-12T11:35:04Z</time>
      </trkpt>
      <trkpt lat="59.5288279" lon="17.9229943">
        <ele>9.6</ele>
        <time>2012-07-12T11:35:06Z</time>
      </trkpt>
      <trkpt lat="59.5286228" lon="17.922432">
        <ele>14</ele>
        <time>2012-07-12T11:35:12Z</time>
      </trkpt>
      <trkpt lat="59.5283791" lon="17.9218143">
        <ele>13.6</ele>
        <time>2012-07-12T11:35:19Z</time>
      </trkpt>
      <trkpt lat="59.5282933" lon="17.9215481">
        <ele>14</ele>
        <time>2012-07-12T11:35:22Z</time>
      </trkpt>
      <trkpt lat="59.5283502" lon="17.921172">
        <ele>16</ele>
        <time>2012-07-12T11:35:26Z</time>
      </trkpt>
      <trkpt lat="59.5284146" lon="17.9208778">
        <ele>16.8</ele>
        <time>2012-07-12T11:35:29Z</time>
      </trkpt>
      <trkpt lat="59.5284267" lon="17.9204397">
        <ele>17.8</ele>
        <time>2012-07-12T11:35:33Z</time>
      </trkpt>
      <trkpt lat="59.5283819" lon="17.9201123">
        <ele>18</ele>
        <time>2012-07-12T11:35:36Z</time>
      </trkpt>
      <trkpt lat="59.5283188" lon="17.9198122">
        <ele>18.6</ele>
        <time>2012-07-12T11:35:39Z</time>
      </trkpt>
      <trkpt lat="59.5282936" lon="17.9197155">
        <ele>19</ele>
        <time>2012-07-12T11:35:40Z</time>
      </trkpt>
      <trkpt lat="59.5281533" lon="17.9190411">
        <ele>21.4</ele>
        <time>2012-07-12T11:35:47Z</time>
      </trkpt>
      <trkpt lat="59.5279904" lon="17.9183294">
        <ele>21.6</ele>
        <time>2012-07-12T11:35:55Z</time>
      </trkpt>
      <trkpt lat="59.5279261" lon="17.9180305">
        <ele>20.2</ele>
        <time>2012-07-12T11:35:58Z</time>
      </trkpt>
      <trkpt lat="59.5278883" lon="17.9175741">
        <ele>25.4</ele>
        <time>2012-07-12T11:36:03Z</time>
      </trkpt>
      <trkpt lat="59.5279838" lon="17.9168138">
        <ele>27.4</ele>
        <time>2012-07-12T11:36:11Z</time>
      </trkpt>
      <trkpt lat="59.5280534" lon="17.9165529">
        <ele>29</ele>
        <time>2012-07-12T11:36:14Z</time>
      </trkpt>
      <trkpt lat="59.528172" lon="17.9162346">
        <ele>32.6</ele>
        <time>2012-07-12T11:36:18Z</time>
      </trkpt>
      <trkpt lat="59.5282083" lon="17.916165">
        <ele>33.2</ele>
        <time>2012-07-12T11:36:19Z</time>
      </trkpt>
      <trkpt lat="59.5285712" lon="17.9159106">
        <ele>40</ele>
        <time>2012-07-12T11:36:27Z</time>
      </trkpt>
      <trkpt lat="59.5286145" lon="17.915917">
        <ele>40.8</ele>
        <time>2012-07-12T11:36:28Z</time>
      </trkpt>
      <trkpt lat="59.5289562" lon="17.9159978">
        <ele>41.6</ele>
        <time>2012-07-12T11:36:35Z</time>
      </trkpt>
      <trkpt lat="59.5292564" lon="17.9159979">
        <ele>40.6</ele>
        <time>2012-07-12T11:36:41Z</time>
      </trkpt>
      <trkpt lat="59.5293137" lon="17.915974">
        <ele>40</ele>
        <time>2012-07-12T11:36:42Z</time>
      </trkpt>
      <trkpt lat="59.529683" lon="17.9157627">
        <ele>37.8</ele>
        <time>2012-07-12T11:36:48Z</time>
      </trkpt>
      <trkpt lat="59.5299385" lon="17.9155772">
        <ele>37.8</ele>
        <time>2012-07-12T11:36:52Z</time>
      </trkpt>
      <trkpt lat="59.5300612" lon="17.9154244">
        <ele>38.8</ele>
        <time>2012-07-12T11:36:54Z</time>
      </trkpt>
      <trkpt lat="59.5302186" lon="17.9149052">
        <ele>40</ele>
        <time>2012-07-12T11:36:59Z</time>
      </trkpt>
      <trkpt lat="59.5302307" lon="17.9147877">
        <ele>40</ele>
        <time>2012-07-12T11:37:00Z</time>
      </trkpt>
      <trkpt lat="59.5301969" lon="17.9142904">
        <ele>41.8</ele>
        <time>2012-07-12T11:37:04Z</time>
      </trkpt>
      <trkpt lat="59.5301644" lon="17.9140195">
        <ele>42.2</ele>
        <time>2012-07-12T11:37:06Z</time>
      </trkpt>
      <trkpt lat="59.5300804" lon="17.9132317">
        <ele>43.4</ele>
        <time>2012-07-12T11:37:12Z</time>
      </trkpt>
      <trkpt lat="59.5299907" lon="17.9124785">
        <ele>43.6</ele>
        <time>2012-07-12T11:37:17Z</time>
      </trkpt>
      <trkpt lat="59.5298977" lon="17.9116372">
        <ele>42.6</ele>
        <time>2012-07-12T11:37:22Z</time>
      </trkpt>
      <trkpt lat="59.5298259" lon="17.9109361">
        <ele>41</ele>
        <time>2012-07-12T11:37:26Z</time>
      </trkpt>
      <trkpt lat="59.529737" lon="17.9100949">
        <ele>40.8</ele>
        <time>2012-07-12T11:37:31Z</time>
      </trkpt>
      <trkpt lat="59.529615" lon="17.9094557">
        <ele>38.4</ele>
        <time>2012-07-12T11:37:36Z</time>
      </trkpt>
      <trkpt lat="59.5294044" lon="17.9086923">
        <ele>38</ele>
        <time>2012-07-12T11:37:40Z</time>
      </trkpt>
      <trkpt lat="59.52937" lon="17.90853">
        <ele>37.6</ele>
        <time>2012-07-12T11:37:41Z</time>
      </trkpt>
      <trkpt lat="59.5293001" lon="17.907867">
        <ele>38.2</ele>
        <time>2012-07-12T11:37:45Z</time>
      </trkpt>
      <trkpt lat="59.5292356" lon="17.9070783">
        <ele>39.8</ele>
        <time>2012-07-12T11:37:50Z</time>
      </trkpt>
      <trkpt lat="59.5291238" lon="17.906295">
        <ele>38</ele>
        <time>2012-07-12T11:37:55Z</time>
      </trkpt>
      <trkpt lat="59.5289877" lon="17.9054843">
        <ele>37.8</ele>
        <time>2012-07-12T11:38:00Z</time>
      </trkpt>
      <trkpt lat="59.5288745" lon="17.9047864">
        <ele>37</ele>
        <time>2012-07-12T11:38:04Z</time>
      </trkpt>
      <trkpt lat="59.5287475" lon="17.904031">
        <ele>36.8</ele>
        <time>2012-07-12T11:38:08Z</time>
      </trkpt>
      <trkpt lat="59.5285948" lon="17.9032646">
        <ele>35</ele>
        <time>2012-07-12T11:38:12Z</time>
      </trkpt>
      <trkpt lat="59.5284591" lon="17.9025745">
        <ele>32</ele>
        <time>2012-07-12T11:38:16Z</time>
      </trkpt>
      <trkpt lat="59.5282793" lon="17.9019463">
        <ele>23.4</ele>
        <time>2012-07-12T11:38:20Z</time>
      </trkpt>
      <trkpt lat="59.5280071" lon="17.9014688">
        <ele>17.6</ele>
        <time>2012-07-12T11:38:24Z</time>
      </trkpt>
      <trkpt lat="59.5276596" lon="17.9011545">
        <ele>12.8</ele>
        <time>2012-07-12T11:38:28Z</time>
      </trkpt>
      <trkpt lat="59.5273579" lon="17.901068">
        <ele>9.2</ele>
        <time>2012-07-12T11:38:31Z</time>
      </trkpt>
      <trkpt lat="59.5272519" lon="17.9010582">
        <ele>8</ele>
        <time>2012-07-12T11:38:32Z</time>
      </trkpt>
      <trkpt lat="59.5268093" lon="17.9010463">
        <ele>3.8</ele>
        <time>2012-07-12T11:38:36Z</time>
      </trkpt>
      <trkpt lat="59.526369" lon="17.9010189">
        <ele>1.6</ele>
        <time>2012-07-12T11:38:40Z</time>
      </trkpt>
      <trkpt lat="59.5259888" lon="17.9009682">
        <ele>0.4</ele>
        <time>2012-07-12T11:38:44Z</time>
      </trkpt>
      <trkpt lat="59.5255707" lon="17.9008543">
        <ele>0.2</ele>
        <time>2012-07-12T11:38:49Z</time>
      </trkpt>
      <trkpt lat="59.5251894" lon="17.9007057">
        <ele>0</ele>
        <time>2012-07-12T11:38:54Z</time>
      </trkpt>
      <trkpt lat="59.5251206" lon="17.9006538">
        <ele>0</ele>
        <time>2012-07-12T11:38:55Z</time>
      </trkpt>
      <trkpt lat="59.5249893" lon="17.9005326">
        <ele>0</ele>
        <time>2012-07-12T11:38:57Z</time>
      </trkpt>
      <trkpt lat="59.5248499" lon="17.900487">
        <ele>0.4</ele>
        <time>2012-07-12T11:38:59Z</time>
      </trkpt>
      <trkpt lat="59.5247807" lon="17.9004584">
        <ele>0.8</ele>
        <time>2012-07-12T11:39:00Z</time>
      </trkpt>
      <trkpt lat="59.524478" lon="17.9001923">
        <ele>1.8</ele>
        <time>2012-07-12T11:39:05Z</time>
      </trkpt>
      <trkpt lat="59.5243686" lon="17.9001084">
        <ele>2.4</ele>
        <time>2012-07-12T11:39:07Z</time>
      </trkpt>
      <trkpt lat="59.5241133" lon="17.9000535">
        <ele>2.4</ele>
        <time>2012-07-12T11:39:11Z</time>
      </trkpt>
      <trkpt lat="59.5237265" lon="17.899928">
        <ele>2.6</ele>
        <time>2012-07-12T11:39:17Z</time>
      </trkpt>
      <trkpt lat="59.5233561" lon="17.8997167">
        <ele>3</ele>
        <time>2012-07-12T11:39:23Z</time>
      </trkpt>
      <trkpt lat="59.5229784" lon="17.8994618">
        <ele>5</ele>
        <time>2012-07-12T11:39:30Z</time>
      </trkpt>
      <trkpt lat="59.5226955" lon="17.8989048">
        <ele>5</ele>
        <time>2012-07-12T11:39:37Z</time>
      </trkpt>
      <trkpt lat="59.5226371" lon="17.8988678">
        <ele>4.8</ele>
        <time>2012-07-12T11:39:38Z</time>
      </trkpt>
      <trkpt lat="59.5223377" lon="17.8986647">
        <ele>3.6</ele>
        <time>2012-07-12T11:39:43Z</time>
      </trkpt>
      <trkpt lat="59.5222812" lon="17.8986085">
        <ele>3.2</ele>
        <time>2012-07-12T11:39:44Z</time>
      </trkpt>
      <trkpt lat="59.5221132" lon="17.8984111">
        <ele>2.6</ele>
        <time>2012-07-12T11:39:47Z</time>
      </trkpt>
      <trkpt lat="59.5219788" lon="17.8983285">
        <ele>2.4</ele>
        <time>2012-07-12T11:39:49Z</time>
      </trkpt>
      <trkpt lat="59.5216429" lon="17.8981221">
        <ele>2.8</ele>
        <time>2012-07-12T11:39:54Z</time>
      </trkpt>
      <trkpt lat="59.5212505" lon="17.8978364">
        <ele>1.8</ele>
        <time>2012-07-12T11:40:00Z</time>
      </trkpt>
      <trkpt lat="59.520965" lon="17.8973896">
        <ele>2.6</ele>
        <time>2012-07-12T11:40:06Z</time>
      </trkpt>
      <trkpt lat="59.520925" lon="17.8973163">
        <ele>2.8</ele>
        <time>2012-07-12T11:40:07Z</time>
      </trkpt>
      <trkpt lat="59.5208504" lon="17.8971845">
        <ele>3.4</ele>
        <time>2012-07-12T11:40:09Z</time>
      </trkpt>
      <trkpt lat="59.5206991" lon="17.8968242">
        <ele>5.2</ele>
        <time>2012-07-12T11:40:14Z</time>
      </trkpt>
      <trkpt lat="59.5206652" lon="17.8967474">
        <ele>5.6</ele>
        <time>2012-07-12T11:40:15Z</time>
      </trkpt>
      <trkpt lat="59.5204215" lon="17.8963016">
        <ele>6.4</ele>
        <time>2012-07-12T11:40:21Z</time>
      </trkpt>
      <trkpt lat="59.5201417" lon="17.8957919">
        <ele>7.2</ele>
        <time>2012-07-12T11:40:28Z</time>
      </trkpt>
      <trkpt lat="59.5199145" lon="17.8953111">
        <ele>10.4</ele>
        <time>2012-07-12T11:40:35Z</time>
      </trkpt>
      <trkpt lat="59.5196244" lon="17.8947662">
        <ele>11.4</ele>
        <time>2012-07-12T11:40:43Z</time>
      </trkpt>
      <trkpt lat="59.519356" lon="17.8942594">
        <ele>11.6</ele>
        <time>2012-07-12T11:40:50Z</time>
      </trkpt>
      <trkpt lat="59.5193063" lon="17.8941165">
        <ele>12.8</ele>
        <time>2012-07-12T11:40:52Z</time>
      </trkpt>
      <trkpt lat="59.5190492" lon="17.8940424">
        <ele>11.8</ele>
        <time>2012-07-12T11:40:57Z</time>
      </trkpt>
      <trkpt lat="59.5186426" lon="17.8941108">
        <ele>10</ele>
        <time>2012-07-12T11:41:03Z</time>
      </trkpt>
      <trkpt lat="59.5182746" lon="17.8941274">
        <ele>8.4</ele>
        <time>2012-07-12T11:41:08Z</time>
      </trkpt>
      <trkpt lat="59.5178984" lon="17.8940336">
        <ele>7.6</ele>
        <time>2012-07-12T11:41:13Z</time>
      </trkpt>
      <trkpt lat="59.5176197" lon="17.8935052">
        <ele>6.8</ele>
        <time>2012-07-12T11:41:18Z</time>
      </trkpt>
      <trkpt lat="59.5175628" lon="17.8932608">
        <ele>7.6</ele>
        <time>2012-07-12T11:41:20Z</time>
      </trkpt>
      <trkpt lat="59.5174718" lon="17.8927811">
        <ele>8.6</ele>
        <time>2012-07-12T11:41:24Z</time>
      </trkpt>
      <trkpt lat="59.5173949" lon="17.8920044">
        <ele>9.4</ele>
        <time>2012-07-12T11:41:30Z</time>
      </trkpt>
      <trkpt lat="59.5173466" lon="17.8912251">
        <ele>10.8</ele>
        <time>2012-07-12T11:41:36Z</time>
      </trkpt>
      <trkpt lat="59.5172664" lon="17.8905288">
        <ele>9.4</ele>
        <time>2012-07-12T11:41:41Z</time>
      </trkpt>
      <trkpt lat="59.51717" lon="17.8897892">
        <ele>8.6</ele>
        <time>2012-07-12T11:41:46Z</time>
      </trkpt>
      <trkpt lat="59.5170681" lon="17.8891873">
        <ele>8</ele>
        <time>2012-07-12T11:41:50Z</time>
      </trkpt>
      <trkpt lat="59.5170372" lon="17.88904">
        <ele>7.8</ele>
        <time>2012-07-12T11:41:51Z</time>
      </trkpt>
      <trkpt lat="59.516838" lon="17.8883619">
        <ele>6.4</ele>
        <time>2012-07-12T11:41:56Z</time>
      </trkpt>
      <trkpt lat="59.5166189" lon="17.8876594">
        <ele>4.8</ele>
        <time>2012-07-12T11:42:02Z</time>
      </trkpt>
      <trkpt lat="59.5165832" lon="17.8875477">
        <ele>4.8</ele>
        <time>2012-07-12T11:42:03Z</time>
      </trkpt>
      <trkpt lat="59.5162918" lon="17.8873461">
        <ele>4.6</ele>
        <time>2012-07-12T11:42:08Z</time>
      </trkpt>
      <trkpt lat="59.5160594" lon="17.8870575">
        <ele>4.2</ele>
        <time>2012-07-12T11:42:12Z</time>
      </trkpt>
      <trkpt lat="59.5159522" lon="17.8868854">
        <ele>4.4</ele>
        <time>2012-07-12T11:42:14Z</time>
      </trkpt>
      <trkpt lat="59.5157528" lon="17.8866961">
        <ele>3.6</ele>
        <time>2012-07-12T11:42:17Z</time>
      </trkpt>
      <trkpt lat="59.5156456" lon="17.8864965">
        <ele>3.4</ele>
        <time>2012-07-12T11:42:19Z</time>
      </trkpt>
      <trkpt lat="59.5155592" lon="17.8862545">
        <ele>3.2</ele>
        <time>2012-07-12T11:42:21Z</time>
      </trkpt>
      <trkpt lat="59.5154523" lon="17.8858693">
        <ele>3.6</ele>
        <time>2012-07-12T11:42:24Z</time>
      </trkpt>
      <trkpt lat="59.5153273" lon="17.8852086">
        <ele>5.2</ele>
        <time>2012-07-12T11:42:29Z</time>
      </trkpt>
      <trkpt lat="59.5151544" lon="17.8844774">
        <ele>6.4</ele>
        <time>2012-07-12T11:42:35Z</time>
      </trkpt>
      <trkpt lat="59.5149524" lon="17.8837955">
        <ele>8.6</ele>
        <time>2012-07-12T11:42:41Z</time>
      </trkpt>
      <trkpt lat="59.5147182" lon="17.8830858">
        <ele>7.8</ele>
        <time>2012-07-12T11:42:47Z</time>
      </trkpt>
      <trkpt lat="59.5144618" lon="17.8824107">
        <ele>5.8</ele>
        <time>2012-07-12T11:42:53Z</time>
      </trkpt>
      <trkpt lat="59.5141898" lon="17.8817747">
        <ele>4.2</ele>
        <time>2012-07-12T11:42:59Z</time>
      </trkpt>
      <trkpt lat="59.5139216" lon="17.8811414">
        <ele>3.2</ele>
        <time>2012-07-12T11:43:05Z</time>
      </trkpt>
      <trkpt lat="59.5136611" lon="17.8804968">
        <ele>2.4</ele>
        <time>2012-07-12T11:43:11Z</time>
      </trkpt>
      <trkpt lat="59.5134019" lon="17.8798909">
        <ele>2</ele>
        <time>2012-07-12T11:43:17Z</time>
      </trkpt>
      <trkpt lat="59.5131436" lon="17.8793098">
        <ele>1.6</ele>
        <time>2012-07-12T11:43:23Z</time>
      </trkpt>
      <trkpt lat="59.5128752" lon="17.8787483">
        <ele>1.4</ele>
        <time>2012-07-12T11:43:29Z</time>
      </trkpt>
      <trkpt lat="59.5126072" lon="17.8781823">
        <ele>1.4</ele>
        <time>2012-07-12T11:43:35Z</time>
      </trkpt>
      <trkpt lat="59.5123484" lon="17.8775949">
        <ele>1.2</ele>
        <time>2012-07-12T11:43:41Z</time>
      </trkpt>
      <trkpt lat="59.512095" lon="17.8770213">
        <ele>1.2</ele>
        <time>2012-07-12T11:43:47Z</time>
      </trkpt>
      <trkpt lat="59.5118381" lon="17.8764363">
        <ele>1.2</ele>
        <time>2012-07-12T11:43:53Z</time>
      </trkpt>
      <trkpt lat="59.5115699" lon="17.8758399">
        <ele>1.2</ele>
        <time>2012-07-12T11:43:59Z</time>
      </trkpt>
      <trkpt lat="59.5113113" lon="17.8752525">
        <ele>1.2</ele>
        <time>2012-07-12T11:44:05Z</time>
      </trkpt>
      <trkpt lat="59.5110503" lon="17.8746641">
        <ele>1.4</ele>
        <time>2012-07-12T11:44:11Z</time>
      </trkpt>
      <trkpt lat="59.5107777" lon="17.8740831">
        <ele>1.6</ele>
        <time>2012-07-12T11:44:17Z</time>
      </trkpt>
      <trkpt lat="59.5105208" lon="17.8734878">
        <ele>1.6</ele>
        <time>2012-07-12T11:44:23Z</time>
      </trkpt>
      <trkpt lat="59.5102619" lon="17.8728914">
        <ele>1.6</ele>
        <time>2012-07-12T11:44:29Z</time>
      </trkpt>
      <trkpt lat="59.510012" lon="17.8722903">
        <ele>1.8</ele>
        <time>2012-07-12T11:44:35Z</time>
      </trkpt>
      <trkpt lat="59.5097763" lon="17.8716893">
        <ele>2.2</ele>
        <time>2012-07-12T11:44:41Z</time>
      </trkpt>
      <trkpt lat="59.5095459" lon="17.8710733">
        <ele>3.2</ele>
        <time>2012-07-12T11:44:48Z</time>
      </trkpt>
      <trkpt lat="59.5093389" lon="17.8704904">
        <ele>4</ele>
        <time>2012-07-12T11:44:55Z</time>
      </trkpt>
      <trkpt lat="59.5091388" lon="17.8698939">
        <ele>4.8</ele>
        <time>2012-07-12T11:45:03Z</time>
      </trkpt>
      <trkpt lat="59.5089343" lon="17.8692687">
        <ele>6</ele>
        <time>2012-07-12T11:45:13Z</time>
      </trkpt>
      <trkpt lat="59.508601" lon="17.8682404">
        <ele>13.4</ele>
        <time>2012-07-12T11:47:40Z</time>
      </trkpt>
      <trkpt lat="59.5084074" lon="17.8674836">
        <ele>10.8</ele>
        <time>2012-07-12T11:47:46Z</time>
      </trkpt>
      <trkpt lat="59.508223" lon="17.8667766">
        <ele>9.8</ele>
        <time>2012-07-12T11:47:51Z</time>
      </trkpt>
      <trkpt lat="59.508038" lon="17.8660031">
        <ele>7.4</ele>
        <time>2012-07-12T11:47:56Z</time>
      </trkpt>
      <trkpt lat="59.507889" lon="17.865356">
        <ele>5.8</ele>
        <time>2012-07-12T11:48:00Z</time>
      </trkpt>
      <trkpt lat="59.5077276" lon="17.8646816">
        <ele>5</ele>
        <time>2012-07-12T11:48:04Z</time>
      </trkpt>
      <trkpt lat="59.5075698" lon="17.8640212">
        <ele>4.8</ele>
        <time>2012-07-12T11:48:08Z</time>
      </trkpt>
      <trkpt lat="59.5073843" lon="17.8632431">
        <ele>6</ele>
        <time>2012-07-12T11:48:13Z</time>
      </trkpt>
      <trkpt lat="59.5072212" lon="17.8625154">
        <ele>6.8</ele>
        <time>2012-07-12T11:48:18Z</time>
      </trkpt>
      <trkpt lat="59.5070625" lon="17.8618518">
        <ele>10</ele>
        <time>2012-07-12T11:48:23Z</time>
      </trkpt>
      <trkpt lat="59.5069725" lon="17.8614801">
        <ele>11.8</ele>
        <time>2012-07-12T11:48:26Z</time>
      </trkpt>
      <trkpt lat="59.506914" lon="17.8612276">
        <ele>13.8</ele>
        <time>2012-07-12T11:48:28Z</time>
      </trkpt>
      <trkpt lat="59.5067045" lon="17.8605645">
        <ele>15.6</ele>
        <time>2012-07-12T11:48:33Z</time>
      </trkpt>
      <trkpt lat="59.5064576" lon="17.8599564">
        <ele>16</ele>
        <time>2012-07-12T11:48:38Z</time>
      </trkpt>
      <trkpt lat="59.5061697" lon="17.8594322">
        <ele>16.6</ele>
        <time>2012-07-12T11:48:43Z</time>
      </trkpt>
      <trkpt lat="59.5058679" lon="17.8590061">
        <ele>18.4</ele>
        <time>2012-07-12T11:48:48Z</time>
      </trkpt>
      <trkpt lat="59.5055056" lon="17.8586067">
        <ele>19.4</ele>
        <time>2012-07-12T11:48:54Z</time>
      </trkpt>
      <trkpt lat="59.5051475" lon="17.8582437">
        <ele>20</ele>
        <time>2012-07-12T11:49:00Z</time>
      </trkpt>
      <trkpt lat="59.5047699" lon="17.8578641">
        <ele>21.4</ele>
        <time>2012-07-12T11:49:06Z</time>
      </trkpt>
      <trkpt lat="59.5043983" lon="17.8575005">
        <ele>24</ele>
        <time>2012-07-12T11:49:12Z</time>
      </trkpt>
      <trkpt lat="59.5040767" lon="17.8571794">
        <ele>27.4</ele>
        <time>2012-07-12T11:49:18Z</time>
      </trkpt>
      <trkpt lat="59.5037474" lon="17.8568478">
        <ele>29</ele>
        <time>2012-07-12T11:49:24Z</time>
      </trkpt>
      <trkpt lat="59.5034216" lon="17.8565556">
        <ele>28.6</ele>
        <time>2012-07-12T11:49:30Z</time>
      </trkpt>
      <trkpt lat="59.5030761" lon="17.8561894">
        <ele>31.2</ele>
        <time>2012-07-12T11:49:36Z</time>
      </trkpt>
      <trkpt lat="59.5027238" lon="17.8558025">
        <ele>34.8</ele>
        <time>2012-07-12T11:49:42Z</time>
      </trkpt>
      <trkpt lat="59.502362" lon="17.8554091">
        <ele>37.6</ele>
        <time>2012-07-12T11:49:48Z</time>
      </trkpt>
      <trkpt lat="59.5020365" lon="17.8550586">
        <ele>38.4</ele>
        <time>2012-07-12T11:49:53Z</time>
      </trkpt>
      <trkpt lat="59.5017073" lon="17.8547224">
        <ele>38.6</ele>
        <time>2012-07-12T11:49:58Z</time>
      </trkpt>
      <trkpt lat="59.5013858" lon="17.8543981">
        <ele>38.4</ele>
        <time>2012-07-12T11:50:03Z</time>
      </trkpt>
      <trkpt lat="59.50103" lon="17.8540344">
        <ele>38.2</ele>
        <time>2012-07-12T11:50:09Z</time>
      </trkpt>
      <trkpt lat="59.500662" lon="17.8536568">
        <ele>38.4</ele>
        <time>2012-07-12T11:50:16Z</time>
      </trkpt>
      <trkpt lat="59.5003155" lon="17.8532999">
        <ele>37</ele>
        <time>2012-07-12T11:50:23Z</time>
      </trkpt>
      <trkpt lat="59.4999715" lon="17.8529454">
        <ele>35.6</ele>
        <time>2012-07-12T11:50:30Z</time>
      </trkpt>
      <trkpt lat="59.4996262" lon="17.8525992">
        <ele>34.6</ele>
        <time>2012-07-12T11:50:37Z</time>
      </trkpt>
      <trkpt lat="59.4992617" lon="17.8522204">
        <ele>34</ele>
        <time>2012-07-12T11:50:44Z</time>
      </trkpt>
      <trkpt lat="59.498919" lon="17.8518649">
        <ele>34</ele>
        <time>2012-07-12T11:50:50Z</time>
      </trkpt>
      <trkpt lat="59.4985713" lon="17.8515025">
        <ele>33.8</ele>
        <time>2012-07-12T11:50:56Z</time>
      </trkpt>
      <trkpt lat="59.4982369" lon="17.8511521">
        <ele>33.6</ele>
        <time>2012-07-12T11:51:02Z</time>
      </trkpt>
      <trkpt lat="59.4979047" lon="17.8508327">
        <ele>33.4</ele>
        <time>2012-07-12T11:51:08Z</time>
      </trkpt>
      <trkpt lat="59.4975592" lon="17.8505612">
        <ele>33.2</ele>
        <time>2012-07-12T11:51:14Z</time>
      </trkpt>
      <trkpt lat="59.4971955" lon="17.8503934">
        <ele>34.2</ele>
        <time>2012-07-12T11:51:20Z</time>
      </trkpt>
      <trkpt lat="59.4968172" lon="17.8503151">
        <ele>34.6</ele>
        <time>2012-07-12T11:51:26Z</time>
      </trkpt>
      <trkpt lat="59.4964356" lon="17.8503139">
        <ele>34</ele>
        <time>2012-07-12T11:51:32Z</time>
      </trkpt>
      <trkpt lat="59.4960534" lon="17.8503186">
        <ele>33.2</ele>
        <time>2012-07-12T11:51:38Z</time>
      </trkpt>
      <trkpt lat="59.4956586" lon="17.8503193">
        <ele>32</ele>
        <time>2012-07-12T11:51:44Z</time>
      </trkpt>
      <trkpt lat="59.4952344" lon="17.850324">
        <ele>31</ele>
        <time>2012-07-12T11:51:50Z</time>
      </trkpt>
      <trkpt lat="59.494869" lon="17.8503197">
        <ele>30.4</ele>
        <time>2012-07-12T11:51:55Z</time>
      </trkpt>
      <trkpt lat="59.494506" lon="17.850324">
        <ele>29.8</ele>
        <time>2012-07-12T11:52:00Z</time>
      </trkpt>
      <trkpt lat="59.4940813" lon="17.8503224">
        <ele>29.4</ele>
        <time>2012-07-12T11:52:06Z</time>
      </trkpt>
      <trkpt lat="59.4936606" lon="17.8503587">
        <ele>29</ele>
        <time>2012-07-12T11:52:12Z</time>
      </trkpt>
      <trkpt lat="59.4932447" lon="17.8504918">
        <ele>28.4</ele>
        <time>2012-07-12T11:52:18Z</time>
      </trkpt>
      <trkpt lat="59.4928267" lon="17.8506819">
        <ele>27.8</ele>
        <time>2012-07-12T11:52:24Z</time>
      </trkpt>
      <trkpt lat="59.4924786" lon="17.8509123">
        <ele>27</ele>
        <time>2012-07-12T11:52:29Z</time>
      </trkpt>
      <trkpt lat="59.4921336" lon="17.8511988">
        <ele>26.2</ele>
        <time>2012-07-12T11:52:34Z</time>
      </trkpt>
      <trkpt lat="59.4917994" lon="17.8515008">
        <ele>26</ele>
        <time>2012-07-12T11:52:39Z</time>
      </trkpt>
      <trkpt lat="59.4914286" lon="17.8518312">
        <ele>27.2</ele>
        <time>2012-07-12T11:52:45Z</time>
      </trkpt>
      <trkpt lat="59.4910995" lon="17.8521228">
        <ele>26</ele>
        <time>2012-07-12T11:52:50Z</time>
      </trkpt>
      <trkpt lat="59.4907698" lon="17.8523963">
        <ele>27</ele>
        <time>2012-07-12T11:52:55Z</time>
      </trkpt>
      <trkpt lat="59.4904424" lon="17.8527133">
        <ele>28.4</ele>
        <time>2012-07-12T11:53:00Z</time>
      </trkpt>
      <trkpt lat="59.4901118" lon="17.8530169">
        <ele>29.8</ele>
        <time>2012-07-12T11:53:05Z</time>
      </trkpt>
      <trkpt lat="59.4897663" lon="17.8533282">
        <ele>29.2</ele>
        <time>2012-07-12T11:53:10Z</time>
      </trkpt>
      <trkpt lat="59.4894243" lon="17.85362">
        <ele>28.6</ele>
        <time>2012-07-12T11:53:15Z</time>
      </trkpt>
      <trkpt lat="59.4890728" lon="17.8538687">
        <ele>29.2</ele>
        <time>2012-07-12T11:53:20Z</time>
      </trkpt>
      <trkpt lat="59.4887027" lon="17.8540736">
        <ele>28.8</ele>
        <time>2012-07-12T11:53:25Z</time>
      </trkpt>
      <trkpt lat="59.4883221" lon="17.8542661">
        <ele>28.8</ele>
        <time>2012-07-12T11:53:30Z</time>
      </trkpt>
      <trkpt lat="59.4879432" lon="17.8544613">
        <ele>28.6</ele>
        <time>2012-07-12T11:53:35Z</time>
      </trkpt>
      <trkpt lat="59.4875742" lon="17.854652">
        <ele>28.2</ele>
        <time>2012-07-12T11:53:40Z</time>
      </trkpt>
      <trkpt lat="59.4872072" lon="17.8548419">
        <ele>27.2</ele>
        <time>2012-07-12T11:53:45Z</time>
      </trkpt>
      <trkpt lat="59.4868116" lon="17.8550114">
        <ele>26.6</ele>
        <time>2012-07-12T11:53:50Z</time>
      </trkpt>
      <trkpt lat="59.4863685" lon="17.8550719">
        <ele>25</ele>
        <time>2012-07-12T11:53:55Z</time>
      </trkpt>
      <trkpt lat="59.4860055" lon="17.8550502">
        <ele>23</ele>
        <time>2012-07-12T11:53:59Z</time>
      </trkpt>
      <trkpt lat="59.4855787" lon="17.8550062">
        <ele>21.4</ele>
        <time>2012-07-12T11:54:04Z</time>
      </trkpt>
      <trkpt lat="59.4851746" lon="17.8549616">
        <ele>20.2</ele>
        <time>2012-07-12T11:54:09Z</time>
      </trkpt>
      <trkpt lat="59.4847663" lon="17.8549204">
        <ele>19.6</ele>
        <time>2012-07-12T11:54:14Z</time>
      </trkpt>
      <trkpt lat="59.4843576" lon="17.8548877">
        <ele>19</ele>
        <time>2012-07-12T11:54:19Z</time>
      </trkpt>
      <trkpt lat="59.4839468" lon="17.8548421">
        <ele>18</ele>
        <time>2012-07-12T11:54:24Z</time>
      </trkpt>
      <trkpt lat="59.483518" lon="17.8547978">
        <ele>17.4</ele>
        <time>2012-07-12T11:54:29Z</time>
      </trkpt>
      <trkpt lat="59.4830813" lon="17.8547535">
        <ele>17</ele>
        <time>2012-07-12T11:54:34Z</time>
      </trkpt>
      <trkpt lat="59.4826452" lon="17.8547094">
        <ele>16.6</ele>
        <time>2012-07-12T11:54:39Z</time>
      </trkpt>
      <trkpt lat="59.4822291" lon="17.8546707">
        <ele>17.2</ele>
        <time>2012-07-12T11:54:44Z</time>
      </trkpt>
      <trkpt lat="59.4818263" lon="17.8546772">
        <ele>18.6</ele>
        <time>2012-07-12T11:54:49Z</time>
      </trkpt>
      <trkpt lat="59.4814439" lon="17.8547985">
        <ele>20.4</ele>
        <time>2012-07-12T11:54:54Z</time>
      </trkpt>
      <trkpt lat="59.4810823" lon="17.8550252">
        <ele>20.6</ele>
        <time>2012-07-12T11:54:59Z</time>
      </trkpt>
      <trkpt lat="59.4807243" lon="17.8552601">
        <ele>22</ele>
        <time>2012-07-12T11:55:04Z</time>
      </trkpt>
      <trkpt lat="59.4803481" lon="17.85546">
        <ele>23.2</ele>
        <time>2012-07-12T11:55:09Z</time>
      </trkpt>
      <trkpt lat="59.4799541" lon="17.8555589">
        <ele>23.2</ele>
        <time>2012-07-12T11:55:14Z</time>
      </trkpt>
      <trkpt lat="59.4795543" lon="17.855574">
        <ele>22.2</ele>
        <time>2012-07-12T11:55:19Z</time>
      </trkpt>
      <trkpt lat="59.4791681" lon="17.8555836">
        <ele>20.4</ele>
        <time>2012-07-12T11:55:24Z</time>
      </trkpt>
      <trkpt lat="59.4789607" lon="17.8555738">
        <ele>20</ele>
        <time>2012-07-12T11:55:27Z</time>
      </trkpt>
      <trkpt lat="59.4788202" lon="17.8553216">
        <ele>18.6</ele>
        <time>2012-07-12T11:55:30Z</time>
      </trkpt>
      <trkpt lat="59.4787257" lon="17.854655">
        <ele>18.2</ele>
        <time>2012-07-12T11:55:35Z</time>
      </trkpt>
      <trkpt lat="59.4784514" lon="17.8543765">
        <ele>17.8</ele>
        <time>2012-07-12T11:55:39Z</time>
      </trkpt>
      <trkpt lat="59.4783773" lon="17.85433">
        <ele>17.6</ele>
        <time>2012-07-12T11:55:40Z</time>
      </trkpt>
      <trkpt lat="59.4780147" lon="17.8540985">
        <ele>17.4</ele>
        <time>2012-07-12T11:55:45Z</time>
      </trkpt>
      <trkpt lat="59.4776551" lon="17.8538501">
        <ele>17.6</ele>
        <time>2012-07-12T11:55:50Z</time>
      </trkpt>
      <trkpt lat="59.4773133" lon="17.8536215">
        <ele>17.4</ele>
        <time>2012-07-12T11:55:55Z</time>
      </trkpt>
      <trkpt lat="59.4769145" lon="17.8532984">
        <ele>16.8</ele>
        <time>2012-07-12T11:56:01Z</time>
      </trkpt>
      <trkpt lat="59.4767115" lon="17.8531265">
        <ele>17</ele>
        <time>2012-07-12T11:56:04Z</time>
      </trkpt>
      <trkpt lat="59.4766175" lon="17.8528673">
        <ele>18</ele>
        <time>2012-07-12T11:56:06Z</time>
      </trkpt>
      <trkpt lat="59.4766881" lon="17.8523265">
        <ele>20.6</ele>
        <time>2012-07-12T11:56:10Z</time>
      </trkpt>
      <trkpt lat="59.4767139" lon="17.8521898">
        <ele>21.4</ele>
        <time>2012-07-12T11:56:11Z</time>
      </trkpt>
      <trkpt lat="59.4768438" lon="17.851437">
        <ele>23.6</ele>
        <time>2012-07-12T11:56:17Z</time>
      </trkpt>
      <trkpt lat="59.4769636" lon="17.8507124">
        <ele>24.6</ele>
        <time>2012-07-12T11:56:23Z</time>
      </trkpt>
      <trkpt lat="59.477057" lon="17.8500337">
        <ele>25.4</ele>
        <time>2012-07-12T11:56:29Z</time>
      </trkpt>
      <trkpt lat="59.4771869" lon="17.8492626">
        <ele>26.6</ele>
        <time>2012-07-12T11:56:36Z</time>
      </trkpt>
      <trkpt lat="59.4773075" lon="17.8484875">
        <ele>27.8</ele>
        <time>2012-07-12T11:56:43Z</time>
      </trkpt>
      <trkpt lat="59.4774062" lon="17.8477107">
        <ele>29</ele>
        <time>2012-07-12T11:56:50Z</time>
      </trkpt>
      <trkpt lat="59.47749" lon="17.8470282">
        <ele>30</ele>
        <time>2012-07-12T11:56:56Z</time>
      </trkpt>
      <trkpt lat="59.4775697" lon="17.8462343">
        <ele>31</ele>
        <time>2012-07-12T11:57:03Z</time>
      </trkpt>
      <trkpt lat="59.4776248" lon="17.845522">
        <ele>31.6</ele>
        <time>2012-07-12T11:57:09Z</time>
      </trkpt>
      <trkpt lat="59.4776652" lon="17.8448113">
        <ele>32</ele>
        <time>2012-07-12T11:57:15Z</time>
      </trkpt>
      <trkpt lat="59.4777095" lon="17.8440649">
        <ele>32.6</ele>
        <time>2012-07-12T11:57:21Z</time>
      </trkpt>
      <trkpt lat="59.4777415" lon="17.8432998">
        <ele>33</ele>
        <time>2012-07-12T11:57:27Z</time>
      </trkpt>
      <trkpt lat="59.4777567" lon="17.8425034">
        <ele>33</ele>
        <time>2012-07-12T11:57:33Z</time>
      </trkpt>
      <trkpt lat="59.4777599" lon="17.8416958">
        <ele>34.6</ele>
        <time>2012-07-12T11:57:39Z</time>
      </trkpt>
      <trkpt lat="59.4777495" lon="17.8408898">
        <ele>35.8</ele>
        <time>2012-07-12T11:57:45Z</time>
      </trkpt>
      <trkpt lat="59.4777392" lon="17.8400656">
        <ele>36.2</ele>
        <time>2012-07-12T11:57:51Z</time>
      </trkpt>
      <trkpt lat="59.4777174" lon="17.8392302">
        <ele>37</ele>
        <time>2012-07-12T11:57:57Z</time>
      </trkpt>
      <trkpt lat="59.4776926" lon="17.8385311">
        <ele>37.8</ele>
        <time>2012-07-12T11:58:02Z</time>
      </trkpt>
      <trkpt lat="59.4776701" lon="17.8378328">
        <ele>39</ele>
        <time>2012-07-12T11:58:07Z</time>
      </trkpt>
      <trkpt lat="59.4776433" lon="17.8371318">
        <ele>39</ele>
        <time>2012-07-12T11:58:12Z</time>
      </trkpt>
      <trkpt lat="59.4776066" lon="17.8363028">
        <ele>38</ele>
        <time>2012-07-12T11:58:18Z</time>
      </trkpt>
      <trkpt lat="59.4775672" lon="17.8355403">
        <ele>36.8</ele>
        <time>2012-07-12T11:58:24Z</time>
      </trkpt>
      <trkpt lat="59.4775333" lon="17.8348312">
        <ele>38.2</ele>
        <time>2012-07-12T11:58:30Z</time>
      </trkpt>
      <trkpt lat="59.4774944" lon="17.8340515">
        <ele>39.8</ele>
        <time>2012-07-12T11:58:37Z</time>
      </trkpt>
      <trkpt lat="59.4774453" lon="17.8332654">
        <ele>41.4</ele>
        <time>2012-07-12T11:58:44Z</time>
      </trkpt>
      <trkpt lat="59.4773971" lon="17.8324977">
        <ele>42</ele>
        <time>2012-07-12T11:58:51Z</time>
      </trkpt>
      <trkpt lat="59.4773445" lon="17.8317289">
        <ele>43.4</ele>
        <time>2012-07-12T11:58:58Z</time>
      </trkpt>
      <trkpt lat="59.4772803" lon="17.8309624">
        <ele>46</ele>
        <time>2012-07-12T11:59:06Z</time>
      </trkpt>
      <trkpt lat="59.4772289" lon="17.8302589">
        <ele>47.4</ele>
        <time>2012-07-12T11:59:14Z</time>
      </trkpt>
      <trkpt lat="59.4771713" lon="17.8295584">
        <ele>48.4</ele>
        <time>2012-07-12T11:59:22Z</time>
      </trkpt>
      <trkpt lat="59.4771066" lon="17.8288119">
        <ele>49.2</ele>
        <time>2012-07-12T11:59:30Z</time>
      </trkpt>
      <trkpt lat="59.4770392" lon="17.8281158">
        <ele>50.2</ele>
        <time>2012-07-12T11:59:37Z</time>
      </trkpt>
      <trkpt lat="59.4769564" lon="17.8273516">
        <ele>52</ele>
        <time>2012-07-12T11:59:44Z</time>
      </trkpt>
      <trkpt lat="59.4768728" lon="17.8265448">
        <ele>51.4</ele>
        <time>2012-07-12T11:59:51Z</time>
      </trkpt>
      <trkpt lat="59.476789" lon="17.8258043">
        <ele>51.2</ele>
        <time>2012-07-12T11:59:57Z</time>
      </trkpt>
      <trkpt lat="59.476686" lon="17.825042">
        <ele>51.4</ele>
        <time>2012-07-12T12:00:03Z</time>
      </trkpt>
      <trkpt lat="59.4765741" lon="17.8242852">
        <ele>51.8</ele>
        <time>2012-07-12T12:00:09Z</time>
      </trkpt>
      <trkpt lat="59.4764611" lon="17.8235007">
        <ele>51.2</ele>
        <time>2012-07-12T12:00:15Z</time>
      </trkpt>
      <trkpt lat="59.4763446" lon="17.8228195">
        <ele>50.8</ele>
        <time>2012-07-12T12:00:20Z</time>
      </trkpt>
      <trkpt lat="59.4762196" lon="17.822106">
        <ele>50</ele>
        <time>2012-07-12T12:00:25Z</time>
      </trkpt>
      <trkpt lat="59.4760862" lon="17.8213154">
        <ele>48.6</ele>
        <time>2012-07-12T12:00:30Z</time>
      </trkpt>
      <trkpt lat="59.4759264" lon="17.8205167">
        <ele>47.2</ele>
        <time>2012-07-12T12:00:35Z</time>
      </trkpt>
      <trkpt lat="59.4757568" lon="17.8196912">
        <ele>46.6</ele>
        <time>2012-07-12T12:00:40Z</time>
      </trkpt>
      <trkpt lat="59.4755982" lon="17.8189748">
        <ele>46.6</ele>
        <time>2012-07-12T12:00:44Z</time>
      </trkpt>
      <trkpt lat="59.4754205" lon="17.8182307">
        <ele>47.4</ele>
        <time>2012-07-12T12:00:48Z</time>
      </trkpt>
      <trkpt lat="59.4752412" lon="17.8175001">
        <ele>48.4</ele>
        <time>2012-07-12T12:00:52Z</time>
      </trkpt>
      <trkpt lat="59.4750656" lon="17.816787">
        <ele>48.4</ele>
        <time>2012-07-12T12:00:56Z</time>
      </trkpt>
      <trkpt lat="59.4748833" lon="17.8160721">
        <ele>48</ele>
        <time>2012-07-12T12:01:00Z</time>
      </trkpt>
      <trkpt lat="59.4746916" lon="17.8153598">
        <ele>47.4</ele>
        <time>2012-07-12T12:01:04Z</time>
      </trkpt>
      <trkpt lat="59.4744713" lon="17.8145954">
        <ele>46.8</ele>
        <time>2012-07-12T12:01:08Z</time>
      </trkpt>
      <trkpt lat="59.4742178" lon="17.8138244">
        <ele>44.8</ele>
        <time>2012-07-12T12:01:12Z</time>
      </trkpt>
      <trkpt lat="59.473945" lon="17.8131451">
        <ele>42.4</ele>
        <time>2012-07-12T12:01:16Z</time>
      </trkpt>
      <trkpt lat="59.4736373" lon="17.8125937">
        <ele>41.6</ele>
        <time>2012-07-12T12:01:20Z</time>
      </trkpt>
      <trkpt lat="59.4734738" lon="17.8123598">
        <ele>40</ele>
        <time>2012-07-12T12:01:22Z</time>
      </trkpt>
      <trkpt lat="59.4733526" lon="17.8120618">
        <ele>38.8</ele>
        <time>2012-07-12T12:01:24Z</time>
      </trkpt>
      <trkpt lat="59.4732542" lon="17.8117437">
        <ele>38</ele>
        <time>2012-07-12T12:01:26Z</time>
      </trkpt>
      <trkpt lat="59.4731007" lon="17.8114999">
        <ele>37</ele>
        <time>2012-07-12T12:01:28Z</time>
      </trkpt>
      <trkpt lat="59.4729181" lon="17.8113271">
        <ele>36</ele>
        <time>2012-07-12T12:01:30Z</time>
      </trkpt>
      <trkpt lat="59.4727351" lon="17.8111618">
        <ele>35</ele>
        <time>2012-07-12T12:01:32Z</time>
      </trkpt>
      <trkpt lat="59.4723869" lon="17.8108345">
        <ele>33.2</ele>
        <time>2012-07-12T12:01:36Z</time>
      </trkpt>
      <trkpt lat="59.4719601" lon="17.8105201">
        <ele>31.4</ele>
        <time>2012-07-12T12:01:41Z</time>
      </trkpt>
      <trkpt lat="59.4716018" lon="17.8103148">
        <ele>30.2</ele>
        <time>2012-07-12T12:01:45Z</time>
      </trkpt>
      <trkpt lat="59.4712361" lon="17.8101746">
        <ele>29.8</ele>
        <time>2012-07-12T12:01:49Z</time>
      </trkpt>
      <trkpt lat="59.4708724" lon="17.8100733">
        <ele>29</ele>
        <time>2012-07-12T12:01:53Z</time>
      </trkpt>
      <trkpt lat="59.470503" lon="17.8100109">
        <ele>27.6</ele>
        <time>2012-07-12T12:01:57Z</time>
      </trkpt>
      <trkpt lat="59.4701181" lon="17.8099787">
        <ele>26.2</ele>
        <time>2012-07-12T12:02:01Z</time>
      </trkpt>
      <trkpt lat="59.469729" lon="17.8099512">
        <ele>25</ele>
        <time>2012-07-12T12:02:05Z</time>
      </trkpt>
      <trkpt lat="59.4693348" lon="17.8098938">
        <ele>23.8</ele>
        <time>2012-07-12T12:02:09Z</time>
      </trkpt>
      <trkpt lat="59.4690474" lon="17.8097673">
        <ele>22.8</ele>
        <time>2012-07-12T12:02:12Z</time>
      </trkpt>
      <trkpt lat="59.4689594" lon="17.8096673">
        <ele>22.2</ele>
        <time>2012-07-12T12:02:13Z</time>
      </trkpt>
      <trkpt lat="59.4687843" lon="17.8094706">
        <ele>21.6</ele>
        <time>2012-07-12T12:02:15Z</time>
      </trkpt>
      <trkpt lat="59.4685902" lon="17.8094426">
        <ele>21.4</ele>
        <time>2012-07-12T12:02:17Z</time>
      </trkpt>
      <trkpt lat="59.4682944" lon="17.8093981">
        <ele>21.6</ele>
        <time>2012-07-12T12:02:20Z</time>
      </trkpt>
      <trkpt lat="59.4681959" lon="17.8093706">
        <ele>21.6</ele>
        <time>2012-07-12T12:02:21Z</time>
      </trkpt>
      <trkpt lat="59.4678061" lon="17.8092468">
        <ele>22</ele>
        <time>2012-07-12T12:02:25Z</time>
      </trkpt>
      <trkpt lat="59.4673762" lon="17.8092711">
        <ele>23.2</ele>
        <time>2012-07-12T12:02:30Z</time>
      </trkpt>
      <trkpt lat="59.466993" lon="17.8094787">
        <ele>23.8</ele>
        <time>2012-07-12T12:02:35Z</time>
      </trkpt>
      <trkpt lat="59.4666144" lon="17.8098595">
        <ele>24.4</ele>
        <time>2012-07-12T12:02:40Z</time>
      </trkpt>
      <trkpt lat="59.4663377" lon="17.8103206">
        <ele>24.8</ele>
        <time>2012-07-12T12:02:45Z</time>
      </trkpt>
      <trkpt lat="59.466293" lon="17.8104158">
        <ele>25.2</ele>
        <time>2012-07-12T12:02:46Z</time>
      </trkpt>
      <trkpt lat="59.4661068" lon="17.8109002">
        <ele>26.2</ele>
        <time>2012-07-12T12:02:51Z</time>
      </trkpt>
      <trkpt lat="59.4658803" lon="17.8115058">
        <ele>27</ele>
        <time>2012-07-12T12:02:57Z</time>
      </trkpt>
      <trkpt lat="59.4656576" lon="17.8120991">
        <ele>28.4</ele>
        <time>2012-07-12T12:03:03Z</time>
      </trkpt>
      <trkpt lat="59.4654491" lon="17.8126935">
        <ele>29.2</ele>
        <time>2012-07-12T12:03:09Z</time>
      </trkpt>
      <trkpt lat="59.4654083" lon="17.8127853">
        <ele>29</ele>
        <time>2012-07-12T12:03:10Z</time>
      </trkpt>
      <trkpt lat="59.4651166" lon="17.8125838">
        <ele>29.6</ele>
        <time>2012-07-12T12:03:15Z</time>
      </trkpt>
      <trkpt lat="59.464913" lon="17.8120218">
        <ele>28.6</ele>
        <time>2012-07-12T12:03:19Z</time>
      </trkpt>
      <trkpt lat="59.464869" lon="17.8118659">
        <ele>28.4</ele>
        <time>2012-07-12T12:03:20Z</time>
      </trkpt>
      <trkpt lat="59.4647024" lon="17.8112286">
        <ele>27.2</ele>
        <time>2012-07-12T12:03:24Z</time>
      </trkpt>
      <trkpt lat="59.4645314" lon="17.8105506">
        <ele>25.8</ele>
        <time>2012-07-12T12:03:28Z</time>
      </trkpt>
      <trkpt lat="59.4643805" lon="17.8098506">
        <ele>24.8</ele>
        <time>2012-07-12T12:03:32Z</time>
      </trkpt>
      <trkpt lat="59.4643565" lon="17.8096647">
        <ele>24.6</ele>
        <time>2012-07-12T12:03:33Z</time>
      </trkpt>
      <trkpt lat="59.4643367" lon="17.8091083">
        <ele>25</ele>
        <time>2012-07-12T12:03:36Z</time>
      </trkpt>
      <trkpt lat="59.4643538" lon="17.8083683">
        <ele>26</ele>
        <time>2012-07-12T12:03:40Z</time>
      </trkpt>
      <trkpt lat="59.464317" lon="17.8076456">
        <ele>26.6</ele>
        <time>2012-07-12T12:03:44Z</time>
      </trkpt>
      <trkpt lat="59.4640923" lon="17.8068891">
        <ele>27.4</ele>
        <time>2012-07-12T12:03:49Z</time>
      </trkpt>
      <trkpt lat="59.4637933" lon="17.8064992">
        <ele>28</ele>
        <time>2012-07-12T12:03:54Z</time>
      </trkpt>
      <trkpt lat="59.4635563" lon="17.8063647">
        <ele>28.8</ele>
        <time>2012-07-12T12:03:56Z</time>
      </trkpt>
      <trkpt lat="59.463399" lon="17.8063289">
        <ele>29.2</ele>
        <time>2012-07-12T12:03:58Z</time>
      </trkpt>
      <trkpt lat="59.4630008" lon="17.8063434">
        <ele>30.6</ele>
        <time>2012-07-12T12:04:03Z</time>
      </trkpt>
      <trkpt lat="59.462605" lon="17.8064506">
        <ele>30.2</ele>
        <time>2012-07-12T12:04:08Z</time>
      </trkpt>
      <trkpt lat="59.4622049" lon="17.8065932">
        <ele>29</ele>
        <time>2012-07-12T12:04:13Z</time>
      </trkpt>
      <trkpt lat="59.4618197" lon="17.8066053">
        <ele>29</ele>
        <time>2012-07-12T12:04:18Z</time>
      </trkpt>
      <trkpt lat="59.4614436" lon="17.8066486">
        <ele>27.2</ele>
        <time>2012-07-12T12:04:23Z</time>
      </trkpt>
      <trkpt lat="59.4610742" lon="17.8066688">
        <ele>25.2</ele>
        <time>2012-07-12T12:04:28Z</time>
      </trkpt>
      <trkpt lat="59.4606417" lon="17.8066858">
        <ele>25.4</ele>
        <time>2012-07-12T12:04:34Z</time>
      </trkpt>
      <trkpt lat="59.4602582" lon="17.8066505">
        <ele>25.2</ele>
        <time>2012-07-12T12:04:39Z</time>
      </trkpt>
      <trkpt lat="59.4598487" lon="17.8065941">
        <ele>25.6</ele>
        <time>2012-07-12T12:04:44Z</time>
      </trkpt>
      <trkpt lat="59.4594643" lon="17.8065449">
        <ele>27.2</ele>
        <time>2012-07-12T12:04:49Z</time>
      </trkpt>
      <trkpt lat="59.4590845" lon="17.8064945">
        <ele>28.2</ele>
        <time>2012-07-12T12:04:54Z</time>
      </trkpt>
      <trkpt lat="59.4586898" lon="17.8063849">
        <ele>24.4</ele>
        <time>2012-07-12T12:04:59Z</time>
      </trkpt>
      <trkpt lat="59.4582796" lon="17.8062549">
        <ele>21.4</ele>
        <time>2012-07-12T12:05:04Z</time>
      </trkpt>
      <trkpt lat="59.4578878" lon="17.8060926">
        <ele>19.2</ele>
        <time>2012-07-12T12:05:09Z</time>
      </trkpt>
      <trkpt lat="59.457529" lon="17.8059445">
        <ele>18.2</ele>
        <time>2012-07-12T12:05:14Z</time>
      </trkpt>
      <trkpt lat="59.4572109" lon="17.8057306">
        <ele>17.4</ele>
        <time>2012-07-12T12:05:19Z</time>
      </trkpt>
      <trkpt lat="59.4571818" lon="17.8056154">
        <ele>17</ele>
        <time>2012-07-12T12:05:20Z</time>
      </trkpt>
      <trkpt lat="59.4573679" lon="17.8050633">
        <ele>18.6</ele>
        <time>2012-07-12T12:05:26Z</time>
      </trkpt>
      <trkpt lat="59.457412" lon="17.8049977">
        <ele>19</ele>
        <time>2012-07-12T12:05:27Z</time>
      </trkpt>
    </trkseg>
  </trk>
</gpx>